[[{"header":{"parameterUnit":"m.s-1","parameterCategory":1,"la1":31.0,"la2":29.5877,"lo1":-88.7671,"lo2":-86.6584,"dy":0.0162,"dx":0.0185,"nx":115,"ny":88,"refTime":"2026-04-22T00:00:00:Z","depth":0,"parameterNumber":2,"parameterNumberName":"U-component_of_WINDS"},"data":[0.0,0.0,0.0,0.0,0.0,0.0,0.0,0.0,0.0,0.0,0.0,0.0,0.0,0.0,0.0,0.0,0.0,0.0,0.0,0.0,0.0,0.0,0.0,0.0,0.0,0.0,0.0,0.0,0.0,0.0,0.0,0.0,0.0,0.0,0.0,0.0,0.0,0.0,0.0,0.0,0.0,0.0,0.0,0.0,0.0,0.0,0.0,0.0,0.0,0.0,0.0,0.0,0.0,0.0,0.0,0.0,0.0,0.0,0.0,0.0,0.0,0.0,0.0,0.0,0.0,0.0,0.0,0.0,0.0,0.0,0.0,0.0,0.0,0.0,0.0,0.0,0.0,0.0,0.0,0.0,0.0,0.0,0.0,0.0,0.0,0.0,0.0,0.0,0.0,0.0,0.0,0.0,0.0,0.0,0.0,0.0,0.0,0.0,0.0,0.0,0.0,0.0,0.0,0.0,0.0,0.0,0.0,0.0,0.0,0.0,0.0,0.0,0.0,0.0,0.0,0.0,0.0,0.0,0.0,0.0,0.0,0.0,0.0,0.0,0.0,0.0,0.0,0.0,0.0,0.0,0.0,0.0,0.0,0.0,0.0,0.0,0.0,0.0,0.0,0.0,0.0,0.0,0.0,0.0,0.0,0.0,0.0,0.0,0.0,0.0,0.0,0.0,0.0,0.0,0.0,0.0,0.0,0.0,0.0,0.0,0.0,0.0,0.0,0.0,0.0,0.0,0.0,0.0,0.0,0.0,0.0,0.0,0.0,0.0,0.0,0.0,0.0,0.0,0.0,0.0,0.0,0.0,0.0,0.0,0.0,0.0,0.0,0.0,0.0,0.0,0.0,0.0,0.0,0.0,0.0,0.0,0.0,0.0,0.0,0.0,0.0,0.0,0.0,0.0,0.0,0.0,0.0,0.0,0.0,0.0,0.0,0.0,0.0,0.0,0.0,0.0,0.0,0.0,0.0,0.0,0.0,0.0,0.0,0.0,0.0,0.0,0.0,0.0,0.0,0.0,0.0,0.0,0.0,0.0,0.0,0.0,0.0,0.0,0.0,0.0,0.0,0.0,0.0,0.0,0.0,0.0,0.0,0.0,0.0,0.0,0.0,0.0,0.0,0.0,0.0,0.0,0.0,0.0,0.0,0.0,0.0,0.0,0.0,0.0,0.0,0.0,0.0,0.0,0.0,0.0,0.0,0.0,0.0,0.0,0.0,0.0,0.0,0.0,0.0,0.0,0.0,0.0,0.0,0.0,0.0,0.0,0.0,0.0,0.0,0.0,0.0,0.0,0.0,0.0,0.0,0.0,0.0,0.0,0.0,0.0,0.0,0.0,0.0,0.0,0.0,0.0,0.0,0.0,0.0,0.0,0.0,0.0,0.0,0.0,0.0,0.0,0.0,0.0,0.0,0.0,0.0,0.0,0.0,0.0,0.0,0.0,0.0,0.0,0.0,0.0,0.0,0.0,0.0,0.0,0.0,0.0,0.0,0.0,0.0,0.0,0.0,0.0,0.0,0.0,0.0,0.0,0.0,0.0,0.0,0.0,0.0,0.0,0.0,0.0,0.0,0.0,0.0,0.0,0.0,0.0,0.0,0.0,0.0,0.0,0.0,0.0,0.0,0.0,0.0,0.0,0.0,0.0,0.0,0.0,0.0,0.0,0.0,0.0,0.0,0.0,0.0,0.0,0.0,0.0,0.0,0.0,0.0,0.0,0.0,0.0,0.0,0.0,0.0,0.0,0.0,0.0,0.0,0.0,0.0,0.0,0.0,0.0,0.0,0.0,0.0,0.0,0.0,0.0,0.0,0.0,0.0,0.0,0.0,0.0,0.0,0.0,0.0,0.0,0.0,0.0,0.0,0.0,0.0,0.0,0.0,0.0,0.0,0.0,0.0,0.0,0.0,0.0,0.0,0.0,0.0,0.0,0.0,0.0,0.0,0.0,0.0,0.0,0.0,0.0,0.0,0.0,0.0,0.0,0.0,0.0,0.0,0.0,0.0,0.0,0.0,0.0,0.0,0.0,0.0,0.0,0.0,0.0,0.0,0.0,0.0,0.0,0.0,0.0,0.0,0.0,0.0,0.0,0.0,0.0,0.0,0.0,0.0,0.0,0.0,0.0,0.0,0.0,0.0,0.0,0.0,0.0,0.0,0.0,0.0,0.0,0.0,0.0,0.0,0.0,0.0,0.0,0.0,0.0,0.0,0.0,0.0,0.0,0.0,0.0,0.0,0.0,0.0,0.0,0.0,0.0,0.0,0.0,0.0,0.0,0.0,0.0,0.0,0.0,0.0,0.0,0.0,0.0,0.0,0.0,0.0,0.0,0.0,0.0,0.0,0.0,0.0,0.0,0.0,0.0,0.0,0.0,0.0,0.0,0.0,0.0,0.0,0.0,0.0,0.0,0.0,0.0,0.0,0.0,0.0,0.0,0.0,0.0,0.0,0.0,0.0,0.0,0.0,0.0,0.0,0.0,0.0,0.0,0.0,0.0,0.0,0.0,0.0,0.0,0.0,0.0,0.0,0.0,0.0,0.0,0.0,0.0,0.0,0.0,0.0,0.0,0.0,0.0,0.0,0.0,0.0,0.0,0.0,0.0,0.0,0.0,0.0,0.0,0.0,0.0,0.0,0.0,0.0,0.0,0.0,0.0,0.0,0.0,0.0,0.0,0.0,0.0,0.0,0.0,0.0,0.0,0.0,0.0,0.0,0.0,0.0,0.0,0.0,0.0,0.0,0.0,0.0,0.0,0.0,0.0,0.0,0.0,0.0,0.0,0.0,0.0,0.0,0.0,0.0,0.0,0.0,0.0,0.0,0.0,0.0,0.0,0.0,0.0,0.0,0.0,0.0,0.0,0.0,0.0,0.0,0.0,0.0,0.0,0.0,0.0,0.0,0.0,0.0,0.0,0.0,0.0,0.0,0.0,0.0,0.0,0.0,0.0,0.0,0.0,0.0,0.0,0.0,0.0,0.0,0.0,0.0,0.0,0.0,0.0,0.0,0.0,0.0,0.0,0.0,0.0,0.0,0.0,0.0,0.0,0.0,0.0,0.0,0.0,0.0,0.0,0.0,0.0,0.0,0.0,0.0,0.0,0.0,0.0,0.0,0.0,0.0,0.0,0.0,0.0,0.0,0.0,0.0,0.0,0.0,0.0,0.0,0.0,0.0,0.0,0.0,0.0,0.0,0.0,0.0,0.0,0.0,0.0,0.0,0.0,0.0,0.0,0.0,0.0,0.0,0.0,0.0,0.0,0.0,0.0,0.0,0.0,0.0,0.0,0.0,0.0,0.0,0.0,0.0,0.0,0.0,0.0,0.0,0.0,0.0,0.0,0.0,0.0,0.0,0.0,0.0,0.0,0.0,0.0,0.0,0.0,0.0,0.0,0.0,0.0,0.0,0.0,0.0,0.0,0.0,0.0,0.0,0.0,0.0,0.0,0.0,0.0,0.0,0.0,0.0,0.0,0.0,0.0,0.0,0.0,0.0,0.0,0.0,0.0,0.0,0.0,0.0,0.0,0.0,0.0,0.0,0.0,0.0,0.0,0.0,0.0,0.0,0.0,0.0,0.0,0.0,0.0,0.0,0.0,0.0,0.0,0.0,0.0,0.0,0.0,0.0,0.0,0.0,0.0,0.0,0.0,0.0,0.0,0.0,0.0,0.0,0.0,0.0,0.0,0.0,0.0,0.0,0.0,0.0,0.0,0.0,0.0,0.0,0.0,0.0,0.0,0.0,0.0,0.0,0.0,0.0,0.0,0.0,0.0,0.0,0.0,0.0,0.0,0.0,0.0,0.0,0.0,0.0,0.0,0.0,0.0,0.0,0.0,0.0,0.0,0.0,0.0,0.0,0.0,0.0,0.0,0.0,0.0,0.0,0.0,0.0,0.0,0.0,0.0,0.0,0.0,0.0,0.0,0.0,0.0,0.0,0.0,0.0,0.0,0.0,0.0,0.0,0.0,0.0,0.0,0.0,0.0,0.0,0.0,0.0,0.0,0.0,0.0,0.0,0.0,0.0,0.0,0.0,0.0,0.0,0.0,0.0,0.0,0.0,0.0,0.0,0.0,0.0,0.0,0.0,0.0,0.0,0.0,0.0,0.0,0.0,0.0,0.0,0.0,0.0,0.0,0.0,0.0,0.0,0.0,0.0,0.0,0.0,0.0,0.0,0.0,0.0,0.0,0.0,0.0,0.0,0.0,0.0,0.0,0.0,0.0,0.0,0.0,0.0,0.0,0.0,0.0,0.0,0.0,0.0,0.0,0.0,0.0,0.6193,0.0,0.0,0.0,0.0,0.0,0.0,0.0,0.0,0.0,0.0,0.0,0.0,0.0,0.0,0.0,0.0,0.0,0.0,0.0,0.0,0.0,0.0,0.0,0.0,0.0,0.0,0.0,0.0,0.0,0.0,0.0,0.0,0.0,0.0,0.0,0.0,0.0,0.0,0.0,0.0,0.0,0.0,0.0,0.0,0.0,0.0,0.0,0.0,0.0,0.0,0.0,0.0,0.0,0.0,0.0,0.0,0.0,0.0,0.0,0.0,0.0,0.0,0.0,0.0,0.0,0.0,0.0,0.0,0.0,0.0,0.0,0.0,0.0,0.0,0.0,0.0,0.0,0.0,0.0,0.0,0.0,0.0,0.0,0.0,0.0,0.0,0.0,0.0,0.0,0.0,0.0,0.0,0.0,0.0,0.0,0.0,0.0,0.0,0.0,0.0,0.0,0.0,0.0,0.0,0.0,0.0,0.0,0.0,0.0,0.0,1.0878,1.0221,0.9325,0.8076,0.652,0.0,0.0,0.0,0.0,0.0,0.0,0.0,0.0,0.0,0.0,0.0,0.0,0.0,0.0,0.0,0.0,0.0,0.0,0.0,0.0,0.0,0.0,0.0,0.0,0.0,0.0,0.0,0.0,0.0,0.0,0.0,0.0,0.0,0.0,0.0,0.0,0.0,0.0,0.0,0.0,0.0,0.0,0.0,0.0,0.0,0.0,0.0,0.0,0.0,0.0,0.0,0.0,0.0,0.0,0.0,0.0,0.0,0.0,0.0,0.0,0.0,0.0,0.0,0.0,0.0,0.0,0.0,0.0,0.0,0.0,0.0,0.0,0.0,0.0,0.0,0.0,0.0,0.0,0.0,0.0,0.0,0.0,0.0,0.0,0.0,0.0,0.0,0.0,0.0,0.0,0.0,0.0,0.0,0.0,0.0,0.0,0.0,0.0,0.0,0.0,0.0,0.0,0.0,0.0,0.0,0.0,0.0,0.0,0.0,0.0,0.0,0.0,0.9814,0.8274,0.6344,0.0,0.0,0.0,0.0,0.0,0.0,0.0,0.0,0.0,0.0,0.0,0.0,0.0,0.0,0.0,0.0,0.0,0.0,0.0,0.0,0.0,0.0,0.0,0.0,0.0,0.0,0.0,0.0,0.0,0.0,0.0,0.0,0.0,0.0,0.0,0.0,0.0,0.0,0.0,0.0,0.0,0.0,0.0,0.0,0.0,0.0,0.0,0.0,0.0,0.0,0.0,0.0,0.0,0.0,0.0,0.0,0.0,0.0,0.0,0.0,0.0,0.0,0.0,0.0,0.0,0.0,0.0,0.0,0.0,0.0,0.0,0.0,0.0,0.0,0.0,0.0,0.0,0.0,0.0,0.0,0.0,0.0,0.0,0.0,0.0,0.0,0.0,0.0,0.0,0.0,0.0,0.0,0.0,0.0,0.0,0.0,0.0,0.0,0.0,0.0,0.0,0.0,0.0,0.0,0.0,0.0,0.0,0.0,0.0,0.0,1.1615,1.075,0.9845,0.0,0.4706,0.0,0.0,0.0,0.0,0.0,0.0,0.0,0.0,0.0,0.0,0.0,0.0,0.0,0.0,0.0,0.0,0.0,0.0,0.0,0.0,0.0,0.0,0.0,0.0,0.0,0.0,0.0,0.0,0.0,0.0,0.0,0.0,0.0,0.0,0.0,0.0,0.0,0.0,0.0,0.0,0.0,0.0,0.0,0.0,0.0,0.0,0.0,0.0,0.0,0.0,0.0,0.0,0.0,0.0,0.0,0.0,0.0,0.0,0.0,0.0,0.0,0.0,0.0,0.0,0.0,0.0,0.0,0.0,0.0,0.0,0.0,0.0,0.0,0.0,0.0,0.0,0.0,0.0,0.0,0.0,0.0,0.0,0.0,0.0,0.0,0.0,0.0,0.0,0.0,0.0,0.0,0.0,0.0,0.0,0.0,0.0,0.0,0.0,0.0,0.0,0.0,0.0,0.0,0.0,0.0,0.0,0.0,0.0,0.0,0.0,0.0,1.1729,0.9399,0.6961,0.0,0.0,0.0,0.0,0.0,0.0,0.0,0.0,0.0,0.0,0.0,0.0,0.0,0.0,0.0,0.0,0.0,0.0,0.0,0.0,0.0,0.0,0.0,0.0,0.0,0.0,0.0,0.0,0.0,0.0,0.0,0.0,0.0,0.0,0.0,0.0,0.0,0.0,0.0,0.0,0.0,0.0,0.0,0.0,0.0,0.0,0.0,0.0,0.0,0.0,0.0,0.0,0.0,0.0,0.0,0.0,0.0,0.0,0.0,0.0,0.0,0.0,0.0,0.0,0.0,0.0,0.0,0.0,0.0,0.0,0.0,0.0,0.0,0.0,0.0,0.0,0.0,0.0,0.0,0.0,0.0,0.0,0.0,0.0,0.0,0.0,0.0,0.0,0.0,0.0,0.0,0.0,0.0,0.0,0.0,0.0,0.0,0.0,0.0,0.0,0.0,0.0,0.0,0.0,0.0,0.0,0.0,0.0,0.0,0.0,1.4144,0.0,1.1586,0.8749,0.6293,0.4372,0.0,0.0,0.0,0.0,0.0,0.0,0.0,0.0,0.0,0.0,0.0,0.0,0.0,0.0,0.0,0.0,0.0,0.0,0.0,0.0,0.0,0.0,0.0,0.0,0.0,0.0,0.0,0.0,0.0,0.0,0.0,0.0,0.0,0.0,0.0,0.0,0.0,0.0,0.0,0.0,0.0,0.0,0.0,0.0,0.0,0.0,0.0,0.0,0.0,0.0,0.0,0.0,0.0,0.0,0.0,0.0,0.0,0.0,0.0,0.0,0.0,0.0,0.0,0.0,0.0,0.0,0.0,0.0,0.0,0.0,0.0,0.0,0.0,0.0,0.0,0.0,0.0,0.0,0.0,0.0,0.0,0.0,0.0,0.0,0.0,0.0,0.0,0.0,0.0,0.0,0.0,0.0,0.0,0.0,0.0,0.0,0.0,0.0,0.0,0.0,0.0,0.0,0.0,0.0,0.0,0.0,0.0,0.0,0.0,1.3735,1.2219,0.9826,0.79,0.6116,0.0,0.0,0.0,0.0,0.0,0.0,0.0,0.0,0.0,0.0,0.0,0.0,0.0,0.0,0.0,0.0,0.0,0.0,0.0,0.0,0.0,0.0,0.0,0.0,0.0,0.0,0.0,0.0,0.0,0.0,0.0,0.0,0.0,0.0,0.0,0.0,0.0,0.0,0.0,0.0,0.0,0.0,0.0,0.0,0.0,0.0,0.0,0.0,0.0,0.0,0.0,0.0,0.0,0.0,0.0,0.0,0.0,0.0,0.0,0.0,0.0,0.0,0.0,0.0,0.0,0.0,0.0,0.0,0.0,0.0,0.0,0.0,0.0,0.0,0.0,0.0,0.0,0.0,0.0,0.0,0.0,0.0,0.0,0.0,0.0,0.0,0.0,0.0,0.0,0.0,0.0,0.0,0.0,0.0,0.0,0.0,0.0,0.0,0.0,0.0,0.0,0.0,0.0,0.0,0.0,0.0,0.0,0.0,0.0,1.3974,1.2602,1.1027,0.9248,0.7528,0.5891,0.0,0.0,0.0,0.0,0.0,0.0,0.0,0.0,0.0,0.0,0.0,0.0,0.0,0.0,0.0,0.0,0.0,0.0,0.0,0.0,0.0,0.0,0.0,0.0,0.0,0.0,0.0,0.0,0.0,0.0,0.0,0.0,0.0,0.0,0.0,0.0,0.0,0.0,0.0,0.0,0.0,0.0,0.0,0.0,0.0,0.0,0.0,0.0,0.0,0.0,0.0,0.0,0.0,0.0,0.0,0.0,0.0,0.0,0.0,0.0,0.0,0.0,0.0,0.0,0.0,0.0,0.0,0.0,0.0,0.0,0.0,0.0,0.0,0.0,0.0,0.0,0.0,0.0,0.0,0.0,0.0,0.0,0.0,0.0,0.0,0.0,0.0,0.0,0.0,0.0,0.0,0.0,0.0,0.0,0.0,0.0,0.0,0.0,0.0,0.0,0.0,0.0,0.0,0.0,0.0,0.0,0.0,0.0,0.0,1.3303,0.0,1.047,0.0,0.7418,0.5812,0.0,0.0,0.0,0.0,0.0,0.0,0.0,0.0,0.0,0.0,0.0,0.0,0.0,0.0,0.0,0.0,0.0,0.0,0.0,0.0,0.0,0.0,0.0,0.0,0.0,0.0,0.0,0.0,0.0,0.0,0.0,0.0,0.0,0.0,0.0,0.0,0.0,0.0,0.0,0.0,0.0,0.0,0.0,0.0,0.0,0.0,0.0,0.0,0.0,0.0,0.0,0.0,0.0,0.0,0.0,0.0,0.0,0.0,0.0,0.0,0.0,0.0,0.0,0.0,0.0,0.0,0.0,0.0,0.0,0.0,0.0,0.0,0.0,0.0,0.0,0.0,0.0,0.0,0.0,0.0,0.0,0.0,0.0,0.0,0.0,0.0,0.0,0.0,0.0,0.0,0.0,0.0,0.0,0.0,0.0,0.0,0.0,0.0,0.0,0.0,0.0,0.0,0.0,0.0,0.0,0.0,0.0,0.0,0.0,1.2323,1.1681,1.0532,0.8991,0.7445,0.5879,0.0,0.0,0.0,0.0,0.0,0.0,0.0,0.0,0.0,0.0,0.0,0.0,0.0,0.0,0.0,0.0,0.0,0.0,0.0,0.0,0.0,0.0,0.0,0.0,0.0,0.0,0.0,0.0,0.0,0.0,0.0,0.0,0.0,0.0,0.0,0.0,0.0,0.0,0.0,0.0,0.0,0.0,0.0,0.0,0.0,0.0,0.0,0.0,0.0,0.0,0.0,0.0,0.0,0.0,0.0,0.0,0.0,0.0,0.0,0.0,0.0,0.0,0.0,0.0,0.0,0.0,0.0,0.0,0.0,0.0,0.0,0.0,0.0,0.0,0.0,0.0,0.0,0.0,0.0,0.0,0.0,0.0,0.0,0.0,0.0,0.0,0.0,0.0,0.0,0.0,0.0,0.0,0.0,0.0,0.0,0.0,0.0,0.0,0.0,0.0,0.0,0.0,0.0,0.0,0.0,0.0,0.0,0.0,0.0,1.1804,1.0726,0.9466,0.7999,0.6622,0.5266,0.0,0.0,0.0,0.0,0.0,0.0,0.0,0.0,0.0,0.0,0.0,0.0,0.0,0.0,0.0,0.0,0.0,0.0,0.0,0.0,0.0,0.0,0.0,0.0,0.0,0.0,0.0,0.0,0.0,0.0,0.0,0.0,0.0,0.0,0.0,0.0,0.0,0.0,0.0,0.0,0.0,0.0,0.0,0.0,0.0,0.0,0.0,0.0,0.0,0.0,0.0,0.0,0.0,0.0,0.0,0.0,0.0,0.0,0.0,0.0,0.0,0.0,0.0,0.0,0.0,0.0,0.0,0.0,0.0,0.0,0.0,0.0,0.0,0.0,0.0,0.0,0.0,0.0,0.0,0.0,0.0,0.0,0.0,0.0,0.0,0.0,0.0,0.0,0.0,0.0,0.0,0.0,0.0,0.0,0.0,0.0,0.0,0.0,0.0,0.0,0.0,0.0,0.0,0.0,0.0,0.0,0.0,0.0,0.0,1.0199,0.9627,0.8634,0.7167,0.5947,0.4772,0.362,0.0,0.0,0.0,0.0,0.0,0.0,0.0,0.0,0.0,0.0,0.0,0.0,0.0,0.0,0.0,0.0,0.0,0.0,0.0,0.0,0.0,0.0,0.0,0.0,0.0,0.0,0.0,0.0,0.0,0.0,0.0,0.0,0.0,0.0,0.0,0.0,0.0,0.0,0.0,0.0,0.0,0.0,0.0,0.0,0.0,0.0,0.0,0.0,0.0,0.0,0.0,0.0,0.0,0.0,0.0,0.0,0.0,0.0,0.0,0.0,0.0,0.0,0.0,0.0,0.0,0.0,0.0,0.0,0.0,0.0,0.0,0.0,0.0,0.0,0.0,0.0,0.0,0.0,0.0,0.0,0.0,0.0,0.0,0.0,0.0,0.0,0.0,0.0,0.0,0.0,0.0,0.0,0.0,0.0,0.0,0.0,0.0,0.0,0.0,0.0,0.0,0.0,0.0,0.0,0.0,0.0,0.0,0.0,0.7695,0.8248,0.7811,0.6362,0.5363,0.4351,0.0,0.0,0.0,0.0,0.0,0.0,0.0,0.0,0.0,0.0,0.0,0.0,0.0,0.0,0.0,0.0,0.0,0.0,0.0,0.0,0.0,0.0,0.0,0.0,0.0,0.0,0.0,0.0,0.0,0.0,0.0,0.0,0.0,0.0,0.0,0.0,0.0,0.0,0.0,0.0,0.0,0.0,0.0,0.0,0.0,0.0,0.0,0.0,0.0,0.0,0.0,0.0,0.0,0.0,0.0,0.0,0.0,0.0,0.0,0.0,0.0,0.0,0.0,0.0,0.0,0.0,0.0,0.0,0.0,0.0,0.0,0.0,0.0,0.0,0.0,0.0,0.0,0.0,0.0,0.0,0.0,0.0,0.0,0.0,0.0,0.0,0.0,0.0,0.0,0.0,0.0,0.0,0.0,0.0,0.0,0.0,0.0,0.0,0.0,0.0,0.0,0.0,0.0,0.0,0.0,0.0,0.0,0.0,0.0,0.6058,0.5068,0.4454,0.4272,0.3739,0.3117,0.0,0.0,0.0,0.0,0.0,0.0,0.0,0.0,0.0,0.0,0.0,0.0,0.0,0.0,0.0,0.0,0.0,0.0,0.0,0.0,0.0,0.0,0.0,0.0,0.0,0.0,0.0,0.0,0.0,0.0,0.0,0.0,0.0,0.0,0.0,0.0,0.0,0.0,0.0,0.0,0.0,0.0,0.0,0.0,0.0,0.0,0.0,0.0,0.0,0.0,0.0,0.0,0.0,0.0,0.0,0.0,0.0,0.0,0.0,0.0,0.0,0.0,0.0,0.0,0.0,0.0,0.0,0.0,0.0,0.0,0.0,0.0,0.0,0.0,0.0,0.0,0.0,0.0,0.0,0.0,0.0,0.0,0.0,0.0,0.0,0.0,0.0,0.0,0.0,0.0,0.0,0.0,0.0,0.0,0.0,0.0,0.0,0.0,0.0,0.0,0.0,0.0,0.0,0.0,0.0,0.0,0.0,0.0,0.5702,0.4477,0.2978,0.2135,0.2035,0.2324,0.2299,0.0,0.0,0.0,0.0,0.0,0.0,0.0,0.0,0.0,0.0,0.0,0.0,0.0,0.0,0.0,0.0,0.0,0.0,0.0,0.0,0.0,0.0,0.0,0.0,0.0,0.0,0.0,0.0,0.0,0.0,0.0,0.0,0.0,0.0,0.0,0.0,0.0,0.0,0.0,0.0,0.0,0.0,0.0,0.0,0.0,0.0,0.0,0.0,0.0,0.0,0.0,0.0,0.0,0.0,0.0,0.0,0.0,0.0,0.0,0.0,0.0,0.0,0.0,0.0,0.0,0.0,0.0,0.0,0.0,0.0,0.0,0.0,0.0,0.0,0.0,0.0,0.0,0.0,0.0,0.0,0.0,0.0,0.0,0.0,0.0,0.0,0.0,0.0,0.0,0.0,0.0,0.0,0.0,0.0,0.0,0.0,0.0,0.0,0.0,0.0,0.0,0.0,0.0,0.0,0.0,0.0,0.0,0.0,0.4595,0.3042,0.1695,0.0671,0.0056,0.1167,0.1707,0.0,0.0,0.0,0.0,0.0,0.0,0.0,0.0,0.0,0.0,0.0,0.0,0.0,0.0,0.0,0.0,0.0,0.0,0.0,0.0,0.0,0.0,0.0,0.0,0.0,0.0,0.0,0.0,0.0,0.0,0.0,0.0,0.0,0.0,0.0,0.0,0.0,0.0,0.0,0.0,0.0,0.0,0.0,0.0,0.0,0.0,0.0,0.0,0.0,0.0,0.0,0.0,0.0,0.0,0.0,0.0,0.0,0.0,0.0,0.0,0.0,0.0,0.0,0.0,0.0,0.0,0.0,0.0,0.0,0.0,0.0,0.0,0.0,0.0,0.0,0.0,0.0,0.0,0.0,0.0,0.0,0.0,0.0,0.0,0.0,0.0,0.0,0.0,0.0,0.0,0.0,0.0,0.0,0.0,0.0,0.0,0.0,0.0,0.0,0.0,0.0,0.0,0.0,0.0,0.0,0.0,0.0,0.0,0.3149,0.1818,0.0768,0.0168,0.0,0.0612,0.0942,0.0,0.0,0.0,0.0,0.0,0.0,0.0,0.0,0.0,0.0,0.0,0.0,0.0,0.0,0.0,0.0,0.0,0.0,0.0,0.0,0.0,0.0,0.0,0.0,0.0,0.0,0.0,0.0,0.0,0.0,0.0,0.0,0.0,0.0,0.0,0.0,0.0,0.0,0.0,0.0,0.0,0.0,0.0,0.0,0.0,0.0,0.0,0.0,0.5962,0.0,0.0,0.0,0.0,0.0,0.0,0.0,0.0,0.0,0.0,0.0,0.0,0.0,0.0,0.0,0.0,0.0,0.0,0.0,0.0,0.0,0.0,0.0,0.0,0.0,0.0,0.0,0.0,0.0,0.0,0.0,0.0,0.0,0.0,0.0,0.0,0.0,0.0,0.0,0.0,0.0,0.0,0.0,0.0,0.0,0.0,0.0,0.0,0.0,0.0,0.0,0.0,0.0,0.0,0.0,0.0,0.0,0.0,0.0,0.2327,0.1273,0.0444,0.0,0.0,0.0308,0.0547,0.0,0.0,0.0,0.0,0.0,0.0,0.0,0.0,0.0,0.0,0.0,0.0,0.0,0.0,0.0,0.0,0.0,0.0,0.0,0.0,0.0,0.0,0.0,0.0,0.0,0.0,0.0,0.0,0.0,0.0,0.0,0.0,0.0,0.0,0.0,0.0,0.0,0.0,0.0,0.0,0.0,0.0,0.0,0.0,0.0,0.0,0.0,0.0,0.0,0.0,0.0,0.0,0.0,0.0,0.0,0.0,0.0,0.0,0.0,0.0,0.0,0.0,0.0,0.0,0.0,0.0,0.0,0.0,0.0,0.0,0.0,0.0,0.0,0.0,0.0,0.0,0.0,0.0,0.0,0.0,0.0,0.0,0.0,0.0,0.0,0.0,0.0,0.0,0.0,0.0,0.0,0.0,0.0,0.0,0.0,0.0,0.0,0.0,0.0,0.0,0.0,0.0,0.0,0.0,0.0,0.0,0.0,0.2978,0.1775,0.0947,0.0336,0.0,0.0,0.0112,0.0386,0.0799,0.0,0.0,0.0,0.0,0.0,0.0,0.0,0.0,0.0,0.0,0.0,0.0,0.0,0.0,0.0,0.0,0.0,0.0,0.0,0.0,0.0,0.0,0.0,0.0,0.0,0.0,0.0,0.0,0.0,0.0,0.0,0.0,0.0,0.0,0.0,0.0,0.0,0.0,0.2188,0.2794,0.0,0.0,0.0,0.0,0.0,0.0,0.0,0.0,0.5539,0.0,0.0,0.0,0.0,0.0,0.0,0.0,0.0,0.0,0.0,0.0,0.0,0.0,0.0,0.0,0.0,0.0,0.0,0.0,0.0,0.0,0.0,0.0,0.0,0.0,0.0,0.0,0.0,0.0,0.0,0.0,0.0,0.0,0.0,0.0,0.0,0.0,0.0,0.0,0.0,0.0,0.0,0.0,0.0,0.0,0.0,0.0,0.0,0.0,0.0,0.0,0.0,0.0,0.0,0.0,0.0,0.3156,0.2243,0.1288,0.0224,0.0056,0.0,0.0,0.014,0.0387,0.08,0.0,0.0,0.0,0.0,0.0,0.0,0.0,0.0,0.0,0.0,0.0,0.0,0.0,0.0,0.0,0.0,0.0,0.0,0.0,0.0,0.0,0.0,0.0,0.0,0.0,0.0,0.0,0.0,0.0,0.0,0.0,0.0,0.0,0.0,0.0,0.0,0.0,0.0,0.0,0.2974,0.3369,0.0,0.0,0.0,0.0,0.0,0.0,0.0,0.0,0.4328,0.0,0.0,0.0,0.0,0.0,0.0,0.0,0.0,0.0,0.0,0.0,0.0,0.0,0.0,0.0,0.0,0.0,0.0,0.0,0.0,0.0,0.0,0.0,0.0,0.0,0.0,0.0,0.0,0.0,0.0,0.0,0.0,0.0,0.0,0.0,0.0,0.0,0.0,0.0,0.0,0.0,0.0,0.0,0.0,0.0,0.0,0.0,0.0,0.0,0.0,0.0,0.0,0.0,0.0,0.0,0.2467,0.1613,0.0785,0.0,0.0,0.0,0.0,0.0112,0.041,0.0,0.0,0.0,0.0,0.0,0.0,0.0,0.0,0.0,0.0,0.0,0.0,0.0,0.0,0.0,0.0,0.0,0.0,0.0,0.0,0.0,0.0,0.0,0.0,0.0,0.0,0.0,0.0,0.0,0.0,0.0,0.0,0.0,0.0,0.0,0.0,0.0,0.0,0.0,0.0,0.2839,0.3109,0.288,0.0,0.0,0.0,0.0,0.0,0.0,0.3643,0.3255,0.0,0.0,0.0,0.0,0.0,0.0,0.0,0.0,0.0,0.0,0.0,0.0,0.0,0.0,0.0,0.0,0.0,0.0,0.0,0.0,0.0,0.0,0.0,0.0,0.0,0.0,0.0,0.0,0.0,0.0,0.0,0.0,0.0,0.0,0.0,0.0,0.0,0.0,0.0,0.0,0.0,0.0,0.0,0.0,0.0,0.0,0.0,0.0,0.0,0.0,0.0,0.0,0.0,0.0,0.0,0.203,0.1139,0.0469,0.0,0.0,0.0,0.0,0.0141,0.0461,0.0,0.0,0.0,0.0,0.0,0.0,0.0,0.0,0.0,0.0,0.0,0.0,0.0,0.0,0.0,0.0,0.0,0.0,0.0,0.0,0.0,0.0,0.0,0.0,0.0,0.0,0.0,0.0,0.0,0.0,0.0,0.0,0.0,0.0,0.0,0.0,0.0,0.0,0.0,0.0,0.0,0.2711,0.1989,0.2724,0.0,0.0,0.0,0.0,0.3058,0.2691,0.0,0.0,0.0,0.0,0.0,0.0,0.0,0.0,0.0,0.0,0.0,0.0,0.0,0.0,0.0,0.0,0.0,0.0,0.0,0.0,0.0,0.0,0.0,0.0,0.0,0.0,0.0,0.0,0.0,0.0,0.0,0.0,0.0,0.0,0.0,0.0,0.0,0.0,0.0,0.0,0.0,0.0,0.0,0.0,0.0,0.0,0.0,0.0,0.0,0.0,0.0,0.0,0.0,0.0,0.0,0.0,0.1689,0.1028,0.0467,0.0,0.0,0.0,0.0,0.0256,0.0543,0.0,0.0,0.0,0.0,0.0,0.0,0.0,0.0,0.0,0.0,0.0,0.0,0.0,0.0,0.0,0.0,0.0,0.0,0.0,0.0,0.0,0.0,0.0,0.0,0.0,0.0,0.0,0.0,0.0,0.0,0.0,0.0,0.0,0.0,0.0,0.0,0.0,0.0,0.0,0.0,0.0,0.2339,0.241,0.2323,0.226,0.0,0.0,0.239,0.2401,0.2113,0.0,0.0,0.0,0.0,0.0,0.0,0.0,0.0,0.0,0.0,0.0,0.0,0.0,0.0,0.0,0.0,0.0,0.0,0.0,0.0,0.0,0.0,0.0,0.0,0.0,0.0,0.0,0.0,0.0,0.0,0.0,0.0,0.0,0.0,0.0,0.0,0.0,0.0,0.0,0.0,0.0,0.0,0.0,0.0,0.0,0.0,0.0,0.0,0.0,0.0,0.0,0.0,0.0,0.0,0.0,0.2203,0.1393,0.0657,0.0208,0.0,0.0,0.0,0.0,0.0262,0.0582,0.0,0.0,0.0,0.0,0.0,0.0,0.0,0.0,0.0,0.0,0.0,0.0,0.0,0.0,0.0,0.0,0.0,0.0,0.0,0.0,0.0,0.0,0.0,0.0,0.0,0.0,0.0,0.0,0.0,0.0,0.0,0.0,0.0,0.0,0.0,0.0,0.0,0.0,0.0,0.0,0.0,0.0,0.1634,0.1719,0.0,0.0,0.0,0.1312,0.1518,0.0,0.0,0.0,0.0,0.0,0.0,0.0,0.0,0.0,0.0,0.0,0.0,0.0,0.0,0.0,0.0,0.0,0.0,0.0,0.0,0.0,0.0,0.0,0.0,0.0,0.0,0.0,0.0,0.0,0.0,0.0,0.0,0.0,0.0,0.0,0.0,0.0,0.0,0.0,0.0,0.0,0.0,0.0,0.0,0.0,0.0,0.0,0.0,0.0,0.0,0.0,0.0,0.0,0.0,0.0,0.0,0.0,0.1009,-0.0058,-0.0423,-0.0031,-0.0218,-0.0215,0.0,0.0237,0.0,0.0,0.0,0.0,0.0,0.0,0.0,0.0,0.0,0.0,0.0,0.0,0.0,0.0,0.0,0.0,0.0,0.0,0.0,0.0,0.0,0.0,0.0,0.0,0.0,0.0,0.0,0.0,0.0,0.0,0.0,0.0,0.0,0.0,0.0,0.0,0.0,0.0,0.0,0.0,0.0,0.0,0.1752,0.1001,0.1117,0.1031,0.0,0.0,0.0473,0.0773,0.0448,0.0135,0.0,0.0,0.0,0.0,0.0,0.0,0.0,0.0,0.0,0.0,0.0,0.0,0.0,0.0,0.0,0.0,0.0,0.0,0.0,0.0,0.0,0.0,0.0,0.0,0.0,0.0,0.0,0.0,0.0,0.0,0.0,0.0,0.0,0.0,0.0,0.0,0.0,0.0,0.0,0.0,0.0,0.0,0.0,0.0,0.0,0.0,0.0,0.0,0.0,0.0,0.0,0.0,0.0,0.0,0.0,0.0476,-0.1368,-0.1557,-0.0097,-0.0803,-0.0824,-0.0031,0.015,0.0457,0.0,0.0,0.0,0.0,0.0,0.0,0.0,0.0,0.0,0.0,0.0,0.0,0.0,0.0,0.0,0.0,0.0,0.0,0.0,0.0,0.0,0.0,0.0,0.0,0.0,0.0,0.0,0.0,0.0,0.0,0.0,0.0,0.0,0.0,0.0,0.0,0.0,0.0,0.0,0.0,0.0,0.1162,0.0932,0.0614,0.0362,0.0,0.0,0.0326,0.0327,0.0148,-0.0074,-0.0211,0.0,0.0,0.0,0.0,0.0,0.0,0.0,0.0,0.0,0.0,0.0,0.0,0.0,0.0,0.0,0.0,0.0,0.0,0.0,0.0,0.0,0.0,0.0,0.0,0.0,0.0,0.0,0.0,0.0,0.0,0.0,0.0,0.0,0.0,0.0,0.0,0.0,0.0,0.0,0.0,0.0,0.0,0.0,0.0,0.0,0.0,0.0,0.0,0.0,0.0,0.0,0.0,0.0,0.0054,-0.0504,-0.1822,-0.1951,-0.0857,-0.1123,-0.088,-0.0032,0.0123,0.0412,0.0,0.0,0.0,0.0,0.0,0.0,0.0,0.0,0.0,0.0,0.0,0.0,0.0,0.0,0.0,0.0,0.0,0.0,0.0,0.0,0.0,0.0,0.0,0.0,0.0,0.0,0.0,0.0,0.4208,0.3892,0.3589,0.0,0.0,0.0,0.0,0.0,0.0,0.0,0.0,0.0,0.0,0.0892,0.0597,0.0306,0.0,0.0,0.0117,0.0078,-0.012,-0.0157,-0.0308,-0.0642,-0.077,0.0,0.0,0.0,0.0,0.0,0.0,0.0,0.0,0.0,0.0,0.0,0.0,0.0,0.0,0.0,0.0,0.0,0.0,0.0,0.0,0.0,0.0,0.0,0.0,0.0,0.0,0.0,0.0,0.0,0.0,0.0,0.0,0.0,0.0,0.0,0.0,0.0,0.0,0.0,0.0,0.0,0.0,0.0,0.0,0.0,0.0,0.0,0.0,0.0,0.0,0.0,0.0,-0.0641,-0.1292,-0.255,-0.2593,-0.1306,-0.1573,-0.1159,-0.0065,0.0094,0.0331,0.0,0.0,0.0,0.0,0.0,0.0,0.0,0.0,0.0,0.0,0.0,0.0,0.0,0.0,0.0,0.0,0.0,0.0,0.0,0.0,0.0,0.0,0.0,0.0,0.0,0.0,0.0,0.0,0.3709,0.3433,0.3269,0.0,0.0,0.0,0.0,0.0,0.0,0.0,0.0,0.0,0.0,0.0667,0.0352,0.0121,-0.0041,-0.0082,-0.0123,-0.0207,-0.0462,-0.0533,-0.0599,-0.0787,0.0,0.0,0.0,0.0,0.0,0.0,0.0,0.0,0.0,0.0,0.0,0.0,0.0,0.0,0.0,0.0,0.0,0.0,0.0,0.0,0.0,0.0,0.0,0.0,0.0,0.0,0.0,0.0,0.0,0.0,0.4504,0.0,0.0,0.0,0.0,0.0,0.0,0.0,0.0,0.0,0.0,0.0,0.0,0.0,0.0,0.0,0.0,0.0,0.0,0.0,0.0,0.0,0.0,0.0,-0.1814,-0.3788,-0.3668,-0.1471,-0.2209,-0.1787,-0.0097,0.0,0.0122,0.0412,0.0,0.0,0.0,0.0,0.0,0.0,0.0,0.0,0.0,0.0,0.0,0.0,0.0,0.0,0.0,0.0,0.0,0.0,0.0,0.0,0.0,0.0,0.0,0.0,0.0,0.0,0.4646,0.3723,0.3068,0.0,0.0,0.0,0.0,0.0,0.0,0.0,0.0,0.0,0.0,0.0903,0.044,0.0292,0.0126,-0.0127,-0.0337,-0.0379,-0.0464,-0.0676,-0.0927,-0.0994,0.0,0.0,0.0,0.0,0.0,0.0,0.0,0.0,0.0,0.0,0.0,0.0,0.0,0.0,0.0,0.0,0.0,0.0,0.0,0.0,0.0,0.0,0.0,0.0,0.0,0.0,0.0,0.3278,0.3301,0.0,0.0,0.0,0.0,0.0,0.0,0.0,0.0,0.0,0.0,0.0,-0.009,-0.0153,0.0,0.0,0.0,0.0,0.0,0.0,0.0,0.0,0.0,0.0,0.0,0.0,-0.2327,-0.3093,-0.4364,-0.4408,-0.3139,-0.2843,-0.2134,-0.0894,-0.0323,0.0123,0.04,0.0,0.0,0.0,0.0,0.0,0.0,0.0,0.0,0.0,0.0,0.0,0.0,0.0,0.0,0.0,0.0,0.0,0.0,0.0,0.0,0.0,0.0,0.0,0.0,0.0,0.4411,0.0,0.0,0.0,0.0,0.0,0.0,0.0,0.0,0.0,0.0,0.0,0.1189,0.0663,0.0331,-0.0043,-0.0395,-0.0495,-0.0504,0.0,0.0,0.0,0.0,0.0,0.0,0.0,0.0,0.0,0.0,0.0,0.0,0.0,0.0,-0.5104,-0.4371,-0.4525,-0.4821,-0.5041,0.0,0.0,0.0,0.0,0.0,0.0,0.0,0.0,0.0,0.0,0.0,0.0,0.0,0.0,0.1215,0.0,0.1085,0.0,0.0,0.0,0.0,0.0,0.0,0.0,0.0,-0.1657,-0.1714,-0.1912,-0.2013,-0.1601,0.0,-0.1124,-0.0394,0.0,0.0,0.0,0.0,0.0,0.0,0.0,0.0,-0.2917,-0.3933,-0.4758,-0.4877,-0.4188,-0.3551,-0.2649,-0.1428,-0.0493,0.0093,0.0257,0.0559,0.0999,0.0,0.0,0.0,0.0,0.0,0.0,0.0,0.0,0.0,0.0,0.0,0.0,0.0,0.0,0.0,0.0,0.0,0.0,0.0,0.0,0.0,0.0,0.0,0.3442,0.0,0.0,0.0,0.0,0.0,0.0,0.0,0.0,0.0,0.1644,0.1162,0.0591,0.0041,-0.013,-0.0406,-0.1006,0.0,0.0,0.0,0.0,0.0,0.0,0.0,-0.3152,-0.3455,-0.3668,-0.3963,-0.4626,-0.5481,-0.6121,-0.6222,0.0,0.0,-0.5159,-0.5164,-0.5345,-0.5542,-0.5752,-0.6047,-0.6381,-0.6531,-0.6622,0.0,0.0,0.0,0.0,0.0,0.0,0.0,0.0,-0.1504,-0.1574,0.0,-0.1661,0.0,0.0,0.0,0.0,0.0,-0.3551,0.0,0.0,-0.3629,-0.333,-0.3365,-0.3268,-0.3117,-0.3006,-0.2764,-0.2477,-0.2081,-0.0205,0.0,0.0,0.0,0.0,0.0,0.0,-0.3362,-0.4384,-0.5073,-0.5133,-0.4549,-0.4318,-0.3352,-0.1641,-0.0598,-0.0063,0.0,0.0236,0.0487,0.0726,0.1573,0.0,0.0,0.0,0.0,0.0,0.0,0.0,0.0,0.0,0.0,0.0,0.0,0.0,0.0,0.0,0.0,0.0,0.0,0.0,0.0,0.2783,0.0,0.0,0.0,0.0,0.0,0.0,0.0,0.0,0.0,0.0,0.0711,0.0443,-0.0042,-0.0534,0.0,0.0,0.0,0.0,-0.1579,-0.2346,-0.2726,-0.306,-0.3489,-0.4123,-0.4485,-0.4355,0.0,0.0,-0.5694,-0.6247,-0.6638,-0.6743,-0.6961,-0.6815,-0.616,-0.6007,-0.6054,-0.6054,-0.6331,-0.6546,-0.6681,-0.6742,-0.679,-0.6226,0.0,0.0,0.0,0.0,-0.3088,-0.36,-0.4246,-0.4438,-0.4929,-0.567,-0.5414,0.0,0.0,0.0,0.0,0.0,0.0,-0.7347,-0.7715,-0.7609,-0.7702,-0.7976,-0.8077,-0.7304,-0.5771,-0.6089,-0.5152,-0.3109,-0.2858,-0.2034,-0.0666,0.0,0.0,0.0,0.0,-0.4158,-0.4819,-0.5373,-0.5612,-0.5434,-0.4748,-0.3514,-0.1652,-0.1331,-0.079,-0.0033,0.0062,0.0302,0.0682,0.0965,0.0,0.0,0.0,0.0,0.0,0.0,0.0,0.0,0.0,0.0,0.0,0.0,0.0,0.0,0.0,0.0,0.0,0.0,0.0,0.2169,0.1922,0.1535,0.0,0.0,0.0,0.0,0.0,0.0,0.0,0.0,0.0,-0.2377,-0.1746,-0.1521,0.0,0.0,-0.2364,-0.3065,-0.331,-0.3504,-0.3805,0.0,0.0,0.0,-0.5583,-0.5958,-0.6082,-0.6616,-0.7038,-0.7106,-0.7559,-0.796,-0.7958,-0.7929,-0.7851,-0.7629,-0.7137,-0.6833,-0.6813,-0.6964,-0.7166,-0.717,-0.7265,-0.7346,-0.9562,-0.6812,-0.6286,-0.6112,-0.62,-0.6496,-0.6985,-0.7589,-0.771,-0.8156,-0.876,-0.8515,-0.8491,-0.8576,-0.8694,0.0,0.0,0.0,-1.0074,-1.0354,-1.0139,-1.008,-1.018,-1.0304,-0.9634,-0.8253,-0.8583,-0.7787,-0.5986,-0.6179,-0.5469,-0.3857,0.0,0.0,-0.3414,-0.4154,-0.4763,-0.5325,-0.5696,-0.5885,-0.5983,-0.5071,-0.399,-0.2792,-0.2007,-0.1311,-0.0649,-0.0232,0.0129,0.0409,0.0607,0.1049,0.0,0.0,0.0,0.0,0.0,0.0,0.0,0.0,0.0,0.0,0.0,0.4984,0.0,0.0,0.0,0.0,0.2167,0.1313,0.0413,0.033,0.0,0.0,0.0,0.0,0.0,0.0,0.0,-0.308,-0.3637,-0.4185,-0.4682,-0.4131,-0.3722,-0.3761,-0.3654,-0.3883,-0.4621,0.0,-0.493,-0.5193,-0.5787,-0.621,-0.6315,-0.6728,-0.7203,-0.7636,-0.7915,-0.8096,-0.809,-0.8315,-0.8486,-0.8525,-0.8411,-0.8408,-0.8357,-0.797,-0.7557,-0.7402,-0.7482,-0.7543,-0.7543,-0.7944,-0.8348,-1.2343,-1.2105,-1.1035,-1.0439,-1.0246,-1.0405,-1.071,-1.1165,-1.1059,-1.1123,-1.1295,-1.1143,-1.1077,-1.1097,-1.1464,0.0,-1.1934,-1.1961,-1.2074,-1.2314,-1.1647,-1.1198,-1.0952,-1.0952,-1.0762,-1.0438,-1.0396,-1.022,-0.9932,-0.9566,-0.8872,-0.7612,-0.531,-0.4298,-0.4623,-0.4923,-0.5347,-0.583,-0.5962,-0.6118,-0.6293,-0.5354,-0.4704,-0.4489,-0.2693,-0.1688,-0.1579,-0.056,0.0,0.0,0.0419,0.0713,0.0882,0.0,0.0,0.0,0.0,0.0,0.0,0.0,0.0,0.0,0.0,0.0,0.0,0.0,0.0,0.0,0.0378,0.0,-0.1595,-0.1736,0.0,0.0,0.0,-0.2908,-0.3435,-0.3998,-0.4435,-0.4862,0.0,0.0,-0.6292,0.0,-0.6282,-0.5667,-0.524,-0.5266,-0.6099,-0.6008,-0.6061,-0.6568,-0.6887,-0.7152,-0.7387,-0.7731,-0.8112,-0.8666,-0.8818,-0.8676,-0.8669,-0.8575,-0.8533,-0.854,-0.852,-0.852,-0.852,-0.8499,-0.8443,-0.8153,-0.7973,-0.7868,-0.7917,-0.8733,-0.9582,-1.8479,-1.839,-1.7522,-1.4895,-1.1212,-1.1339,-1.1868,-1.2675,-1.2745,-1.3231,-1.4046,-1.3722,-1.3523,-1.3345,-1.3647,-1.3801,-1.3854,-1.4112,-1.4268,-1.4291,-1.4135,-1.3989,-1.397,-1.3926,-1.3447,-1.2513,-1.2186,-1.1534,-1.0605,-1.0192,-0.9687,-0.9037,-0.8414,-0.7227,-0.5575,-0.5814,-0.606,-0.6172,-0.6366,-0.6412,-0.63,-0.6066,-0.5522,-0.4686,-0.3409,-0.2391,-0.162,-0.0556,0.0,0.0,0.0098,0.0351,0.075,0.1159,0.0,0.0,0.0,0.0,0.0,0.0,0.0,0.0,0.0,0.2961,0.2226,0.0,0.0662,0.0,-0.1207,-0.227,-0.3027,-0.3154,0.0,0.0,-0.4159,-0.4497,-0.5194,-0.5777,-0.6219,-0.6553,-0.7021,-0.7394,-0.7775,-0.7837,-0.7898,-0.7991,-0.7079,-0.659,-0.7076,-0.7308,-0.7558,-0.7913,-0.8211,-0.8449,-0.8436,-0.8585,-0.8728,-0.8878,-0.8851,-0.8831,-0.8831,-0.8859,-0.8832,-0.8777,-0.8777,-0.8832,-0.8818,-0.8832,-0.923,-0.9842,-0.922,-0.8323,-0.8374,-0.9493,-1.039,-2.0666,-2.0633,-2.0235,-1.8349,-1.5605,-1.5325,-1.5483,-1.6015,-1.6077,-1.6444,-1.6936,-1.6235,-1.5473,-1.474,-1.4977,-1.503,-1.4937,-1.5217,-1.5351,-1.5351,-1.5351,-1.5284,-1.5209,-1.5164,-1.4767,-1.3993,-1.3781,-1.3311,-1.2706,-1.2447,-1.1866,-1.0995,-1.0984,-0.9987,-0.8046,-0.7383,-0.7076,-0.6954,-0.6878,-0.669,-0.6491,-0.6429,-0.6035,-0.5353,-0.4175,-0.3194,-0.2436,-0.1274,-0.0621,-0.0506,-0.0464,-0.0392,-0.0097,0.0158,0.0561,0.0,0.0,0.0,0.0,0.0,0.0,0.0,0.0,0.0,0.0,0.0,-0.116,-0.2001,-0.2933,-0.3714,-0.4295,-0.4553,-0.495,-0.5529,-0.5664,-0.5996,-0.6786,-0.7167,-0.7515,-0.775,-0.8053,-0.8315,-0.8474,-0.8499,-0.8626,-0.8871,-0.8247,-0.7852,-0.8083,-0.8266,-0.8401,-0.8644,-0.8823,-0.894,-0.894,-0.894,-0.894,-0.894,-0.894,-0.894,-0.894,-0.894,-0.894,-0.894,-0.894,-0.894,-0.894,-0.9478,-1.0147,-1.0712,-1.0819,-1.0579,-1.0481,-1.1517,-1.2444,-2.1357,-2.1357,-2.1258,-2.1289,-2.119,-2.0449,-1.9933,-1.9563,-1.9513,-1.9497,-1.9405,-1.8241,-1.6933,-1.5749,-1.5759,-1.5698,-1.5471,-1.5712,-1.5832,-1.5832,-1.5832,-1.5651,-1.5458,-1.5458,-1.5311,-1.5129,-1.5075,-1.5062,-1.5062,-1.5022,-1.4327,-1.3045,-1.2989,-1.2316,-1.0974,-0.9442,-0.8379,-0.7777,-0.7315,-0.6943,-0.6695,-0.6566,-0.6411,-0.6151,-0.487,-0.3942,-0.3475,-0.2296,-0.1535,-0.1295,-0.1292,-0.1274,-0.1303,-0.1008,-0.0804,0.0,-0.0469,0.0,0.0,0.0,0.0,0.0,0.0,0.0,0.0,-0.2322,-0.3252,-0.417,-0.4656,-0.5141,-0.5585,-0.5923,-0.6349,-0.6821,-0.7086,-0.7414,-0.7985,-0.8248,-0.8384,-0.8526,-0.8662,-0.8737,-0.875,-0.8859,-0.8878,-0.8878,-0.8871,-0.8803,-0.8878,-0.8871,-0.8871,-0.894,-0.894,-0.894,-0.894,-0.894,-0.894,-0.894,-0.894,-0.894,-0.894,-0.894,-0.894,-0.894,-0.894,-0.894,-0.894,-1.0076,-1.1109,-1.142,-1.2532,-1.323,-1.2924,-1.371,-1.4844,-2.4307,-2.4222,-2.3879,-2.3746,-2.3681,-2.3529,-2.2142,-1.9939,-1.9612,-1.9497,-1.9405,-1.8241,-1.7561,-1.7191,-1.6217,-1.5758,-1.5704,-1.5758,-1.5832,-1.5832,-1.5832,-1.5805,-1.5704,-1.5704,-1.5725,-1.5658,-1.5431,-1.5311,-1.5311,-1.5129,-1.4655,-1.4052,-1.4007,-1.3476,-1.2429,0.0,0.0,0.0,-0.7109,-0.6743,-0.6702,-0.6675,-0.6518,-0.6204,-0.5106,0.0,-0.3938,-0.2905,-0.2283,-0.2225,-0.2259,0.0,0.0,0.0,0.0,0.0,0.0,0.0,0.0,0.0,0.0,0.0,-0.3886,-0.3787,-0.325,-0.4142,-0.5089,-0.5859,-0.6174,-0.6569,-0.7099,-0.7342,-0.7601,-0.7965,-0.8026,-0.8211,-0.8547,-0.8608,-0.8689,-0.8777,-0.8879,-0.8838,-0.8838,-0.8865,-0.8885,-0.8892,-0.894,-0.894,-0.8892,-0.8892,-0.894,-0.894,-0.8898,-0.8947,-0.894,-0.8947,-0.8954,-0.894,-0.894,-0.894,-0.894,-0.894,-0.894,-0.894,-0.894,-0.894,-0.8989,-1.0076,-1.1647,-1.267,-1.4019,-1.4641,-1.3528,-1.4305,-1.5211,-2.5391,0.0,-2.5156,-2.5011,0.0,-2.4844,-2.3937,-2.255,-2.2105,-2.1468,-2.0635,-1.9212,-1.8272,-1.7638,-1.6386,-1.5832,-1.5832,-1.5832,-1.5832,-1.5832,-1.5832,-1.5832,-1.5832,-1.5832,-1.5832,-1.5818,-1.5638,-1.5605,-1.5605,-1.5458,-1.5232,-1.4845,-1.4845,-1.4521,-1.3849,-1.2563,-1.076,-0.8446,-0.756,-0.7054,-0.6912,-0.6851,-0.6692,-0.6363,0.0,0.0,0.0,0.0,0.0,0.0,0.0,0.0,0.0,0.0,0.0,-0.3622,-0.3696,-0.3905,-0.4356,-0.4619,-0.4983,-0.5426,-0.5981,-0.5935,-0.512,-0.5889,-0.6592,-0.6988,-0.7308,-0.7605,-0.7923,-0.8058,-0.8235,-0.8459,-0.8486,-0.8581,-0.8777,-0.877,-0.8852,-0.892,-0.894,-0.894,-0.894,-0.894,-0.8974,-0.9035,-0.9042,-0.9069,-0.9123,-0.9028,-0.8905,-0.9035,-0.9117,-0.9157,-0.915,-0.9083,-0.9042,-0.9042,-0.8932,-0.8892,-0.894,-0.894,-0.9099,-0.9754,-0.9966,-1.0186,-1.1055,-1.2236,-1.348,-1.4234,-1.5476,-1.6274,-1.5583,-1.6009,-1.6461,-2.581,-2.5791,-2.5713,-2.5674,-2.5654,-2.5352,-2.5176,-2.5156,0.0,0.0,0.0,-2.075,-1.9323,-1.8054,-1.6786,-1.6062,-1.5832,-1.5832,-1.5832,-1.5832,-1.5832,-1.5832,-1.5832,-1.5832,-1.5832,-1.5832,-1.5832,-1.5832,-1.5832,-1.5832,-1.5712,-1.5498,-1.5471,-1.5337,-1.4921,-1.278,-1.0965,-0.957,-0.8211,-0.7354,-0.7092,-0.6984,-0.6824,-0.6576,-0.6226,-0.5796,-0.5308,-0.5013,-0.4763,-0.4556,-0.4551,-0.4582,-0.4698,-0.4757,-0.4853,-0.5027,-0.5167,-0.5485,-0.5958,-0.6248,-0.6612,-0.7065,-0.7489,-0.7456,-0.682,-0.7369,-0.7733,-0.7753,-0.8119,-0.835,-0.835,-0.8479,-0.8615,-0.8737,-0.875,-0.8743,-0.8865,-0.894,-0.8878,-0.8885,-0.8967,-0.8981,-0.8988,-0.9008,-0.9055,-0.9164,-0.9248,-0.9289,-0.932,-0.9178,-0.9083,-0.9184,-0.9279,-0.9367,-0.9361,-0.9279,-0.9255,-0.9191,-0.9103,-0.9071,-0.9259,-0.9307,-0.9894,-1.1273,-1.1483,-1.1973,-1.3048,-1.4234,-1.5358,-1.5411,-1.6552,-1.7582,-1.7582,-1.7582,-1.7529,-2.6289,-2.6269,-2.5849,-2.5674,-2.5674,-2.5615,-2.5596,-2.5586,-2.4766,-2.4256,-2.3994,-2.2758,-2.1292,-1.9709,-1.8516,-1.7146,-1.5832,-1.5832,-1.5832,-1.5832,-1.5832,-1.5832,-1.5832,-1.5832,-1.5832,-1.5832,-1.5832,-1.5832,-1.5832,-1.5832,-1.5805,-1.5765,-1.5718,-1.5618,-1.5245,-1.3741,-1.2303,-1.1,-0.8617,-0.7316,-0.7098,-0.7078,-0.6917,-0.6625,-0.6544,-0.6327,-0.5982,-0.5917,-0.5858,-0.584,-0.584,-0.5878,-0.5952,-0.6047,-0.6204,-0.6394,-0.6547,-0.6781,-0.7128,-0.722,-0.7409,-0.78,-0.8065,-0.8099,-0.7838,-0.8022,-0.8228,-0.8343,-0.8526,-0.8648,-0.8662,-0.8777,-0.8866,-0.8838,-0.8851,-0.8865,-0.894,-0.8947,-0.8892,-0.8947,-0.9049,-0.918,-0.9137,-0.9225,-0.93,-0.934,-0.9367,-0.9367,-0.9388,-0.9347,-0.9327,-0.9347,-0.9367,-0.9381,-0.9408,-0.9374,-0.9347,-0.9347,-0.932,-0.9581,-1.0482,-1.0739,-1.1287,-1.2708,-1.2916,-1.3166,-1.3491,-1.4449,-1.5358,-1.5636,-1.6711,-1.7582,-1.7582,-1.7582,-1.7582,-2.6719,-2.668,-2.6269,-2.6094,-2.6074,-2.5791,-2.5674,-2.5654,-2.5265,-2.5,-2.4652,-2.3232,-2.1789,-2.0305,-1.8907,-1.7481,-1.6059,-1.5899,-1.5832,-1.5832,-1.5832,-1.5832,-1.5832,-1.5832,-1.5832,-1.5832,-1.5832,-1.5832,-1.5832,-1.5832,-1.5832,-1.5832,-1.5832,-1.5718,-1.5538,-1.4259,-1.3228,-1.2535,-0.991,-0.8184,-0.7387,-0.7387,-0.7314,-0.715,-0.7077,-0.6959,-0.6806,-0.6721,-0.6638,-0.6638,-0.6638,-0.6688,-0.6837,-0.6897,-0.7014,-0.7183,-0.7251,-0.7375,-0.7712,-0.7882,-0.8058,-0.8269,-0.8425,-0.8479,-0.8411,-0.8465,-0.8533,-0.8601,-0.8743,-0.8832,-0.8832,-0.8844,-0.894,-0.894,-0.894,-0.894,-0.8892,-0.9015,-0.9055,-0.9069,-0.9241,-0.9337,-0.933,-0.934,-0.9422,-0.9483,-0.9564,-0.9612,-0.9618,-0.9618,-0.9591,-0.953,-0.9571,-0.9618,-0.9612,-0.9551,-0.9517,-0.9503,-0.9435,-0.965,-1.0303,-1.0915,-1.2066,-1.3232,-1.4048,-1.4916,-1.5416,-1.6115,-1.6499,-1.6658,-1.7041,-1.7582,-1.7582,-1.7582,-1.7582,-2.7168,-2.7129,-2.6699,-2.6484,-2.6367,-2.6035,-2.5791,-2.5693,-2.5674,-2.5547,-2.5052,-2.3547,-2.204,-2.0652,-1.9171,-1.7683,-1.6392,-1.6032,-1.5838,-1.5832,-1.5832,-1.5832,-1.5832,-1.5832,-1.5832,-1.5832,-1.5832,-1.5832,-1.5832,-1.5832,-1.5832,-1.5832,-1.5832,-1.5832,-1.5784,-1.4806,-1.4171,-1.3637,-1.1599,-0.9839,-0.852,-0.8481,-0.8473,-0.8466,-0.8075,-0.8002,-0.8269,-0.7614,-0.7334,-0.7588,-0.7372,-0.7299,-0.7414,-0.7455,-0.7522,-0.7638,-0.7712,-0.7862,-0.8119,-0.8384,-0.8533,-0.8533,-0.8676,-0.8764,-0.8757,-0.8764,-0.8764,-0.8777,-0.8866,-0.8878,-0.8933,-0.8933,-0.894,-0.894,-0.8919,-0.8994,-0.9001,-0.9117,-0.9262,-0.9275,-0.934,-0.9435,-0.9435,-0.9462,-0.953,-0.9646,-0.9754,-0.9815,-0.9822,-0.9822,-0.9768,-0.972,-0.9747,-0.9795,-0.9815,-0.9734,-0.9666,-0.9659,-0.9919,-1.0361,-1.0891,-1.1949,-1.3297,-1.4632,-1.5673,-1.6611,-1.7568,-1.7676,-1.7609,-1.7556,-1.7596,-1.7582,-1.7582,-1.7582,-1.7542,-2.765,-2.7539,-2.7148,-2.6738,-2.6406,-2.6348,-2.6113,-2.5732,-2.5693,-2.5674,-2.5499,-2.4202,-2.2652,-2.1081,-1.9729,-1.8137,-1.641,-1.6246,-1.6086,-1.5811,-1.5832,-1.5832,-1.5832,-1.5832,-1.5832,-1.5832,-1.5832,-1.5832,-1.5832,-1.5832,-1.5832,-1.5832,-1.5832,-1.5832,-1.5784,-1.5629,-1.5032,-1.3945,-1.3622,-1.272,-1.1247,-1.1135,-1.1135,-1.1135,-0.9919,-0.991,-1.0886,-0.8807,-0.8102,-0.9061,-0.8195,-0.761,-0.7644,-0.7746,-0.7828,-0.7856,-0.8052,-0.8333,-0.8431,-0.8594,-0.8689,-0.8703,-0.8825,-0.8851,-0.8858,-0.8858,-0.8858,-0.8858,-0.8871,-0.894,-0.894,-0.8885,-0.8898,-0.8967,-0.9062,-0.9193,-0.9207,-0.9266,-0.9361,-0.9361,-0.949,-0.9591,-0.9598,-0.968,-0.9761,-0.9768,-0.9815,-0.9849,-0.9849,-0.9863,-0.9863,-0.9822,-0.9829,-0.989,-0.9822,-0.9815,-0.9963,-1.0023,-1.1034,-1.2065,-1.3178,-1.4619,-1.64,-1.6402,-1.7759,-1.8121,-1.8165,-1.821,-1.7955,-1.7969,-1.7822,-1.7595,-1.7595,-1.7582,-1.7568,-2.8047,-2.7988,-2.7578,-2.7148,-2.6797,-2.6758,-2.6523,-2.6133,-2.6113,-2.5977,-2.5547,-2.4295,-2.288,-2.1462,-2.0716,-1.907,-1.6867,-1.6482,-1.6219,-1.6072,-1.5912,-1.5832,-1.5832,-1.5832,-1.5832,-1.5832,-1.5832,-1.5832,-1.5832,-1.5832,-1.5832,-1.5832,-1.5832,-1.5832,-1.5832,-1.5832,-1.5534,-1.5045,-1.5045,-1.4694,-1.3931,-1.252,-1.1715,-1.1667,-1.1191,-1.1144,-1.1572,-1.0676,-1.0389,-1.0858,-1.0389,-1.0211,-1.0414,-1.0493,-1.0194,-0.9551,-0.8865,-0.8554,-0.8615,-0.8757,-0.8845,-0.8845,-0.8844,-0.894,-0.894,-0.894,-0.894,-0.894,-0.894,-0.894,-0.8892,-0.9015,-0.9062,-0.9083,-0.9198,-0.9286,-0.935,-0.9422,-0.9517,-0.9523,-0.9646,-0.9734,-0.9741,-0.9781,-0.9815,-0.9836,-0.989,-1.0012,-0.9958,-1.0032,-1.0086,-1.0218,-1.0889,-1.0979,-1.0304,-1.0717,-1.108,-1.1503,-1.2577,-1.3946,-1.4429,-1.5748,-1.6946,-1.7365,-1.8155,-1.8592,-1.847,-1.8435,-1.8303,-1.8237,-1.8009,-1.7809,-1.7622,-1.7582,-1.7568,-2.8301,-2.8242,-2.7949,-2.7578,-2.7207,-2.7187,-2.6953,-2.6562,-2.6445,-2.6211,-2.582,-2.4714,-2.3484,-2.2214,-2.1212,-1.9613,-1.7803,-1.69,-1.6509,-1.6366,-1.6086,-1.5904,-1.5939,-1.5858,-1.5832,-1.5832,-1.5832,-1.5832,-1.5832,-1.5832,-1.5832,-1.5832,-1.5832,-1.5832,-1.5832,-1.5832,-1.5832,-1.5784,-1.5832,-1.5832,-1.5534,-1.3932,-1.2969,-1.2958,-1.2619,-1.2619,-1.292,-1.228,-1.2096,-1.2436,-1.2145,-1.2051,-1.2363,-1.2384,-1.2041,-1.1374,-1.0428,-0.9739,-0.9406,-0.9468,-0.932,-0.8989,-0.894,-0.894,-0.894,-0.894,-0.894,-0.8885,-0.8974,-0.9001,-0.9008,-0.9089,-0.9221,-0.9268,-0.9412,-0.9442,-0.9456,-0.9578,-0.9666,-0.968,-0.9747,-0.9822,-0.9829,-0.9856,-0.9897,-0.9849,-1.0445,-1.0787,-1.0919,-1.1384,-1.183,-1.1783,-1.2892,-1.2665,-1.1202,-1.1971,-1.2785,-1.3292,-1.4251,-1.5252,-1.537,-1.6668,-1.7664,-1.8339,-1.8753,-1.8897,-1.8901,-1.8798,-1.8557,-1.8464,-1.8303,-1.8103,-1.7956,-1.7809,-1.7729,-2.8301,-2.8281,-2.8281,-2.8008,-2.7689,-2.7689,-2.7402,-2.6953,-2.6602,-2.6387,-2.6289,-2.579,-2.4873,-2.3484,-2.1103,-1.9535,-1.8926,-1.7803,-1.7029,-1.6723,-1.6393,-1.6308,-1.6233,-1.5965,-1.5784,-1.5858,-1.5784,-1.5832,-1.5832,-1.5832,-1.5832,-1.5832,-1.5832,-1.5832,-1.5832,-1.5832,-1.5832,-1.5832,-1.5832,-1.5832,-1.5784,-1.5629,-1.5439,-1.5322,-1.4424,-1.434,-1.5131,-1.321,-1.2533,-1.3788,-1.2737,-1.2209,-1.2463,-1.2504,-1.2608,-1.285,-1.2763,-1.2172,-1.1159,-1.0992,-1.046,-0.9265,-0.9099,-0.894,-0.894,-0.894,-0.8892,-0.8885,-0.9174,-0.9349,-0.9327,-0.9305,-0.9303,-0.9419,-0.9569,-0.9703,-0.9717,-1.0127,-0.9855,-1.0044,-1.024,-1.0329,-1.0018,-0.9889,-1.0328,-1.0736,-1.1713,-1.2758,-1.2955,-1.4092,-1.4755,-1.488,-1.5067,-1.4831,-1.3358,-1.3939,-1.475,-1.5185,-1.5921,-1.6938,-1.7455,-1.804,-1.868,-1.9158,-1.9234,-1.9265,-1.9265,-1.9105,-1.8824,-1.8664,-1.8571,-1.841,-1.825,-1.8089,-1.7982,-2.8301,-2.8301,-2.8301,-2.8203,-2.8086,-2.8066,-2.7812,-2.7441,-2.7285,-2.6894,-2.6426,-2.6211,-2.5701,-2.4873,-2.3085,-2.1188,-1.9499,-1.8796,-1.7941,-1.7056,-1.6687,-1.6553,-1.6513,-1.6246,-1.6112,-1.6086,-1.5878,-1.5832,-1.5832,-1.5832,-1.5832,-1.5832,-1.5832,-1.5832,-1.5832,-1.5832,-1.5832,-1.5832,-1.5832,-1.5832,-1.5832,-1.5832,-1.5912,-1.6099,-1.5712,-1.5755,-1.633,-1.5267,-1.4998,-1.5665,-1.5071,-1.4924,-1.534,-1.4763,-1.4391,-1.4442,-1.3677,-1.3012,-1.2606,-1.2507,-1.1864,-1.0507,-1.0296,-0.9864,-0.9099,-0.8885,-0.8974,-0.9286,-1.0171,-1.0673,-1.0713,-1.0077,-0.9462,-0.9648,-1.0599,-1.1287,-1.1475,-1.2175,-1.2868,-1.2886,-1.2966,-1.2751,-1.2061,-1.267,-1.3465,-1.3616,-1.4201,-1.4629,-1.4794,-1.5379,-1.5905,-1.6,-1.67,-1.7218,-1.67,-1.6542,-1.6914,-1.7222,-1.7793,-1.8448,-1.9037,-1.8855,-1.9283,-1.9283,-1.9399,-1.9417,-1.9377,-1.935,-1.9025,-1.8878,-1.8771,-1.8704,-1.8531,-1.8424,-1.8263,-2.8301,-2.8301,-2.8301,-2.8301,-2.8301,-2.8301,-2.8125,-2.7851,-2.7767,-2.7376,-2.6836,-2.6523,-2.6211,-2.579,-2.4813,-2.3135,-2.0931,-1.9847,-1.8855,-1.797,-1.7235,-1.6847,-1.6794,-1.6553,-1.6366,-1.6233,-1.5965,-1.5832,-1.5832,-1.5832,-1.5832,-1.5832,-1.5832,-1.5832,-1.5832,-1.5832,-1.5832,-1.5832,-1.5832,-1.5832,-1.5832,-1.5832,-1.6019,-1.6353,-1.6406,-1.65,-1.67,-1.6513,-1.65,-1.6633,-1.6433,-1.65,-1.6866,-1.6379,-1.6029,-1.5997,-1.5251,-1.4449,-1.4019,-1.3965,-1.3372,-1.1973,-1.181,-1.1319,-1.0406,-1.0398,-1.054,-1.0915,-1.1685,-1.2536,-1.2512,-1.1871,-1.1209,-1.1343,-1.226,-1.2928,-1.3057,-1.4002,-1.462,-1.4721,-1.4831,-1.4534,-1.3957,-1.4801,-1.5275,-1.5555,-1.6055,-1.6573,-1.6605,-1.7224,-1.7602,-1.7667,-1.8605,-1.9167,-1.9015,-1.8924,-1.8803,-1.9037,-1.8836,-1.9567,-1.988,-1.9666,-1.9519,-1.9551,-1.9497,-1.9457,-1.943,-1.943,-1.9252,-1.9092,-1.9065,-1.9025,-1.8865,-1.8718,-1.8571,-2.8301,-2.8301,-2.8301,-2.8301,-2.8301,-2.8301,-2.8281,-2.8184,-2.7851,-2.7708,-2.7474,-2.6797,-2.6465,-2.6289,-2.5761,-2.4843,-2.3335,-2.1103,-1.9774,-1.9243,-1.7881,-1.7206,-1.7179,-1.6847,-1.6567,-1.6313,-1.6005,-1.5811,-1.5872,-1.5824,-1.5872,-1.5832,-1.5832,-1.5832,-1.5832,-1.5832,-1.5832,-1.5832,-1.5832,-1.5832,-1.5832,-1.5832,-1.6086,-1.658,-1.6633,-1.6647,-1.67,-1.6687,-1.67,-1.6727,-1.646,-1.6433,-1.6794,-1.6972,-1.725,-1.7384,-1.7424,-1.6764,-1.5636,-1.5423,-1.4824,-1.3599,-1.3329,-1.3197,-1.29,-1.3092,-1.3285,-1.3328,-1.3925,-1.4371,-1.4422,-1.4575,-1.4391,-1.454,-1.4421,-1.4599,-1.4719,-1.4932,-1.5187,-1.5607,-1.5866,-1.5639,-1.5556,-1.6076,-1.6455,-1.6698,-1.7539,-1.8517,-1.8569,-1.9522,-2.0652,-2.0779,-2.0513,-2.0386,-2.0779,-2.1006,-2.0833,-2.0597,-2.0196,-2.0241,-2.016,-2.0,-1.984,-1.9786,-1.9586,-1.9519,-1.943,-1.943,-1.943,-1.9265,-1.935,-1.9292,-1.9158,-1.8998,-1.8918,-2.8301,-2.8301,-2.8301,-2.8301,-2.8301,-2.8301,-2.8301,-2.8281,-2.8144,-2.793,-2.7656,-2.7434,-2.7004,-2.6465,-2.623,-2.5769,-2.4941,-2.3185,-2.1456,-1.9664,-1.814,-1.7487,-1.7434,-1.7192,-1.686,-1.6607,-1.6486,-1.6326,-1.6166,-1.6139,-1.6046,-1.5872,-1.5832,-1.5832,-1.5832,-1.5832,-1.5832,-1.5832,-1.5832,-1.5832,-1.5832,-1.5832,-1.6032,-1.6353,-1.6406,-1.6486,-1.6687,-1.67,-1.6901,-1.7248,-1.6834,-1.6794,-1.7208,-1.7395,-1.7541,-1.7569,-1.7582,-1.7477,-1.7041,-1.6829,-1.6221,-1.5125,-1.4982,-1.4527,-1.3792,-1.3912,-1.4107,-1.4355,-1.5232,-1.6045,-1.6343,-1.7277,-1.6938,-1.4847,-1.5548,-1.6346,-1.6646,-1.766,-1.7997,-1.7491,-1.8273,-1.8567,-1.798,-1.8282,-1.9057,-1.9132,-1.9814,-2.0132,-2.0322,-2.0589,-2.1046,-2.1109,-2.1109,-2.1109,-2.1109,-2.1109,-2.1015,-2.0909,-2.0695,-2.0548,-2.0468,-2.0321,-2.016,-1.9987,-1.98,-1.9639,-1.9551,-1.9497,-1.9537,-1.947,-1.9444,-1.9372,-1.9359,-1.9265,-1.9132,-2.8301,-2.8301,-2.8301,-2.8301,-2.8301,-2.8301,-2.8301,-2.8301,-2.8301,-2.8144,-2.791,-2.7767,-2.7434,-2.6875,-2.6543,-2.625,-2.578,-2.4387,-2.2767,-2.0998,-1.9109,-1.8342,-1.821,-1.7495,-1.7125,-1.6874,-1.6754,-1.6607,-1.6433,-1.6326,-1.6179,-1.6019,-1.5885,-1.5832,-1.5832,-1.5832,-1.5832,-1.5832,-1.5832,-1.5832,-1.5832,-1.5832,-1.5965,-1.6233,-1.6273,-1.6469,-1.6673,-1.67,-1.6927,-1.7275,-1.7048,-1.7074,-1.7382,-1.746,-1.7514,-1.7569,-1.7582,-1.7582,-1.7582,-1.7529,-1.7318,-1.6555,-1.6596,-1.6405,-1.5687,-1.5738,-1.5966,-1.6264,-1.7095,-1.7832,-1.8127,-1.8861,-1.8547,-1.7016,-1.7482,-1.8185,-1.8676,-1.9659,-2.0012,-1.9498,-2.0037,-2.0177,-1.9978,-2.0118,-2.1096,-2.1109,-2.1109,-2.1109,-2.1109,-2.1032,-2.1122,-2.1122,-2.1109,-2.1109,-2.1109,-2.1109,-2.1109,-2.1042,-2.0949,-2.0869,-2.0815,-2.0575,-2.0388,-2.0201,-2.0,-1.9973,-1.984,-1.98,-1.98,-1.9666,-1.9519,-1.9479,-1.9466,-1.9444,-1.9265,-2.8301,-2.8301,-2.8301,-2.8301,-2.8301,-2.8301,-2.8301,-2.8301,-2.8301,-2.8281,-2.8184,-2.791,-2.7748,-2.7513,-2.6875,-2.6523,-2.6109,-2.4871,-2.4003,-2.3053,-2.1253,-1.9886,-1.9273,-1.7936,-1.7259,-1.7192,-1.6927,-1.6881,-1.7064,-1.6859,-1.6459,-1.6565,-1.6395,-1.5919,-1.596,-1.5858,-1.5872,-1.5832,-1.5832,-1.5832,-1.5832,-1.5832,-1.5965,-1.6259,-1.6286,-1.6406,-1.666,-1.6754,-1.6887,-1.7166,-1.7219,-1.7246,-1.7246,-1.7233,-1.7407,-1.7569,-1.7582,-1.7582,-1.7582,-1.7649,-1.7689,-1.7741,-1.7818,-1.8183,-1.8102,-1.8194,-1.8376,-1.8485,-1.8937,-1.9376,-1.9529,-1.9754,-1.9754,-2.01,-1.9653,-1.9892,-2.05,-2.0668,-2.0588,-2.085,-2.1096,-2.1032,-2.0803,-2.1032,-2.1059,-2.1162,-2.1176,-2.1203,-2.1269,-2.1309,-2.1216,-2.1229,-2.1323,-2.1349,-2.143,-2.143,-2.143,-2.1416,-2.1296,-2.1203,-2.1069,-2.0815,-2.0601,-2.0414,-2.0294,-2.0254,-2.0174,-2.008,-2.0,-1.9893,-1.9773,-1.9666,-1.9613,-1.9599,-1.9573,-2.8301,-2.8301,-2.8301,-2.8301,-2.8301,-2.8301,-2.8301,-2.8301,-2.8301,-2.8301,-2.8262,-2.8184,-2.7949,-2.7656,-2.7493,-2.7063,-2.6404,-2.5902,-2.5454,-2.4941,-2.3484,-2.1405,-1.9679,-1.822,-1.7553,-1.7539,-1.7536,-1.7801,-1.8477,-1.8261,-1.8151,-1.8096,-1.7833,-1.7238,-1.6386,-1.6249,-1.6032,-1.5858,-1.5784,-1.5798,-1.5858,-1.5858,-1.5979,-1.6246,-1.6286,-1.6433,-1.67,-1.6914,-1.7099,-1.7206,-1.742,-1.7475,-1.7448,-1.7501,-1.7541,-1.7555,-1.7582,-1.7595,-1.7635,-1.7796,-1.7902,-1.8009,-1.8424,-1.8718,-1.8798,-1.9078,-1.9225,-1.9305,-1.9519,-1.972,-1.9826,-2.0013,-2.0254,-2.0494,-2.0468,-2.0494,-2.0668,-2.0869,-2.1029,-2.1096,-2.1096,-2.1109,-2.1136,-2.1149,-2.1216,-2.1376,-2.1507,-2.1496,-2.1577,-2.1657,-2.1603,-2.171,-2.179,-2.1777,-2.179,-2.179,-2.179,-2.1817,-2.171,-2.1523,-2.1309,-2.1015,-2.0828,-2.0641,-2.0588,-2.0548,-2.0361,-2.0201,-2.0134,-2.016,-2.0094,-2.004,-2.004,-2.004,-2.0,-2.8301,-2.8301,-2.8301,-2.8301,-2.8301,-2.8301,-2.8301,-2.8301,-2.8301,-2.8301,-2.8301,-2.8301,-2.8164,-2.793,-2.7787,-2.7454,-2.6934,-2.6543,-2.625,-2.5769,-2.4337,-2.2484,-2.0743,-1.9612,-1.9005,-1.8447,-1.8461,-1.84,-1.8437,-1.8425,-1.8542,-1.8766,-1.8765,-1.8209,-1.7477,-1.7267,-1.6905,-1.633,-1.6192,-1.6192,-1.6206,-1.6192,-1.6273,-1.6433,-1.646,-1.6593,-1.6874,-1.7112,-1.7246,-1.738,-1.7488,-1.7582,-1.7582,-1.7582,-1.7582,-1.7582,-1.7582,-1.7635,-1.7782,-1.7916,-1.8102,-1.8342,-1.8771,-1.8958,-1.9118,-1.9372,-1.9546,-1.9573,-1.9826,-2.0013,-2.0187,-2.0428,-2.0655,-2.0815,-2.0855,-2.0855,-2.0855,-2.1002,-2.1096,-2.1109,-2.1109,-2.1176,-2.1269,-2.1296,-2.1443,-2.1643,-2.1802,-2.1817,-2.1911,-2.1977,-2.2017,-2.2058,-2.2058,-2.1991,-2.1977,-2.1977,-2.2004,-2.2044,-2.1977,-2.1817,-2.1577,-2.1269,-2.1056,-2.0922,-2.0882,-2.0802,-2.0615,-2.0508,-2.0535,-2.0535,-2.0468,-2.0374,-2.0334,-2.0361,-2.0347,-2.8301,-2.8301,-2.8301,-2.8301,-2.8301,-2.8301,-2.8301,-2.8301,-2.8301,-2.8301,-2.8301,-2.8301,-2.8262,-2.8262,-2.7982,-2.7748,-2.7578,-2.6934,-2.6543,-2.5971,-2.4889,-2.3473,-2.2416,-2.1491,-2.0743,-1.9922,-1.9834,-1.9457,-1.9214,-1.8562,-1.8767,-1.9787,-1.9704,-1.9204,-1.9045,-1.8931,-1.8291,-1.7513,-1.7125,-1.7274,-1.7224,-1.704,-1.6796,-1.7177,-1.6884,-1.7005,-1.7179,-1.7286,-1.7367,-1.7621,-1.7582,-1.7582,-1.7582,-1.7582,-1.7622,-1.7662,-1.7702,-1.7796,-1.7995,-1.8115,-1.8315,-1.8771,-1.8918,-1.9105,-1.9372,-1.9626,-1.9773,-1.984,-2.0107,-2.0388,-2.0655,-2.0935,-2.1056,-2.1122,-2.1149,-2.1162,-2.1189,-2.1176,-2.1149,-2.1162,-2.1176,-2.1349,-2.1561,-2.1681,-2.1697,-2.1964,-2.2044,-2.2124,-2.2218,-2.2298,-2.2285,-2.2245,-2.2205,-2.2151,-2.2138,-2.2138,-2.2178,-2.2205,-2.2151,-2.2017,-2.1844,-2.1577,-2.1323,-2.1176,-2.1162,-2.1096,-2.0975,-2.0935,-2.0909,-2.0842,-2.0735,-2.0588,-2.0468,-2.0548,-2.0575,-2.8301,-2.8301,-2.8301,-2.8301,-2.8301,-2.8301,-2.8301,-2.8301,-2.8301,-2.8301,-2.8301,-2.8301,-2.8301,-2.8281,-2.8164,-2.7988,-2.7715,-2.7434,-2.707,-2.6387,-2.6109,-2.5454,-2.4387,-2.2885,-2.1643,-2.1253,-2.1253,-2.1558,-2.1912,-2.1711,-2.2347,-2.2445,-2.2143,-2.1924,-2.0786,-2.0638,-2.0443,-1.9811,-1.8867,-1.8848,-1.9143,-1.7938,-1.7588,-1.8427,-1.7956,-1.7538,-1.7514,-1.7541,-1.7581,-1.7569,-1.7582,-1.7582,-1.7582,-1.7609,-1.7702,-1.7876,-1.7889,-1.8076,-1.8357,-1.8584,-1.8715,-1.8918,-1.9172,-1.9386,-1.9666,-1.9773,-1.9933,-2.012,-2.0401,-2.0708,-2.0975,-2.1069,-2.1229,-2.139,-2.147,-2.1537,-2.1697,-2.159,-2.147,-2.1561,-2.163,-2.1817,-2.1884,-2.1897,-2.2031,-2.2258,-2.2365,-2.2445,-2.2512,-2.2579,-2.2552,-2.2485,-2.2485,-2.2458,-2.2458,-2.2445,-2.2445,-2.2445,-2.2378,-2.2325,-2.2151,-2.1977,-2.1764,-2.159,-2.1521,-2.139,-2.1309,-2.1149,-2.1082,-2.1042,-2.1002,-2.0869,-2.0788,-2.0828,-2.0802,-2.8301,-2.8301,-2.8301,-2.8301,-2.8301,-2.8301,-2.8301,-2.8301,-2.8301,-2.8301,-2.8301,-2.8301,-2.8301,-2.8301,-2.8281,-2.8144,-2.7949,-2.7787,-2.7324,-2.6738,-2.6504,-2.625,-2.5887,-2.4455,-2.3335,-2.2767,-2.2667,-2.2868,-2.2767,-2.2918,-2.28,-2.3683,-2.375,-2.3143,-2.2507,-2.2339,-2.1924,-2.1197,-2.0537,-2.0537,-2.0736,-1.9941,-1.93,-2.014,-1.9831,-1.9524,-1.9612,-1.885,-1.8603,-1.8408,-1.795,-1.7648,-1.7622,-1.7716,-1.7889,-1.7955,-1.8196,-1.8384,-1.8664,-1.8838,-1.8971,-1.9132,-1.9399,-1.9599,-1.9867,-2.0013,-2.0267,-2.0454,-2.0708,-2.1002,-2.1269,-2.1323,-2.147,-2.167,-2.1764,-2.183,-2.1924,-2.1857,-2.1764,-2.1842,-2.1936,-2.2031,-2.2111,-2.2178,-2.2325,-2.2539,-2.2605,-2.2672,-2.2686,-2.2739,-2.2779,-2.2752,-2.2792,-2.2806,-2.2806,-2.2779,-2.2752,-2.2726,-2.2659,-2.2632,-2.2565,-2.2405,-2.2258,-2.2017,-2.1815,-2.1789,-2.1643,-2.147,-2.1309,-2.1296,-2.1256,-2.1162,-2.1096,-2.1042,-2.1015,-2.8301,-2.8301,-2.8301,-2.8301,-2.8301,-2.8301,-2.8301,-2.8301,-2.8301,-2.8301,-2.8301,-2.8301,-2.8301,-2.8301,-2.8301,-2.8301,-2.8184,-2.7949,-2.7539,-2.7129,-2.6855,-2.6641,-2.6326,-2.5748,-2.5074,-2.4189,-2.4016,-2.3534,-2.2868,-2.2416,-2.3484,-2.3949,-2.4048,-2.411,-2.4029,-2.393,-2.3561,-2.2696,-2.218,-2.2197,-2.2214,-2.1862,-2.1374,-2.1391,-2.1373,-2.1288,-2.1084,-2.0487,-1.9952,-1.9894,-1.8726,-1.8138,-1.8075,-1.7929,-1.8075,-1.8115,-1.845,-1.8691,-1.8918,-1.9025,-1.9145,-1.947,-1.9639,-1.9853,-2.0027,-2.0347,-2.0588,-2.0802,-2.1002,-2.1269,-2.1588,-2.1668,-2.175,-2.1964,-2.2044,-2.2071,-2.2111,-2.2124,-2.2138,-2.2071,-2.2191,-2.2365,-2.2432,-2.2498,-2.2659,-2.2779,-2.2832,-2.2859,-2.2859,-2.2873,-2.2873,-2.2859,-2.2859,-2.2859,-2.2859,-2.2899,-2.2899,-2.2913,-2.2941,-2.2859,-2.2846,-2.2699,-2.2498,-2.2231,-2.2044,-2.2004,-2.1924,-2.1737,-2.1617,-2.1641,-2.1537,-2.1483,-2.139,-2.1269,-2.1269,-2.8301,-2.8301,-2.8301,-2.8301,-2.8301,-2.8301,-2.8301,-2.8301,-2.8301,-2.8301,-2.8301,-2.8301,-2.8301,-2.8301,-2.8301,-2.8301,-2.8262,-2.8125,-2.793,-2.765,-2.7383,-2.7207,-2.6855,-2.6484,-2.6071,-2.5954,-2.5534,-2.5066,-2.4873,-2.5069,-2.4756,-2.5235,-2.5216,-2.5235,-2.5235,-2.5333,-2.5069,-2.4461,-2.3831,-2.3782,-2.4048,-2.3067,-2.2097,-2.2114,-2.2249,-2.2165,-2.1946,-2.1625,-2.1485,-2.1658,-2.0452,-2.0021,-1.9847,-1.901,-1.8577,-1.8611,-1.8953,-1.9255,-1.9256,-1.9292,-1.9439,-1.9653,-1.9826,-2.0094,-2.0388,-2.0628,-2.0815,-2.1056,-2.1283,-2.1574,-2.1614,-2.1856,-2.2044,-2.2245,-2.2552,-2.262,-2.2795,-2.3093,-2.3078,-2.3181,-2.3064,-2.2659,-2.2672,-2.2699,-2.2766,-2.2819,-2.2846,-2.2859,-2.2859,-2.2873,-2.2886,-2.2873,-2.2859,-2.2859,-2.2859,-2.2981,-2.3021,-2.302,-2.3075,-2.2979,-2.2939,-2.2873,-2.2699,-2.2458,-2.2325,-2.2271,-2.2151,-2.2004,-2.1937,-2.1897,-2.1857,-2.1804,-2.1697,-2.1603,-2.1683,-2.8301,-2.8301,-2.8301,-2.8301,-2.8301,-2.8301,-2.8301,-2.8301,-2.8301,-2.8301,-2.8301,-2.8301,-2.8301,-2.8301,-2.8301,-2.8301,-2.8301,-2.8301,-2.8164,-2.7969,-2.7773,-2.7578,-2.7305,-2.6914,-2.6758,-2.666,-2.6434,-2.6064,-2.5732,-2.5625,-2.5732,-2.5674,-2.5674,-2.5674,-2.5674,-2.5625,-2.5713,-2.5499,-2.5137,-2.4971,-2.5645,-2.4196,-2.3831,-2.3786,-2.3949,-2.409,-2.4043,-2.3561,-2.3496,-2.3393,-2.2327,-2.1937,-2.1681,-2.127,-2.0175,-1.9443,-1.9721,-1.9917,-1.9604,-1.9537,-1.9666,-1.98,-2.004,-2.0347,-2.0628,-2.0815,-2.1015,-2.1283,-2.143,-2.1762,-2.1991,-2.2124,-2.2338,-2.2768,-2.3363,-2.3958,-2.4342,-2.4979,-2.501,-2.4544,-2.3635,-2.3106,-2.2819,-2.2832,-2.2846,-2.2859,-2.2873,-2.2899,-2.2926,-2.2953,-2.3075,-2.31,-2.3153,-2.3207,-2.3193,-2.3193,-2.3249,-2.3276,-2.3207,-2.318,-2.314,-2.3113,-2.2953,-2.2712,-2.2619,-2.2565,-2.2485,-2.2378,-2.2298,-2.2191,-2.2071,-2.1991,-2.1977,-2.1977,-2.2044,-2.8301,-2.8301,-2.8301,-2.8301,-2.8301,-2.8301,-2.8301,-2.8301,-2.8301,-2.8301,-2.8301,-2.8301,-2.8301,-2.8301,-2.8301,-2.8301,-2.8301,-2.8301,-2.8281,-2.8203,-2.7988,-2.7793,-2.7676,-2.7402,-2.7148,-2.7129,-2.6934,-2.666,-2.6181,-2.6044,-2.5986,-2.6044,-2.5986,-2.5947,-2.6055,-2.6083,-2.5947,-2.5977,-2.5879,-2.581,-2.5713,-2.5693,-2.5752,-2.583,-2.6211,-2.6237,-2.6102,-2.5633,-2.5426,-2.5102,-2.4333,-2.355,-2.3871,-2.3938,-2.2695,-2.0654,-2.107,-2.0745,-2.0352,-1.9698,-1.9826,-2.0067,-2.0428,-2.0641,-2.0842,-2.1042,-2.1283,-2.1574,-2.1737,-2.1911,-2.2271,-2.2472,-2.2605,-2.3079,-2.4288,-2.5502,-2.5569,-2.5987,-2.6388,-2.5673,-2.4263,-2.3747,-2.3707,-2.2886,-2.2899,-2.306,-2.3073,-2.3193,-2.322,-2.322,-2.3343,-2.342,-2.3527,-2.3621,-2.3634,-2.3594,-2.3567,-2.3541,-2.3541,-2.3514,-2.346,-2.342,-2.3207,-2.302,-2.2966,-2.2913,-2.2832,-2.2726,-2.2592,-2.2445,-2.2271,-2.2245,-2.2325,-2.2338,-2.2365,-2.8301,-2.8301,-2.8301,-2.8301,-2.8301,-2.8301,-2.8301,-2.8301,-2.8301,-2.8301,-2.8301,-2.8301,-2.8301,-2.8301,-2.8301,-2.8301,-2.8301,-2.8301,-2.8301,-2.8262,-2.8203,-2.8144,-2.8144,-2.7845,-2.7617,-2.7559,-2.7266,-2.7012,-2.6836,-2.6816,-2.6797,-2.6758,-2.6719,-2.6816,-2.668,-2.666,-2.6855,-2.6777,-2.6484,-2.6152,-2.583,-2.5771,-2.5966,-2.623,-2.6445,-2.6621,-2.6934,-2.6731,-2.6833,-2.7017,-2.5874,-2.5416,-2.5684,-2.581,-2.4916,-2.3422,-2.2379,-2.1648,-2.1365,-2.076,-2.0187,-2.0496,-2.0655,-2.0815,-2.1056,-2.1323,-2.1601,-2.1614,-2.1964,-2.2285,-2.2472,-2.2795,-2.2861,-2.3652,-2.4834,-2.5614,-2.595,-2.6786,-2.7225,-2.6522,-2.512,-2.4882,-2.4839,-2.3817,-2.2953,-2.3126,-2.33,-2.342,-2.3514,-2.3527,-2.3567,-2.3701,-2.3861,-2.3981,-2.4022,-2.3995,-2.3955,-2.3901,-2.3888,-2.3861,-2.3768,-2.3688,-2.3541,-2.3394,-2.3327,-2.3207,-2.3086,-2.2966,-2.2914,-2.2712,-2.2565,-2.2632,-2.2779,-2.2739,-2.2632,-3.012,-2.9355,-2.8601,-2.8301,-2.8301,-2.8301,-2.8301,-2.8301,-2.8301,-2.8301,-2.8301,-2.8301,-2.8301,-2.8301,-2.8301,-2.8301,-2.8301,-2.8301,-2.8301,-2.8301,-2.8301,-2.8301,-2.8242,-2.8125,-2.8027,-2.7949,-2.7851,-2.7812,-2.7617,-2.7246,-2.7012,-2.7051,-2.7031,-2.6973,-2.7109,-2.7031,-2.6992,-2.6934,-2.6816,-2.666,-2.6504,-2.6415,-2.6543,-2.6738,-2.6973,-2.7187,-2.7363,-2.7656,-2.7793,-2.7955,-2.7226,-2.7141,-2.7292,-2.7349,-2.7008,-2.6774,-2.5315,-2.3804,-2.2253,-2.1786,-2.1348,-2.0813,-2.0828,-2.1056,-2.1336,-2.1681,-2.2015,-2.2044,-2.2258,-2.2539,-2.3079,-2.3772,-2.4221,-2.4887,-2.6154,-2.6838,-2.7304,-2.7442,-2.7757,-2.6824,-2.5972,-2.5599,-2.5143,-2.4191,-2.337,-2.3474,-2.3581,-2.3647,-2.3768,-2.3861,-2.3915,-2.3995,-2.4168,-2.4329,-2.4356,-2.4356,-2.4342,-2.4315,-2.4315,-2.4249,-2.4075,-2.3955,-2.3834,-2.3714,-2.3607,-2.3487,-2.334,-2.3113,-2.2913,-2.2873,-2.2859,-2.2859,-2.2859,-2.2846,-2.2766,-3.223,-3.1184,-2.9859,-2.9303,-2.925,-2.8953,-2.8794,-2.8794,-2.8441,-2.8301,-2.8301,-2.8301,-2.8301,-2.8301,-2.8301,-2.8301,-2.8301,-2.8301,-2.8301,-2.8301,-2.8301,-2.8301,-2.8281,-2.8262,-2.8262,-2.8301,-2.8203,-2.8184,-2.8027,-2.7754,-2.7422,-2.7344,-2.7461,-2.7402,-2.7363,-2.7402,-2.7402,-2.7226,-2.7207,-2.709,-2.6973,-2.6953,-2.7051,-2.7226,-2.7513,-2.7767,-2.7851,-2.8047,-2.8242,-2.8262,-2.8189,-2.8028,-2.8121,-2.8222,-2.8323,-2.8265,-2.7586,-2.6359,-2.448,-2.3275,-2.2335,-2.1451,-2.1182,-2.1592,-2.2457,-2.2631,-2.3234,-2.4026,-2.4199,-2.4305,-2.4463,-2.5644,-2.6139,-2.7055,-2.8223,-2.8943,-2.9345,-2.8903,-2.8438,-2.7673,-2.6671,-2.5383,-2.4848,-2.4172,-2.3829,-2.3906,-2.3888,-2.3901,-2.4022,-2.4168,-2.4222,-2.4289,-2.4356,-2.4502,-2.4529,-2.4583,-2.4623,-2.4636,-2.4636,-2.4583,-2.4356,-2.4262,-2.4168,-2.4048,-2.3901,-2.3754,-2.3594,-2.3273,-2.2979,-2.3006,-2.3006,-2.2899,-2.2859,-2.2886,-2.2873,-3.4215,-3.4019,-3.2605,-3.1927,-3.1774,-3.0669,-3.0172,-2.9859,-2.8847,-2.8388,-2.8301,-2.8301,-2.8301,-2.8301,-2.8301,-2.8301,-2.8301,-2.8301,-2.8301,-2.8301,-2.8301,-2.8301,-2.8301,-2.8301,-2.8301,-2.8301,-2.8301,-2.8301,-2.8281,-2.8164,-2.8086,-2.8184,-2.7988,-2.8125,-2.8105,-2.7969,-2.7851,-2.7676,-2.7617,-2.7441,-2.7246,-2.7168,-2.7285,-2.7559,-2.7695,-2.7851,-2.8223,-2.8281,-2.8301,-2.8301,-2.8301,-2.8379,-2.8437,-2.8633,-2.8848,-2.9014,-2.9329,-2.829,-2.6772,-2.4827,-2.2801,-2.1748,-2.1783,-2.2907,-2.4228,-2.4669,-2.5585,-2.6579,-2.6522,-2.7042,-2.7533,-2.8228,-2.841,-2.9027,-2.9968,-3.0628,-3.0597,-2.9576,-2.9077,-2.8514,-2.7362,-2.5982,-2.4867,-2.4323,-2.4165,-2.4155,-2.4182,-2.4195,-2.4329,-2.4462,-2.4502,-2.4543,-2.4556,-2.4609,-2.4609,-2.4636,-2.4636,-2.4636,-2.4636,-2.4636,-2.4569,-2.4502,-2.4409,-2.4315,-2.4155,-2.4008,-2.3861,-2.3621,-2.342,-2.326,-2.3166,-2.3153,-2.31,-2.3113,-2.3046,-3.5619,-3.5571,-3.5041,-3.3848,-3.228,-3.1724,-3.1081,-3.0328,-2.9755,-2.9006,-2.8388,-2.8301,-2.8301,-2.8301,-2.8301,-2.8301,-2.8301,-2.8301,-2.8301,-2.8301,-2.8301,-2.8301,-2.8301,-2.8301,-2.8301,-2.8301,-2.8301,-2.8301,-2.8301,-2.8301,-2.8301,-2.8301,-2.8301,-2.8281,-2.8281,-2.8301,-2.8184,-2.8125,-2.8027,-2.793,-2.7891,-2.7793,-2.7871,-2.8008,-2.8047,-2.8105,-2.8262,-2.8281,-2.8301,-2.8301,-2.8301,-2.8437,-2.8633,-2.8867,-2.9199,-2.957,-3.0059,-2.9527,-2.8568,-2.6944,-2.583,-2.4891,-2.4918,-2.5386,-2.6423,-2.6823,-2.7196,-2.7818,-2.8343,-2.8774,-2.8727,-2.9643,-3.0495,-3.0944,-3.1545,-3.2336,-3.2037,-3.0995,-2.9871,-2.9367,-2.7823,-2.6243,-2.5285,-2.4449,-2.4449,-2.4476,-2.4476,-2.4489,-2.4583,-2.4636,-2.4636,-2.4636,-2.4636,-2.4636,-2.4636,-2.4636,-2.4636,-2.4636,-2.4636,-2.4636,-2.4636,-2.4623,-2.4529,-2.4476,-2.4449,-2.4342,-2.4195,-2.4035,-2.3834,-2.3621,-2.3527,-2.35,-2.3517,-2.3437,-2.3608,-3.6405,-3.6405,-3.6405,-3.5307,-3.3578,-3.3082,-3.2404,-3.1593,-3.1081,-3.0432,-2.9513,-2.9513,-2.9197,-2.9006,-2.89,-2.8601,-2.8441,-2.8301,-2.8301,-2.8301,-2.8301,-2.8301,-2.8301,-2.8301,-2.8301,-2.8301,-2.8301,-2.8301,-2.8301,-2.8301,-2.8301,-2.8301,-2.8301,-2.8301,-2.8301,-2.8301,-2.8301,-2.8301,-2.8301,-2.8301,-2.8262,-2.8262,-2.8242,-2.8262,-2.8242,-2.8262,-2.8281,-2.8301,-2.8301,-2.834,-2.8437,-2.8633,-2.8887,-2.9199,-2.9609,-3.0019,-3.0237,-2.9891,-2.926,-2.8091,-2.76,-2.6428,-2.6788,-2.7468,-2.8381,-2.8864,-2.9244,-3.0253,-3.0206,-3.0066,-3.0432,-3.2011,-3.2792,-3.326,-3.3508,-3.4022,-3.3495,-3.257,-3.1268,-3.0194,-2.8797,-2.7833,-2.7545,-2.6822,-2.5688,-2.5336,-2.4569,-2.4556,-2.4596,-2.4636,-2.4636,-2.4636,-2.4636,-2.4636,-2.4636,-2.4636,-2.4636,-2.4636,-2.4636,-2.4636,-2.4636,-2.4636,-2.4636,-2.4569,-2.4569,-2.4623,-2.4516,-2.4315,-2.4128,-2.3941,-2.4049,-2.4211,-2.4072,-2.4118,-2.4652,-3.6405,-3.6405,-3.6405,-3.631,-3.5858,-3.4872,-3.4215,-3.3723,-3.2605,-3.1977,-3.1774,-3.1825,-3.1286,-3.0463,-3.0276,-2.9807,-2.9006,-2.8654,-2.8548,-2.8601,-2.8388,-2.8354,-2.8301,-2.8301,-2.8301,-2.8301,-2.8301,-2.8301,-2.8301,-2.8301,-2.8301,-2.834,-2.8359,-2.834,-2.8301,-2.8301,-2.8301,-2.8301,-2.8301,-2.8359,-2.8379,-2.8437,-2.8496,-2.8516,-2.8516,-2.8555,-2.8555,-2.8555,-2.8574,-2.8574,-2.8789,-2.8984,-2.9141,-2.9707,-3.0078,-3.0254,-3.0644,-3.0781,-3.0625,-2.8243,-2.7706,-2.7923,-2.8628,-2.9148,-3.0288,-3.0954,-3.1358,-3.2329,-3.3081,-3.3589,-3.4321,-3.4735,-3.4757,-3.4941,-3.5181,-3.518,-3.4564,-3.4221,-3.2926,-3.1614,-3.0822,-3.0168,-3.008,-2.9511,-2.7734,-2.6459,-2.5125,-2.4636,-2.471,-2.4636,-2.4636,-2.4636,-2.4636,-2.4636,-2.4636,-2.4636,-2.4636,-2.4636,-2.4636,-2.4636,-2.4636,-2.4636,-2.4636,-2.4636,-2.4636,-2.4636,-2.4636,-2.467,-2.4907,-2.5194,-2.4913,-2.4931,-2.479,-2.513,-2.6032,-3.6405,-3.6405,-3.6405,-3.6405,-3.6358,-3.5978,-3.5283,-3.4239,-3.3005,-3.2331,-3.228,-3.228,-3.2129,-3.1724,-3.1571,-3.1338,-3.0824,-2.9807,-2.9597,-2.9565,-2.8847,-2.8354,-2.8301,-2.8354,-2.8301,-2.8301,-2.8301,-2.8301,-2.8301,-2.834,-2.832,-2.832,-2.8594,-2.8535,-2.8379,-2.8301,-2.8301,-2.8359,-2.8535,-2.873,-2.875,-2.8945,-2.9101,-2.9082,-2.9137,-2.9062,-2.9043,-2.9023,-2.9023,-2.9043,-2.9277,-2.9434,-2.9629,-3.0176,-3.0332,-3.0547,-3.0879,-3.1035,-3.1327,-3.0667,-3.0847,-3.0784,-3.0788,-3.1273,-3.2416,-3.2841,-3.3502,-3.3927,-3.4394,-3.4687,-3.5051,-3.5168,-3.5276,-3.5588,-3.5753,-3.5772,-3.55,-3.5363,-3.459,-3.324,-3.2246,-3.1456,-3.1087,-3.1405,-3.0118,-2.8813,-2.7635,-2.5712,-2.5198,-2.477,-2.4636,-2.4636,-2.4636,-2.4636,-2.4636,-2.5065,-2.5139,-2.5065,-2.4844,-2.4636,-2.4636,-2.4636,-2.4636,-2.4636,-2.4636,-2.4636,-2.5212,-2.5772,-2.6314,-2.6518,-2.7229,-2.7423,-2.7524,-2.7777,-2.8256,-3.6405,-3.6405,-3.6405,-3.6405,-3.6405,-3.6405,-3.5858,-3.5017,-3.4093,-3.3749,-3.3798,-3.3749,-3.3453,-3.3204,-3.3005,-3.2532,-3.228,-3.1469,-3.0979,-3.0773,-2.9618,-2.927,-2.9006,-2.8568,-2.8301,-2.8301,-2.832,-2.834,-2.8535,-2.8535,-2.8652,-2.8848,-2.9004,-2.9004,-2.8848,-2.8809,-2.8809,-2.8887,-2.9062,-2.9141,-2.9219,-2.9355,-2.9531,-2.9512,-2.9531,-2.9531,-2.9551,-2.959,-2.959,-2.9629,-2.9746,-2.9902,-3.0156,-3.0391,-3.0566,-3.082,-3.1074,-3.1387,-3.1932,-3.2283,-3.23,-3.2676,-3.3008,-3.3223,-3.3555,-3.3759,-3.4128,-3.4531,-3.4785,-3.5137,-3.5488,-3.5547,-3.5684,-3.5996,-3.6035,-3.6055,-3.5967,-3.5831,-3.5713,-3.4421,-3.3882,-3.2943,-3.2368,-3.2524,-3.2419,-3.1335,-3.0255,-2.8125,-2.6064,-2.5492,-2.5198,-2.5198,-2.5492,-2.5918,-2.5918,-2.5991,-2.5918,-2.5639,-2.5419,-2.5198,-2.4636,-2.4636,-2.4636,-2.4636,-2.4784,-2.5139,-2.6284,-2.7055,-2.8598,-3.0009,-3.123,-3.1143,-3.0593,-3.051,-3.0674,-3.6405,-3.6405,-3.6405,-3.6405,-3.6405,-3.6405,-3.6358,-3.631,-3.6263,-3.6216,-3.6263,-3.6048,-3.5403,-3.4581,-3.4434,-3.3848,-3.2978,-3.2627,-3.2493,-3.2066,-3.118,-3.0693,-2.9858,-2.9212,-2.8793,-2.8486,-2.8457,-2.875,-2.8926,-2.8945,-2.9141,-2.9453,-2.9531,-2.959,-2.959,-2.9629,-2.9531,-2.9434,-2.9492,-2.957,-2.9629,-2.9707,-2.9844,-2.9863,-2.9844,-2.9844,-2.9824,-2.9824,-2.9785,-2.9844,-3.0039,-3.0156,-3.0371,-3.0664,-3.0801,-3.1035,-3.1328,-3.2012,-3.25,-3.2773,-3.3105,-3.3379,-3.3437,-3.3691,-3.3945,-3.4199,-3.4629,-3.5,-3.5293,-3.5586,-3.5879,-3.5898,-3.5937,-3.6055,-3.6094,-3.6094,-3.6055,-3.6006,-3.6045,-3.5664,-3.5538,-3.5089,-3.4883,-3.4895,-3.3927,-3.3342,-3.2176,-3.0751,-2.8701,-2.6765,-2.6488,-2.6415,-2.6779,-2.749,-2.7563,-2.7563,-2.7563,-2.7548,-2.6619,-2.6269,-2.5492,-2.5433,-2.6166,-2.6385,-2.5446,-2.58,-2.749,-2.9686,-3.1948,-3.317,-3.3448,-3.3517,-3.2665,-3.2874,-3.308,-3.6405,-3.6405,-3.6405,-3.6405,-3.6405,-3.6405,-3.6405,-3.6405,-3.6405,-3.6405,-3.6405,-3.6405,-3.6121,-3.581,-3.581,-3.5499,-3.5114,-3.4695,-3.444,-3.3862,-3.2971,-3.1889,-3.1074,-3.0494,-2.9682,-2.9208,-2.9148,-2.94,-2.9391,-2.945,-2.9629,-2.9941,-3.0019,-3.0176,-3.0351,-3.0488,-3.0098,-2.9863,-2.9922,-3.0,-3.0117,-3.0254,-3.0332,-3.0391,-3.0391,-3.0391,-3.0391,-3.041,-3.041,-3.0508,-3.0605,-3.0684,-3.0723,-3.084,-3.0957,-3.1387,-3.1953,-3.2578,-3.2812,-3.3086,-3.3418,-3.375,-3.3887,-3.3906,-3.4199,-3.4609,-3.5059,-3.5391,-3.5644,-3.5879,-3.6016,-3.6055,-3.6113,-3.6172,-3.625,-3.6367,-3.6348,-3.6387,-3.6387,-3.6094,-3.6035,-3.6074,-3.6074,-3.5879,-3.4983,-3.4727,-3.4089,-3.2822,-3.1175,-2.9115,-2.7909,-2.7837,-2.8557,-2.9417,-2.9472,-2.9472,-2.9472,-2.9329,-2.8398,-2.7894,-2.811,-2.8213,-2.8491,-2.8362,-2.7943,-2.8331,-2.9274,-3.1527,-3.3743,-3.3951,-3.4158,-3.459,-3.4865,-3.4727,-3.4746,-3.6405,-3.6405,-3.6405,-3.6405,-3.6405,-3.6405,-3.6405,-3.6405,-3.6405,-3.6405,-3.6405,-3.6405,-3.6405,-3.6358,-3.6335,-3.6388,-3.6591,-3.6161,-3.6038,-3.6007,-3.4926,-3.4085,-3.3205,-3.2367,-3.1838,-3.1075,-3.0587,-3.066,-3.0494,-3.0209,-3.0293,-3.043,-3.0469,-3.0625,-3.0781,-3.0762,-3.0586,-3.0391,-3.0332,-3.043,-3.0586,-3.0723,-3.084,-3.0898,-3.0898,-3.0898,-3.0898,-3.0898,-3.0898,-3.0898,-3.0898,-3.0898,-3.0937,-3.1035,-3.1504,-3.1953,-3.2383,-3.2812,-3.3086,-3.3476,-3.3769,-3.4082,-3.4375,-3.4609,-3.4746,-3.5059,-3.5371,-3.5664,-3.5859,-3.6035,-3.6094,-3.6152,-3.623,-3.6289,-3.6484,-3.6699,-3.6738,-3.6797,-3.6523,-3.6172,-3.6094,-3.6133,-3.6133,-3.6074,-3.5947,-3.5587,-3.5314,-3.4727,-3.3031,-3.1034,-2.9812,-2.9329,-3.0397,-3.1456,-3.1456,-3.1456,-3.1456,-3.1104,-3.0026,-2.9812,-3.0451,-3.0255,-2.9861,-3.0228,-3.0722,-3.1152,-3.1474,-3.2961,-3.4659,-3.4796,-3.4883,-3.5226,-3.5451,-3.5519,-3.5606,-3.6405,-3.6405,-3.6405,-3.6405,-3.6405,-3.6405,-3.6405,-3.6405,-3.6405,-3.6405,-3.6405,-3.6405,-3.6405,-3.6405,-3.643,-3.6732,-3.6985,-3.7019,-3.7319,-3.799,-3.6866,-3.5904,-3.5287,-3.4797,-3.3802,-3.3431,-3.2965,-3.2272,-3.1988,-3.1385,-3.0684,-3.0879,-3.084,-3.0859,-3.0879,-3.0898,-3.0781,-3.0723,-3.0703,-3.0781,-3.082,-3.0879,-3.0898,-3.0898,-3.0898,-3.0898,-3.0898,-3.0898,-3.0898,-3.0898,-3.0957,-3.0976,-3.1211,-3.1504,-3.2109,-3.2461,-3.2793,-3.3047,-3.334,-3.3711,-3.3984,-3.4394,-3.4883,-3.5176,-3.5351,-3.543,-3.5684,-3.582,-3.5996,-3.6152,-3.625,-3.6387,-3.6504,-3.6738,-3.6992,-3.6934,-3.6738,-3.6699,-3.6465,-3.623,-3.6348,-3.6367,-3.6133,-3.6074,-3.6152,-3.6025,-3.5879,-3.5675,-3.4815,-3.2874,-3.2088,-3.1316,-3.2316,-3.3378,-3.3378,-3.3378,-3.3378,-3.2874,-3.1878,-3.1738,-3.2368,-3.1808,-3.0946,-3.1877,-3.3017,-3.3191,-3.3692,-3.4815,-3.5382,-3.5519,-3.5675,-3.5879,-3.6035,-3.6035,-3.6035,-3.6405,-3.6405,-3.6405,-3.6405,-3.6405,-3.6405,-3.6405,-3.6405,-3.6405,-3.643,-3.643,-3.643,-3.643,-3.648,-3.6556,-3.6857,-3.7285,-3.7713,-3.814,-3.8492,-3.8113,-3.7453,-3.6864,-3.6346,-3.559,-3.4772,-3.425,-3.3679,-3.2734,-3.1707,-3.0898,-3.0898,-3.0898,-3.0898,-3.0898,-3.0898,-3.0898,-3.0898,-3.0898,-3.0898,-3.0898,-3.0898,-3.0898,-3.0957,-3.0937,-3.1035,-3.1035,-3.0976,-3.0957,-3.0918,-3.123,-3.1504,-3.1855,-3.2246,-3.2539,-3.2793,-3.3086,-3.3281,-3.3535,-3.3906,-3.4238,-3.4609,-3.5078,-3.5488,-3.5742,-3.582,-3.5898,-3.5976,-3.6113,-3.6269,-3.6445,-3.6621,-3.6855,-3.7187,-3.748,-3.7148,-3.6797,-3.6562,-3.6367,-3.6445,-3.6601,-3.6484,-3.625,-3.6211,-3.625,-3.6191,-3.6074,-3.5879,-3.5879,-3.4727,-3.4521,-3.402,-3.4521,-3.5245,-3.5158,-3.4952,-3.4727,-3.4883,-3.4227,-3.4227,-3.4296,-3.3863,-3.3309,-3.4296,-3.5177,-3.4971,-3.4834,-3.5451,-3.5879,-3.6035,-3.6035,-3.6035,-3.6035,-3.6035,-3.6035,-3.6405,-3.6405,-3.6405,-3.6405,-3.6405,-3.6405,-3.6405,-3.6455,-3.6656,-3.6782,-3.6734,-3.6782,-3.6782,-3.6857,-3.696,-3.7385,-3.7888,-3.8216,-3.8718,-3.9094,-3.9144,-3.8786,-3.8297,-3.7861,-3.7754,-3.6956,-3.5491,-3.4471,-3.3304,-3.1767,-3.0898,-3.0937,-3.0957,-3.0957,-3.0957,-3.0898,-3.0898,-3.0898,-3.0957,-3.1035,-3.1035,-3.1015,-3.1383,-3.1498,-3.1402,-3.1424,-3.1758,-3.168,-3.1309,-3.1426,-3.1719,-3.2031,-3.2324,-3.2598,-3.2851,-3.3066,-3.3301,-3.3516,-3.375,-3.4101,-3.4531,-3.4961,-3.5391,-3.5859,-3.5898,-3.5957,-3.5957,-3.6055,-3.6328,-3.6504,-3.6738,-3.6934,-3.7285,-3.7637,-3.7851,-3.7793,-3.7246,-3.6738,-3.6601,-3.6562,-3.6758,-3.6953,-3.6797,-3.6797,-3.6777,-3.6484,-3.6328,-3.6133,-3.6113,-3.6035,-3.6035,-3.6035,-3.6035,-3.6035,-3.5743,-3.5675,-3.5675,-3.5879,-3.6035,-3.5675,-3.5226,-3.5587,-3.5947,-3.5879,-3.5879,-3.5811,-3.5879,-3.6035,-3.6035,-3.6035,-3.6035,-3.6035,-3.6035,-3.6035,-3.6035,-3.6405,-3.6405,-3.6405,-3.6405,-3.6405,-3.6405,-3.6455,-3.6606,-3.696,-3.7236,-3.7312,-3.7387,-3.7362,-3.7487,-3.7764,-3.8316,-3.8718,-3.8668,-3.912,-3.9496,-3.9622,-3.9392,-3.9392,-3.9467,-3.9158,-3.8327,-3.6918,-3.5508,-3.4181,-3.2815,-3.194,-3.1383,-3.117,-3.1112,-3.0957,-3.0898,-3.0898,-3.1093,-3.1249,-3.1444,-3.1365,-3.1249,-3.1946,-3.2157,-3.216,-3.2246,-3.2664,-3.2552,-3.1976,-3.2012,-3.2187,-3.25,-3.2734,-3.2949,-3.3086,-3.3301,-3.3496,-3.373,-3.4023,-3.4492,-3.4922,-3.5351,-3.5801,-3.5996,-3.6016,-3.6094,-3.6094,-3.6269,-3.6543,-3.6816,-3.7051,-3.7324,-3.7695,-3.7969,-3.8164,-3.8184,-3.7519,-3.6914,-3.6777,-3.6699,-3.6914,-3.7187,-3.7226,-3.7226,-3.7168,-3.6894,-3.6621,-3.6406,-3.623,-3.6094,-3.6035,-3.6035,-3.6035,-3.6035,-3.6035,-3.6035,-3.6035,-3.6035,-3.6035,-3.6035,-3.6035,-3.6035,-3.6035,-3.6035,-3.6035,-3.6035,-3.6035,-3.6035,-3.6035,-3.6035,-3.6035,-3.6035,-3.6035,-3.6035,-3.6035,-3.6405,-3.6405,-3.6405,-3.6405,-3.6405,-3.643,-3.6656,-3.701,-3.7136,-3.7412,-3.7889,-3.8316,-3.8341,-3.7864,-3.7914,-3.8366,-3.8919,-3.902,-3.9245,-3.9622,-3.9697,-3.9697,-3.9697,-3.9697,-3.9697,-3.8921,-3.7926,-3.7026,-3.5617,-3.4681,-3.3698,-3.2587,-3.2587,-3.2055,-3.0976,-3.0937,-3.1055,-3.1309,-3.2228,-3.2738,-3.3107,-3.2933,-3.2466,-3.2743,-3.3144,-3.2912,-3.2715,-3.2273,-3.215,-3.2287,-3.2519,-3.2871,-3.3086,-3.3223,-3.334,-3.3516,-3.3711,-3.4004,-3.4355,-3.4844,-3.5273,-3.5469,-3.582,-3.6016,-3.6133,-3.6367,-3.6426,-3.6562,-3.6855,-3.7168,-3.7422,-3.7676,-3.8008,-3.8125,-3.8301,-3.7949,-3.7441,-3.7012,-3.6719,-3.6797,-3.6973,-3.709,-3.7129,-3.7285,-3.7617,-3.7305,-3.6934,-3.6719,-3.6484,-3.6269,-3.6074,-3.6035,-3.6055,-3.6035,-3.6035,-3.6035,-3.6035,-3.6035,-3.6035,-3.6035,-3.6035,-3.6035,-3.6035,-3.6035,-3.6035,-3.6035,-3.6035,-3.6035,-3.6035,-3.6035,-3.6035,-3.6035,-3.6035,-3.6084,-3.6219]},{"header":{"parameterUnit":"m.s-1","parameterCategory":1,"la1":31.0,"la2":29.5877,"lo1":-88.7671,"lo2":-86.6584,"dy":0.0162,"dx":0.0185,"nx":115,"ny":88,"refTime":"2026-04-22T00:00:00:Z","depth":0,"parameterNumber":3,"parameterNumberName":"V-component_of_WINDS"},"data":[0.0,0.0,0.0,0.0,0.0,0.0,0.0,0.0,0.0,0.0,0.0,0.0,0.0,0.0,0.0,0.0,0.0,0.0,0.0,0.0,0.0,0.0,0.0,0.0,0.0,0.0,0.0,0.0,0.0,0.0,0.0,0.0,0.0,0.0,0.0,0.0,0.0,0.0,0.0,0.0,0.0,0.0,0.0,0.0,0.0,0.0,0.0,0.0,0.0,0.0,0.0,0.0,0.0,0.0,0.0,0.0,0.0,0.0,0.0,0.0,0.0,0.0,0.0,0.0,0.0,0.0,0.0,0.0,0.0,0.0,0.0,0.0,0.0,0.0,0.0,0.0,0.0,0.0,0.0,0.0,0.0,0.0,0.0,0.0,0.0,0.0,0.0,0.0,0.0,0.0,0.0,0.0,0.0,0.0,0.0,0.0,0.0,0.0,0.0,0.0,0.0,0.0,0.0,0.0,0.0,0.0,0.0,0.0,0.0,0.0,0.0,0.0,0.0,0.0,0.0,0.0,0.0,0.0,0.0,0.0,0.0,0.0,0.0,0.0,0.0,0.0,0.0,0.0,0.0,0.0,0.0,0.0,0.0,0.0,0.0,0.0,0.0,0.0,0.0,0.0,0.0,0.0,0.0,0.0,0.0,0.0,0.0,0.0,0.0,0.0,0.0,0.0,0.0,0.0,0.0,0.0,0.0,0.0,0.0,0.0,0.0,0.0,0.0,0.0,0.0,0.0,0.0,0.0,0.0,0.0,0.0,0.0,0.0,0.0,0.0,0.0,0.0,0.0,0.0,0.0,0.0,0.0,0.0,0.0,0.0,0.0,0.0,0.0,0.0,0.0,0.0,0.0,0.0,0.0,0.0,0.0,0.0,0.0,0.0,0.0,0.0,0.0,0.0,0.0,0.0,0.0,0.0,0.0,0.0,0.0,0.0,0.0,0.0,0.0,0.0,0.0,0.0,0.0,0.0,0.0,0.0,0.0,0.0,0.0,0.0,0.0,0.0,0.0,0.0,0.0,0.0,0.0,0.0,0.0,0.0,0.0,0.0,0.0,0.0,0.0,0.0,0.0,0.0,0.0,0.0,0.0,0.0,0.0,0.0,0.0,0.0,0.0,0.0,0.0,0.0,0.0,0.0,0.0,0.0,0.0,0.0,0.0,0.0,0.0,0.0,0.0,0.0,0.0,0.0,0.0,0.0,0.0,0.0,0.0,0.0,0.0,0.0,0.0,0.0,0.0,0.0,0.0,0.0,0.0,0.0,0.0,0.0,0.0,0.0,0.0,0.0,0.0,0.0,0.0,0.0,0.0,0.0,0.0,0.0,0.0,0.0,0.0,0.0,0.0,0.0,0.0,0.0,0.0,0.0,0.0,0.0,0.0,0.0,0.0,0.0,0.0,0.0,0.0,0.0,0.0,0.0,0.0,0.0,0.0,0.0,0.0,0.0,0.0,0.0,0.0,0.0,0.0,0.0,0.0,0.0,0.0,0.0,0.0,0.0,0.0,0.0,0.0,0.0,0.0,0.0,0.0,0.0,0.0,0.0,0.0,0.0,0.0,0.0,0.0,0.0,0.0,0.0,0.0,0.0,0.0,0.0,0.0,0.0,0.0,0.0,0.0,0.0,0.0,0.0,0.0,0.0,0.0,0.0,0.0,0.0,0.0,0.0,0.0,0.0,0.0,0.0,0.0,0.0,0.0,0.0,0.0,0.0,0.0,0.0,0.0,0.0,0.0,0.0,0.0,0.0,0.0,0.0,0.0,0.0,0.0,0.0,0.0,0.0,0.0,0.0,0.0,0.0,0.0,0.0,0.0,0.0,0.0,0.0,0.0,0.0,0.0,0.0,0.0,0.0,0.0,0.0,0.0,0.0,0.0,0.0,0.0,0.0,0.0,0.0,0.0,0.0,0.0,0.0,0.0,0.0,0.0,0.0,0.0,0.0,0.0,0.0,0.0,0.0,0.0,0.0,0.0,0.0,0.0,0.0,0.0,0.0,0.0,0.0,0.0,0.0,0.0,0.0,0.0,0.0,0.0,0.0,0.0,0.0,0.0,0.0,0.0,0.0,0.0,0.0,0.0,0.0,0.0,0.0,0.0,0.0,0.0,0.0,0.0,0.0,0.0,0.0,0.0,0.0,0.0,0.0,0.0,0.0,0.0,0.0,0.0,0.0,0.0,0.0,0.0,0.0,0.0,0.0,0.0,0.0,0.0,0.0,0.0,0.0,0.0,0.0,0.0,0.0,0.0,0.0,0.0,0.0,0.0,0.0,0.0,0.0,0.0,0.0,0.0,0.0,0.0,0.0,0.0,0.0,0.0,0.0,0.0,0.0,0.0,0.0,0.0,0.0,0.0,0.0,0.0,0.0,0.0,0.0,0.0,0.0,0.0,0.0,0.0,0.0,0.0,0.0,0.0,0.0,0.0,0.0,0.0,0.0,0.0,0.0,0.0,0.0,0.0,0.0,0.0,0.0,0.0,0.0,0.0,0.0,0.0,0.0,0.0,0.0,0.0,0.0,0.0,0.0,0.0,0.0,0.0,0.0,0.0,0.0,0.0,0.0,0.0,0.0,0.0,0.0,0.0,0.0,0.0,0.0,0.0,0.0,0.0,0.0,0.0,0.0,0.0,0.0,0.0,0.0,0.0,0.0,0.0,0.0,0.0,0.0,0.0,0.0,0.0,0.0,0.0,0.0,0.0,0.0,0.0,0.0,0.0,0.0,0.0,0.0,0.0,0.0,0.0,0.0,0.0,0.0,0.0,0.0,0.0,0.0,0.0,0.0,0.0,0.0,0.0,0.0,0.0,0.0,0.0,0.0,0.0,0.0,0.0,0.0,0.0,0.0,0.0,0.0,0.0,0.0,0.0,0.0,0.0,0.0,0.0,0.0,0.0,0.0,0.0,0.0,0.0,0.0,0.0,0.0,0.0,0.0,0.0,0.0,0.0,0.0,0.0,0.0,0.0,0.0,0.0,0.0,0.0,0.0,0.0,0.0,0.0,0.0,0.0,0.0,0.0,0.0,0.0,0.0,0.0,0.0,0.0,0.0,0.0,0.0,0.0,0.0,0.0,0.0,0.0,0.0,0.0,0.0,0.0,0.0,0.0,0.0,0.0,0.0,0.0,0.0,0.0,0.0,0.0,0.0,0.0,0.0,0.0,0.0,0.0,0.0,0.0,0.0,0.0,0.0,0.0,0.0,0.0,0.0,0.0,0.0,0.0,0.0,0.0,0.0,0.0,0.0,0.0,0.0,0.0,0.0,0.0,0.0,0.0,0.0,0.0,0.0,0.0,0.0,0.0,0.0,0.0,0.0,0.0,0.0,0.0,0.0,0.0,0.0,0.0,0.0,0.0,0.0,0.0,0.0,0.0,0.0,0.0,0.0,0.0,0.0,0.0,0.0,0.0,0.0,0.0,0.0,0.0,0.0,0.0,0.0,0.0,0.0,0.0,0.0,0.0,0.0,0.0,0.0,0.0,0.0,0.0,0.0,0.0,0.0,0.0,0.0,0.0,0.0,0.0,0.0,0.0,0.0,0.0,0.0,0.0,0.0,0.0,0.0,0.0,0.0,0.0,0.0,0.0,0.0,0.0,0.0,0.0,0.0,0.0,0.0,0.0,0.0,0.0,0.0,0.0,0.0,0.0,0.0,0.0,0.0,0.0,0.0,0.0,0.0,0.0,0.0,0.0,0.0,0.0,0.0,0.0,0.0,0.0,0.0,0.0,0.0,0.0,0.0,0.0,0.0,0.0,0.0,0.0,0.0,0.0,0.0,0.0,0.0,0.0,0.0,0.0,0.0,0.0,0.0,0.0,0.0,0.0,0.0,0.0,0.0,0.0,0.0,0.0,0.0,0.0,0.0,0.0,0.0,0.0,0.0,0.0,0.0,0.0,0.0,0.0,0.0,0.0,0.0,0.0,0.0,0.0,0.0,0.0,0.0,0.0,0.0,0.0,0.0,0.0,0.0,0.0,0.0,0.0,0.0,0.0,0.0,0.0,0.0,0.0,0.0,0.0,0.0,0.0,0.0,0.0,0.0,0.0,0.0,0.0,0.0,0.0,0.0,0.0,0.0,0.0,0.0,0.0,0.0,0.0,0.0,0.0,0.0,0.0,0.0,0.0,0.0,0.0,0.0,0.0,0.0,0.0,0.0,0.0,0.0,0.0,0.0,0.0,0.0,0.0,0.0,0.0,0.0,0.0,0.0,0.0,0.0,0.0,0.0,0.0,0.0,0.0,0.0,0.0,0.0,0.0,0.0,0.0,0.0,0.0,0.8968,0.0,0.0,0.0,0.0,0.0,0.0,0.0,0.0,0.0,0.0,0.0,0.0,0.0,0.0,0.0,0.0,0.0,0.0,0.0,0.0,0.0,0.0,0.0,0.0,0.0,0.0,0.0,0.0,0.0,0.0,0.0,0.0,0.0,0.0,0.0,0.0,0.0,0.0,0.0,0.0,0.0,0.0,0.0,0.0,0.0,0.0,0.0,0.0,0.0,0.0,0.0,0.0,0.0,0.0,0.0,0.0,0.0,0.0,0.0,0.0,0.0,0.0,0.0,0.0,0.0,0.0,0.0,0.0,0.0,0.0,0.0,0.0,0.0,0.0,0.0,0.0,0.0,0.0,0.0,0.0,0.0,0.0,0.0,0.0,0.0,0.0,0.0,0.0,0.0,0.0,0.0,0.0,0.0,0.0,0.0,0.0,0.0,0.0,0.0,0.0,0.0,0.0,0.0,0.0,0.0,0.0,0.0,0.0,0.0,0.0,0.343,0.4793,0.6636,0.8492,1.0435,0.0,0.0,0.0,0.0,0.0,0.0,0.0,0.0,0.0,0.0,0.0,0.0,0.0,0.0,0.0,0.0,0.0,0.0,0.0,0.0,0.0,0.0,0.0,0.0,0.0,0.0,0.0,0.0,0.0,0.0,0.0,0.0,0.0,0.0,0.0,0.0,0.0,0.0,0.0,0.0,0.0,0.0,0.0,0.0,0.0,0.0,0.0,0.0,0.0,0.0,0.0,0.0,0.0,0.0,0.0,0.0,0.0,0.0,0.0,0.0,0.0,0.0,0.0,0.0,0.0,0.0,0.0,0.0,0.0,0.0,0.0,0.0,0.0,0.0,0.0,0.0,0.0,0.0,0.0,0.0,0.0,0.0,0.0,0.0,0.0,0.0,0.0,0.0,0.0,0.0,0.0,0.0,0.0,0.0,0.0,0.0,0.0,0.0,0.0,0.0,0.0,0.0,0.0,0.0,0.0,0.0,0.0,0.0,0.0,0.0,0.0,0.0,0.7616,0.9731,1.2155,0.0,0.0,0.0,0.0,0.0,0.0,0.0,0.0,0.0,0.0,0.0,0.0,0.0,0.0,0.0,0.0,0.0,0.0,0.0,0.0,0.0,0.0,0.0,0.0,0.0,0.0,0.0,0.0,0.0,0.0,0.0,0.0,0.0,0.0,0.0,0.0,0.0,0.0,0.0,0.0,0.0,0.0,0.0,0.0,0.0,0.0,0.0,0.0,0.0,0.0,0.0,0.0,0.0,0.0,0.0,0.0,0.0,0.0,0.0,0.0,0.0,0.0,0.0,0.0,0.0,0.0,0.0,0.0,0.0,0.0,0.0,0.0,0.0,0.0,0.0,0.0,0.0,0.0,0.0,0.0,0.0,0.0,0.0,0.0,0.0,0.0,0.0,0.0,0.0,0.0,0.0,0.0,0.0,0.0,0.0,0.0,0.0,0.0,0.0,0.0,0.0,0.0,0.0,0.0,0.0,0.0,0.0,0.0,0.0,0.0,0.4826,0.6301,0.8502,0.0,1.3913,0.0,0.0,0.0,0.0,0.0,0.0,0.0,0.0,0.0,0.0,0.0,0.0,0.0,0.0,0.0,0.0,0.0,0.0,0.0,0.0,0.0,0.0,0.0,0.0,0.0,0.0,0.0,0.0,0.0,0.0,0.0,0.0,0.0,0.0,0.0,0.0,0.0,0.0,0.0,0.0,0.0,0.0,0.0,0.0,0.0,0.0,0.0,0.0,0.0,0.0,0.0,0.0,0.0,0.0,0.0,0.0,0.0,0.0,0.0,0.0,0.0,0.0,0.0,0.0,0.0,0.0,0.0,0.0,0.0,0.0,0.0,0.0,0.0,0.0,0.0,0.0,0.0,0.0,0.0,0.0,0.0,0.0,0.0,0.0,0.0,0.0,0.0,0.0,0.0,0.0,0.0,0.0,0.0,0.0,0.0,0.0,0.0,0.0,0.0,0.0,0.0,0.0,0.0,0.0,0.0,0.0,0.0,0.0,0.0,0.0,0.0,0.7544,1.0302,1.2622,0.0,0.0,0.0,0.0,0.0,0.0,0.0,0.0,0.0,0.0,0.0,0.0,0.0,0.0,0.0,0.0,0.0,0.0,0.0,0.0,0.0,0.0,0.0,0.0,0.0,0.0,0.0,0.0,0.0,0.0,0.0,0.0,0.0,0.0,0.0,0.0,0.0,0.0,0.0,0.0,0.0,0.0,0.0,0.0,0.0,0.0,0.0,0.0,0.0,0.0,0.0,0.0,0.0,0.0,0.0,0.0,0.0,0.0,0.0,0.0,0.0,0.0,0.0,0.0,0.0,0.0,0.0,0.0,0.0,0.0,0.0,0.0,0.0,0.0,0.0,0.0,0.0,0.0,0.0,0.0,0.0,0.0,0.0,0.0,0.0,0.0,0.0,0.0,0.0,0.0,0.0,0.0,0.0,0.0,0.0,0.0,0.0,0.0,0.0,0.0,0.0,0.0,0.0,0.0,0.0,0.0,0.0,0.0,0.0,0.0,0.5447,0.0,0.9216,1.1797,1.3573,1.4471,0.0,0.0,0.0,0.0,0.0,0.0,0.0,0.0,0.0,0.0,0.0,0.0,0.0,0.0,0.0,0.0,0.0,0.0,0.0,0.0,0.0,0.0,0.0,0.0,0.0,0.0,0.0,0.0,0.0,0.0,0.0,0.0,0.0,0.0,0.0,0.0,0.0,0.0,0.0,0.0,0.0,0.0,0.0,0.0,0.0,0.0,0.0,0.0,0.0,0.0,0.0,0.0,0.0,0.0,0.0,0.0,0.0,0.0,0.0,0.0,0.0,0.0,0.0,0.0,0.0,0.0,0.0,0.0,0.0,0.0,0.0,0.0,0.0,0.0,0.0,0.0,0.0,0.0,0.0,0.0,0.0,0.0,0.0,0.0,0.0,0.0,0.0,0.0,0.0,0.0,0.0,0.0,0.0,0.0,0.0,0.0,0.0,0.0,0.0,0.0,0.0,0.0,0.0,0.0,0.0,0.0,0.0,0.0,0.0,0.6314,0.8359,1.123,1.2613,1.3696,0.0,0.0,0.0,0.0,0.0,0.0,0.0,0.0,0.0,0.0,0.0,0.0,0.0,0.0,0.0,0.0,0.0,0.0,0.0,0.0,0.0,0.0,0.0,0.0,0.0,0.0,0.0,0.0,0.0,0.0,0.0,0.0,0.0,0.0,0.0,0.0,0.0,0.0,0.0,0.0,0.0,0.0,0.0,0.0,0.0,0.0,0.0,0.0,0.0,0.0,0.0,0.0,0.0,0.0,0.0,0.0,0.0,0.0,0.0,0.0,0.0,0.0,0.0,0.0,0.0,0.0,0.0,0.0,0.0,0.0,0.0,0.0,0.0,0.0,0.0,0.0,0.0,0.0,0.0,0.0,0.0,0.0,0.0,0.0,0.0,0.0,0.0,0.0,0.0,0.0,0.0,0.0,0.0,0.0,0.0,0.0,0.0,0.0,0.0,0.0,0.0,0.0,0.0,0.0,0.0,0.0,0.0,0.0,0.0,0.5968,0.799,0.9995,1.181,1.2974,1.3879,0.0,0.0,0.0,0.0,0.0,0.0,0.0,0.0,0.0,0.0,0.0,0.0,0.0,0.0,0.0,0.0,0.0,0.0,0.0,0.0,0.0,0.0,0.0,0.0,0.0,0.0,0.0,0.0,0.0,0.0,0.0,0.0,0.0,0.0,0.0,0.0,0.0,0.0,0.0,0.0,0.0,0.0,0.0,0.0,0.0,0.0,0.0,0.0,0.0,0.0,0.0,0.0,0.0,0.0,0.0,0.0,0.0,0.0,0.0,0.0,0.0,0.0,0.0,0.0,0.0,0.0,0.0,0.0,0.0,0.0,0.0,0.0,0.0,0.0,0.0,0.0,0.0,0.0,0.0,0.0,0.0,0.0,0.0,0.0,0.0,0.0,0.0,0.0,0.0,0.0,0.0,0.0,0.0,0.0,0.0,0.0,0.0,0.0,0.0,0.0,0.0,0.0,0.0,0.0,0.0,0.0,0.0,0.0,0.0,0.7817,0.0,1.1912,0.0,1.4062,1.4756,0.0,0.0,0.0,0.0,0.0,0.0,0.0,0.0,0.0,0.0,0.0,0.0,0.0,0.0,0.0,0.0,0.0,0.0,0.0,0.0,0.0,0.0,0.0,0.0,0.0,0.0,0.0,0.0,0.0,0.0,0.0,0.0,0.0,0.0,0.0,0.0,0.0,0.0,0.0,0.0,0.0,0.0,0.0,0.0,0.0,0.0,0.0,0.0,0.0,0.0,0.0,0.0,0.0,0.0,0.0,0.0,0.0,0.0,0.0,0.0,0.0,0.0,0.0,0.0,0.0,0.0,0.0,0.0,0.0,0.0,0.0,0.0,0.0,0.0,0.0,0.0,0.0,0.0,0.0,0.0,0.0,0.0,0.0,0.0,0.0,0.0,0.0,0.0,0.0,0.0,0.0,0.0,0.0,0.0,0.0,0.0,0.0,0.0,0.0,0.0,0.0,0.0,0.0,0.0,0.0,0.0,0.0,0.0,0.0,1.0712,1.2554,1.3976,1.515,1.5967,1.6317,0.0,0.0,0.0,0.0,0.0,0.0,0.0,0.0,0.0,0.0,0.0,0.0,0.0,0.0,0.0,0.0,0.0,0.0,0.0,0.0,0.0,0.0,0.0,0.0,0.0,0.0,0.0,0.0,0.0,0.0,0.0,0.0,0.0,0.0,0.0,0.0,0.0,0.0,0.0,0.0,0.0,0.0,0.0,0.0,0.0,0.0,0.0,0.0,0.0,0.0,0.0,0.0,0.0,0.0,0.0,0.0,0.0,0.0,0.0,0.0,0.0,0.0,0.0,0.0,0.0,0.0,0.0,0.0,0.0,0.0,0.0,0.0,0.0,0.0,0.0,0.0,0.0,0.0,0.0,0.0,0.0,0.0,0.0,0.0,0.0,0.0,0.0,0.0,0.0,0.0,0.0,0.0,0.0,0.0,0.0,0.0,0.0,0.0,0.0,0.0,0.0,0.0,0.0,0.0,0.0,0.0,0.0,0.0,0.0,1.2439,1.3729,1.4858,1.5784,1.6494,1.6894,0.0,0.0,0.0,0.0,0.0,0.0,0.0,0.0,0.0,0.0,0.0,0.0,0.0,0.0,0.0,0.0,0.0,0.0,0.0,0.0,0.0,0.0,0.0,0.0,0.0,0.0,0.0,0.0,0.0,0.0,0.0,0.0,0.0,0.0,0.0,0.0,0.0,0.0,0.0,0.0,0.0,0.0,0.0,0.0,0.0,0.0,0.0,0.0,0.0,0.0,0.0,0.0,0.0,0.0,0.0,0.0,0.0,0.0,0.0,0.0,0.0,0.0,0.0,0.0,0.0,0.0,0.0,0.0,0.0,0.0,0.0,0.0,0.0,0.0,0.0,0.0,0.0,0.0,0.0,0.0,0.0,0.0,0.0,0.0,0.0,0.0,0.0,0.0,0.0,0.0,0.0,0.0,0.0,0.0,0.0,0.0,0.0,0.0,0.0,0.0,0.0,0.0,0.0,0.0,0.0,0.0,0.0,0.0,0.0,1.5593,1.6181,1.7083,1.8253,1.844,1.8536,1.8517,0.0,0.0,0.0,0.0,0.0,0.0,0.0,0.0,0.0,0.0,0.0,0.0,0.0,0.0,0.0,0.0,0.0,0.0,0.0,0.0,0.0,0.0,0.0,0.0,0.0,0.0,0.0,0.0,0.0,0.0,0.0,0.0,0.0,0.0,0.0,0.0,0.0,0.0,0.0,0.0,0.0,0.0,0.0,0.0,0.0,0.0,0.0,0.0,0.0,0.0,0.0,0.0,0.0,0.0,0.0,0.0,0.0,0.0,0.0,0.0,0.0,0.0,0.0,0.0,0.0,0.0,0.0,0.0,0.0,0.0,0.0,0.0,0.0,0.0,0.0,0.0,0.0,0.0,0.0,0.0,0.0,0.0,0.0,0.0,0.0,0.0,0.0,0.0,0.0,0.0,0.0,0.0,0.0,0.0,0.0,0.0,0.0,0.0,0.0,0.0,0.0,0.0,0.0,0.0,0.0,0.0,0.0,0.0,1.9724,1.9669,2.0349,2.1826,2.1409,2.0919,0.0,0.0,0.0,0.0,0.0,0.0,0.0,0.0,0.0,0.0,0.0,0.0,0.0,0.0,0.0,0.0,0.0,0.0,0.0,0.0,0.0,0.0,0.0,0.0,0.0,0.0,0.0,0.0,0.0,0.0,0.0,0.0,0.0,0.0,0.0,0.0,0.0,0.0,0.0,0.0,0.0,0.0,0.0,0.0,0.0,0.0,0.0,0.0,0.0,0.0,0.0,0.0,0.0,0.0,0.0,0.0,0.0,0.0,0.0,0.0,0.0,0.0,0.0,0.0,0.0,0.0,0.0,0.0,0.0,0.0,0.0,0.0,0.0,0.0,0.0,0.0,0.0,0.0,0.0,0.0,0.0,0.0,0.0,0.0,0.0,0.0,0.0,0.0,0.0,0.0,0.0,0.0,0.0,0.0,0.0,0.0,0.0,0.0,0.0,0.0,0.0,0.0,0.0,0.0,0.0,0.0,0.0,0.0,0.0,2.1304,2.2283,2.2652,2.2369,2.2345,2.2007,0.0,0.0,0.0,0.0,0.0,0.0,0.0,0.0,0.0,0.0,0.0,0.0,0.0,0.0,0.0,0.0,0.0,0.0,0.0,0.0,0.0,0.0,0.0,0.0,0.0,0.0,0.0,0.0,0.0,0.0,0.0,0.0,0.0,0.0,0.0,0.0,0.0,0.0,0.0,0.0,0.0,0.0,0.0,0.0,0.0,0.0,0.0,0.0,0.0,0.0,0.0,0.0,0.0,0.0,0.0,0.0,0.0,0.0,0.0,0.0,0.0,0.0,0.0,0.0,0.0,0.0,0.0,0.0,0.0,0.0,0.0,0.0,0.0,0.0,0.0,0.0,0.0,0.0,0.0,0.0,0.0,0.0,0.0,0.0,0.0,0.0,0.0,0.0,0.0,0.0,0.0,0.0,0.0,0.0,0.0,0.0,0.0,0.0,0.0,0.0,0.0,0.0,0.0,0.0,0.0,0.0,0.0,0.0,2.0916,2.2767,2.4035,2.4399,2.3859,2.3597,2.3089,0.0,0.0,0.0,0.0,0.0,0.0,0.0,0.0,0.0,0.0,0.0,0.0,0.0,0.0,0.0,0.0,0.0,0.0,0.0,0.0,0.0,0.0,0.0,0.0,0.0,0.0,0.0,0.0,0.0,0.0,0.0,0.0,0.0,0.0,0.0,0.0,0.0,0.0,0.0,0.0,0.0,0.0,0.0,0.0,0.0,0.0,0.0,0.0,0.0,0.0,0.0,0.0,0.0,0.0,0.0,0.0,0.0,0.0,0.0,0.0,0.0,0.0,0.0,0.0,0.0,0.0,0.0,0.0,0.0,0.0,0.0,0.0,0.0,0.0,0.0,0.0,0.0,0.0,0.0,0.0,0.0,0.0,0.0,0.0,0.0,0.0,0.0,0.0,0.0,0.0,0.0,0.0,0.0,0.0,0.0,0.0,0.0,0.0,0.0,0.0,0.0,0.0,0.0,0.0,0.0,0.0,0.0,0.0,2.2584,2.3909,2.5021,2.5616,2.5664,2.4855,2.4041,0.0,0.0,0.0,0.0,0.0,0.0,0.0,0.0,0.0,0.0,0.0,0.0,0.0,0.0,0.0,0.0,0.0,0.0,0.0,0.0,0.0,0.0,0.0,0.0,0.0,0.0,0.0,0.0,0.0,0.0,0.0,0.0,0.0,0.0,0.0,0.0,0.0,0.0,0.0,0.0,0.0,0.0,0.0,0.0,0.0,0.0,0.0,0.0,0.0,0.0,0.0,0.0,0.0,0.0,0.0,0.0,0.0,0.0,0.0,0.0,0.0,0.0,0.0,0.0,0.0,0.0,0.0,0.0,0.0,0.0,0.0,0.0,0.0,0.0,0.0,0.0,0.0,0.0,0.0,0.0,0.0,0.0,0.0,0.0,0.0,0.0,0.0,0.0,0.0,0.0,0.0,0.0,0.0,0.0,0.0,0.0,0.0,0.0,0.0,0.0,0.0,0.0,0.0,0.0,0.0,0.0,0.0,0.0,2.2949,2.4111,2.5144,2.5703,2.5703,2.55,2.4669,0.0,0.0,0.0,0.0,0.0,0.0,0.0,0.0,0.0,0.0,0.0,0.0,0.0,0.0,0.0,0.0,0.0,0.0,0.0,0.0,0.0,0.0,0.0,0.0,0.0,0.0,0.0,0.0,0.0,0.0,0.0,0.0,0.0,0.0,0.0,0.0,0.0,0.0,0.0,0.0,0.0,0.0,0.0,0.0,0.0,0.0,0.0,0.0,1.7818,0.0,0.0,0.0,0.0,0.0,0.0,0.0,0.0,0.0,0.0,0.0,0.0,0.0,0.0,0.0,0.0,0.0,0.0,0.0,0.0,0.0,0.0,0.0,0.0,0.0,0.0,0.0,0.0,0.0,0.0,0.0,0.0,0.0,0.0,0.0,0.0,0.0,0.0,0.0,0.0,0.0,0.0,0.0,0.0,0.0,0.0,0.0,0.0,0.0,0.0,0.0,0.0,0.0,0.0,0.0,0.0,0.0,0.0,0.0,2.3361,2.4811,2.5426,2.5703,2.5703,2.5701,2.5072,0.0,0.0,0.0,0.0,0.0,0.0,0.0,0.0,0.0,0.0,0.0,0.0,0.0,0.0,0.0,0.0,0.0,0.0,0.0,0.0,0.0,0.0,0.0,0.0,0.0,0.0,0.0,0.0,0.0,0.0,0.0,0.0,0.0,0.0,0.0,0.0,0.0,0.0,0.0,0.0,0.0,0.0,0.0,0.0,0.0,0.0,0.0,0.0,0.0,0.0,0.0,0.0,0.0,0.0,0.0,0.0,0.0,0.0,0.0,0.0,0.0,0.0,0.0,0.0,0.0,0.0,0.0,0.0,0.0,0.0,0.0,0.0,0.0,0.0,0.0,0.0,0.0,0.0,0.0,0.0,0.0,0.0,0.0,0.0,0.0,0.0,0.0,0.0,0.0,0.0,0.0,0.0,0.0,0.0,0.0,0.0,0.0,0.0,0.0,0.0,0.0,0.0,0.0,0.0,0.0,0.0,0.0,2.2814,2.3879,2.5529,2.5662,2.5703,2.5703,2.5703,2.527,2.4401,0.0,0.0,0.0,0.0,0.0,0.0,0.0,0.0,0.0,0.0,0.0,0.0,0.0,0.0,0.0,0.0,0.0,0.0,0.0,0.0,0.0,0.0,0.0,0.0,0.0,0.0,0.0,0.0,0.0,0.0,0.0,0.0,0.0,0.0,0.0,0.0,0.0,0.0,1.815,1.8422,0.0,0.0,0.0,0.0,0.0,0.0,0.0,0.0,2.2009,0.0,0.0,0.0,0.0,0.0,0.0,0.0,0.0,0.0,0.0,0.0,0.0,0.0,0.0,0.0,0.0,0.0,0.0,0.0,0.0,0.0,0.0,0.0,0.0,0.0,0.0,0.0,0.0,0.0,0.0,0.0,0.0,0.0,0.0,0.0,0.0,0.0,0.0,0.0,0.0,0.0,0.0,0.0,0.0,0.0,0.0,0.0,0.0,0.0,0.0,0.0,0.0,0.0,0.0,0.0,0.0,2.2633,2.3565,2.4576,2.5663,2.5703,2.5703,2.5703,2.5703,2.5309,2.444,0.0,0.0,0.0,0.0,0.0,0.0,0.0,0.0,0.0,0.0,0.0,0.0,0.0,0.0,0.0,0.0,0.0,0.0,0.0,0.0,0.0,0.0,0.0,0.0,0.0,0.0,0.0,0.0,0.0,0.0,0.0,0.0,0.0,0.0,0.0,0.0,0.0,0.0,0.0,2.1159,2.2049,0.0,0.0,0.0,0.0,0.0,0.0,0.0,0.0,2.2796,0.0,0.0,0.0,0.0,0.0,0.0,0.0,0.0,0.0,0.0,0.0,0.0,0.0,0.0,0.0,0.0,0.0,0.0,0.0,0.0,0.0,0.0,0.0,0.0,0.0,0.0,0.0,0.0,0.0,0.0,0.0,0.0,0.0,0.0,0.0,0.0,0.0,0.0,0.0,0.0,0.0,0.0,0.0,0.0,0.0,0.0,0.0,0.0,0.0,0.0,0.0,0.0,0.0,0.0,0.0,2.2757,2.3813,2.4792,2.5664,2.5703,2.5703,2.5703,2.5703,2.5075,0.0,0.0,0.0,0.0,0.0,0.0,0.0,0.0,0.0,0.0,0.0,0.0,0.0,0.0,0.0,0.0,0.0,0.0,0.0,0.0,0.0,0.0,0.0,0.0,0.0,0.0,0.0,0.0,0.0,0.0,0.0,0.0,0.0,0.0,0.0,0.0,0.0,0.0,0.0,0.0,2.2714,2.3033,2.3457,0.0,0.0,0.0,0.0,0.0,0.0,2.4378,2.4314,0.0,0.0,0.0,0.0,0.0,0.0,0.0,0.0,0.0,0.0,0.0,0.0,0.0,0.0,0.0,0.0,0.0,0.0,0.0,0.0,0.0,0.0,0.0,0.0,0.0,0.0,0.0,0.0,0.0,0.0,0.0,0.0,0.0,0.0,0.0,0.0,0.0,0.0,0.0,0.0,0.0,0.0,0.0,0.0,0.0,0.0,0.0,0.0,0.0,0.0,0.0,0.0,0.0,0.0,0.0,2.2918,2.427,2.5269,2.5937,2.5937,2.5977,2.5937,2.5781,2.4878,0.0,0.0,0.0,0.0,0.0,0.0,0.0,0.0,0.0,0.0,0.0,0.0,0.0,0.0,0.0,0.0,0.0,0.0,0.0,0.0,0.0,0.0,0.0,0.0,0.0,0.0,0.0,0.0,0.0,0.0,0.0,0.0,0.0,0.0,0.0,0.0,0.0,0.0,0.0,0.0,0.0,2.4027,2.4921,2.438,0.0,0.0,0.0,0.0,2.5835,2.6151,0.0,0.0,0.0,0.0,0.0,0.0,0.0,0.0,0.0,0.0,0.0,0.0,0.0,0.0,0.0,0.0,0.0,0.0,0.0,0.0,0.0,0.0,0.0,0.0,0.0,0.0,0.0,0.0,0.0,0.0,0.0,0.0,0.0,0.0,0.0,0.0,0.0,0.0,0.0,0.0,0.0,0.0,0.0,0.0,0.0,0.0,0.0,0.0,0.0,0.0,0.0,0.0,0.0,0.0,0.0,0.0,2.3063,2.5448,2.6754,2.6836,2.6836,2.6836,2.6836,2.6092,2.4877,0.0,0.0,0.0,0.0,0.0,0.0,0.0,0.0,0.0,0.0,0.0,0.0,0.0,0.0,0.0,0.0,0.0,0.0,0.0,0.0,0.0,0.0,0.0,0.0,0.0,0.0,0.0,0.0,0.0,0.0,0.0,0.0,0.0,0.0,0.0,0.0,0.0,0.0,0.0,0.0,0.0,2.6734,2.7551,2.7598,2.7564,0.0,0.0,2.767,2.7787,2.8437,0.0,0.0,0.0,0.0,0.0,0.0,0.0,0.0,0.0,0.0,0.0,0.0,0.0,0.0,0.0,0.0,0.0,0.0,0.0,0.0,0.0,0.0,0.0,0.0,0.0,0.0,0.0,0.0,0.0,0.0,0.0,0.0,0.0,0.0,0.0,0.0,0.0,0.0,0.0,0.0,0.0,0.0,0.0,0.0,0.0,0.0,0.0,0.0,0.0,0.0,0.0,0.0,0.0,0.0,0.0,2.3412,2.4531,2.6164,2.7226,2.7734,2.7734,2.75,2.6992,2.6639,2.5384,0.0,0.0,0.0,0.0,0.0,0.0,0.0,0.0,0.0,0.0,0.0,0.0,0.0,0.0,0.0,0.0,0.0,0.0,0.0,0.0,0.0,0.0,0.0,0.0,0.0,0.0,0.0,0.0,0.0,0.0,0.0,0.0,0.0,0.0,0.0,0.0,0.0,0.0,0.0,0.0,0.0,0.0,2.8234,2.862,0.0,0.0,0.0,2.9307,3.0235,0.0,0.0,0.0,0.0,0.0,0.0,0.0,0.0,0.0,0.0,0.0,0.0,0.0,0.0,0.0,0.0,0.0,0.0,0.0,0.0,0.0,0.0,0.0,0.0,0.0,0.0,0.0,0.0,0.0,0.0,0.0,0.0,0.0,0.0,0.0,0.0,0.0,0.0,0.0,0.0,0.0,0.0,0.0,0.0,0.0,0.0,0.0,0.0,0.0,0.0,0.0,0.0,0.0,0.0,0.0,0.0,0.0,2.5683,2.6719,2.7692,2.8594,2.8593,2.8202,2.7344,2.7108,0.0,0.0,0.0,0.0,0.0,0.0,0.0,0.0,0.0,0.0,0.0,0.0,0.0,0.0,0.0,0.0,0.0,0.0,0.0,0.0,0.0,0.0,0.0,0.0,0.0,0.0,0.0,0.0,0.0,0.0,0.0,0.0,0.0,0.0,0.0,0.0,0.0,0.0,0.0,0.0,0.0,0.0,2.9714,2.9592,3.0096,3.049,0.0,0.0,3.0973,3.2217,3.1559,3.0937,0.0,0.0,0.0,0.0,0.0,0.0,0.0,0.0,0.0,0.0,0.0,0.0,0.0,0.0,0.0,0.0,0.0,0.0,0.0,0.0,0.0,0.0,0.0,0.0,0.0,0.0,0.0,0.0,0.0,0.0,0.0,0.0,0.0,0.0,0.0,0.0,0.0,0.0,0.0,0.0,0.0,0.0,0.0,0.0,0.0,0.0,0.0,0.0,0.0,0.0,0.0,0.0,0.0,0.0,0.0,2.566,2.7231,2.8512,2.9492,2.9442,2.9051,2.8242,2.7421,2.6168,0.0,0.0,0.0,0.0,0.0,0.0,0.0,0.0,0.0,0.0,0.0,0.0,0.0,0.0,0.0,0.0,0.0,0.0,0.0,0.0,0.0,0.0,0.0,0.0,0.0,0.0,0.0,0.0,0.0,0.0,0.0,0.0,0.0,0.0,0.0,0.0,0.0,0.0,0.0,0.0,0.0,3.1307,3.2838,3.308,3.3162,0.0,0.0,3.3162,3.3319,3.3906,3.3828,3.2265,0.0,0.0,0.0,0.0,0.0,0.0,0.0,0.0,0.0,0.0,0.0,0.0,0.0,0.0,0.0,0.0,0.0,0.0,0.0,0.0,0.0,0.0,0.0,0.0,0.0,0.0,0.0,0.0,0.0,0.0,0.0,0.0,0.0,0.0,0.0,0.0,0.0,0.0,0.0,0.0,0.0,0.0,0.0,0.0,0.0,0.0,0.0,0.0,0.0,0.0,0.0,0.0,0.0,2.4883,2.7183,2.7792,2.8801,3.0222,3.0253,2.987,2.9141,2.8242,2.6989,0.0,0.0,0.0,0.0,0.0,0.0,0.0,0.0,0.0,0.0,0.0,0.0,0.0,0.0,0.0,0.0,0.0,0.0,0.0,0.0,0.0,0.0,0.0,0.0,0.0,0.0,0.0,0.0,1.7871,1.8022,1.8682,0.0,0.0,0.0,0.0,0.0,0.0,0.0,0.0,0.0,0.0,3.4051,3.4213,3.5116,0.0,0.0,3.582,3.5976,3.6523,3.5976,3.5272,3.4603,3.3624,0.0,0.0,0.0,0.0,0.0,0.0,0.0,0.0,0.0,0.0,0.0,0.0,0.0,0.0,0.0,0.0,0.0,0.0,0.0,0.0,0.0,0.0,0.0,0.0,0.0,0.0,0.0,0.0,0.0,0.0,0.0,0.0,0.0,0.0,0.0,0.0,0.0,0.0,0.0,0.0,0.0,0.0,0.0,0.0,0.0,0.0,0.0,0.0,0.0,0.0,0.0,0.0,2.5539,2.8173,2.8088,2.8907,3.0675,3.0663,3.0329,2.9609,2.875,2.7615,0.0,0.0,0.0,0.0,0.0,0.0,0.0,0.0,0.0,0.0,0.0,0.0,0.0,0.0,0.0,0.0,0.0,0.0,0.0,0.0,0.0,0.0,0.0,0.0,0.0,0.0,0.0,0.0,1.9772,1.9981,2.0641,0.0,0.0,0.0,0.0,0.0,0.0,0.0,0.0,0.0,0.0,3.597,3.5897,3.6914,3.7695,3.7695,3.7695,3.789,3.8513,3.7574,3.6597,3.6085,0.0,0.0,0.0,0.0,0.0,0.0,0.0,0.0,0.0,0.0,0.0,0.0,0.0,0.0,0.0,0.0,0.0,0.0,0.0,0.0,0.0,0.0,0.0,0.0,0.0,0.0,0.0,0.0,0.0,0.0,2.2642,0.0,0.0,0.0,0.0,0.0,0.0,0.0,0.0,0.0,0.0,0.0,0.0,0.0,0.0,0.0,0.0,0.0,0.0,0.0,0.0,0.0,0.0,0.0,2.8145,2.8066,2.883,3.0629,3.0624,3.0299,2.9648,2.875,2.789,2.695,0.0,0.0,0.0,0.0,0.0,0.0,0.0,0.0,0.0,0.0,0.0,0.0,0.0,0.0,0.0,0.0,0.0,0.0,0.0,0.0,0.0,0.0,0.0,0.0,0.0,0.0,2.2334,2.1952,2.1659,0.0,0.0,0.0,0.0,0.0,0.0,0.0,0.0,0.0,0.0,3.5965,3.6638,3.828,3.8554,3.8711,3.867,3.8631,3.863,3.8705,3.8622,3.7956,0.0,0.0,0.0,0.0,0.0,0.0,0.0,0.0,0.0,0.0,0.0,0.0,0.0,0.0,0.0,0.0,0.0,0.0,0.0,0.0,0.0,0.0,0.0,0.0,0.0,0.0,0.0,2.7697,2.738,0.0,0.0,0.0,0.0,0.0,0.0,0.0,0.0,0.0,0.0,0.0,2.7539,2.8125,0.0,0.0,0.0,0.0,0.0,0.0,0.0,0.0,0.0,0.0,0.0,0.0,2.6931,2.8819,2.8772,2.9279,3.0503,3.0571,3.0511,3.0338,2.9568,2.8203,2.6208,0.0,0.0,0.0,0.0,0.0,0.0,0.0,0.0,0.0,0.0,0.0,0.0,0.0,0.0,0.0,0.0,0.0,0.0,0.0,0.0,0.0,0.0,0.0,0.0,0.0,2.3098,0.0,0.0,0.0,0.0,0.0,0.0,0.0,0.0,0.0,0.0,0.0,3.4042,3.5775,3.7967,3.9609,4.0193,4.1247,4.1989,0.0,0.0,0.0,0.0,0.0,0.0,0.0,0.0,0.0,0.0,0.0,0.0,0.0,0.0,3.4152,3.1101,3.0052,2.9808,3.0326,0.0,0.0,0.0,0.0,0.0,0.0,0.0,0.0,0.0,0.0,0.0,0.0,0.0,0.0,3.0093,0.0,2.9238,0.0,0.0,0.0,0.0,0.0,0.0,0.0,0.0,2.9759,3.0186,3.0174,3.0715,3.0544,0.0,2.9432,2.781,0.0,0.0,0.0,0.0,0.0,0.0,0.0,0.0,2.8052,2.9623,2.962,3.0155,3.1283,3.1165,3.1059,3.1139,3.0152,2.8515,2.621,2.5619,2.4745,0.0,0.0,0.0,0.0,0.0,0.0,0.0,0.0,0.0,0.0,0.0,0.0,0.0,0.0,0.0,0.0,0.0,0.0,0.0,0.0,0.0,0.0,0.0,2.5708,0.0,0.0,0.0,0.0,0.0,0.0,0.0,0.0,0.0,3.2732,3.4355,3.6128,3.7578,3.9687,4.1326,4.1902,0.0,0.0,0.0,0.0,0.0,0.0,0.0,4.3049,4.2712,4.2459,4.2119,4.1815,4.1633,4.1267,4.0422,0.0,0.0,3.4262,3.2838,3.2374,3.2896,3.3692,3.4513,3.5287,3.5895,3.6395,0.0,0.0,0.0,0.0,0.0,0.0,0.0,0.0,3.2035,3.2032,0.0,3.1049,0.0,0.0,0.0,0.0,0.0,3.0576,0.0,0.0,3.155,3.2015,3.2011,3.21,3.1644,3.087,3.1598,3.1034,2.9301,2.6874,0.0,0.0,0.0,0.0,0.0,0.0,2.8946,3.0467,3.0519,3.1301,3.289,3.2251,3.1895,3.1989,3.0463,2.8867,2.7226,2.7069,2.6245,2.4638,2.4402,0.0,0.0,0.0,0.0,0.0,0.0,0.0,0.0,0.0,0.0,0.0,0.0,0.0,0.0,0.0,0.0,0.0,0.0,0.0,0.0,2.7045,0.0,0.0,0.0,0.0,0.0,0.0,0.0,0.0,0.0,0.0,3.6204,3.6911,3.8281,4.0778,0.0,0.0,0.0,0.0,4.3839,4.3843,4.3782,4.376,4.3728,4.434,4.454,4.3729,0.0,0.0,4.3614,4.342,4.3125,4.2278,4.2163,4.1,3.7822,3.6382,3.5701,3.5701,3.6367,3.7123,3.7892,3.8238,3.8507,3.7969,0.0,0.0,0.0,0.0,3.5295,3.5364,3.5214,3.582,3.5637,3.4815,3.3946,0.0,0.0,0.0,0.0,0.0,0.0,3.3661,3.3418,3.4323,3.4742,3.4721,3.5339,3.5307,3.4719,3.3673,3.2761,3.1919,3.002,2.8639,2.7765,0.0,0.0,0.0,0.0,3.0302,3.1311,3.1894,3.2448,3.2914,3.2743,3.2742,3.2888,3.1261,3.0185,2.9805,2.8594,2.7694,2.7179,2.5998,0.0,0.0,0.0,0.0,0.0,0.0,0.0,0.0,0.0,0.0,0.0,0.0,0.0,0.0,0.0,0.0,0.0,0.0,0.0,2.7179,2.8372,2.9296,0.0,0.0,0.0,0.0,0.0,0.0,0.0,0.0,0.0,4.1064,4.0001,3.9815,0.0,0.0,4.4195,4.5248,4.5896,4.647,4.7034,0.0,0.0,0.0,4.7171,4.7243,4.6991,4.7076,4.7094,4.6847,4.6736,4.663,4.6313,4.5843,4.5103,4.4111,4.1262,3.9253,3.9138,3.9746,4.0385,4.0662,4.12,4.1662,4.0809,3.8146,3.7564,3.7276,3.7301,3.7805,3.7917,3.7721,3.7895,3.7762,3.7386,3.652,3.5884,3.5382,3.487,0.0,0.0,0.0,3.6324,3.5961,3.6873,3.7133,3.6862,3.7314,3.7251,3.666,3.5581,3.4764,3.4167,3.314,3.2036,3.0854,0.0,0.0,3.0866,3.1288,3.1873,3.2694,3.3147,3.359,3.393,3.3683,3.3395,3.3164,3.2242,3.1613,3.1321,3.039,2.9531,2.8825,2.7806,2.6698,0.0,0.0,0.0,0.0,0.0,0.0,0.0,0.0,0.0,0.0,0.0,2.0858,0.0,0.0,0.0,0.0,2.6082,2.7977,2.9138,3.0272,0.0,0.0,0.0,0.0,0.0,0.0,0.0,3.9685,4.105,4.249,4.4088,4.3397,4.3082,4.4098,4.5165,4.6126,4.6921,0.0,4.7911,4.8394,4.8444,4.8392,4.8378,4.8638,4.8926,4.9255,4.8934,4.8707,4.8668,4.8392,4.8125,4.8038,4.7702,4.7385,4.7394,4.5201,4.3132,4.2247,4.2431,4.2777,4.2777,4.2864,4.2946,4.2868,4.2042,4.0476,3.9826,3.9796,3.9876,3.9795,3.9588,3.8888,3.8951,3.9552,3.8701,3.8314,3.8227,3.824,0.0,3.5797,3.8374,3.9035,3.8181,3.9164,3.9214,3.8512,3.8512,3.816,3.748,3.7329,3.6851,3.612,3.6017,3.5751,3.5242,3.329,3.2648,3.3156,3.3191,3.3521,3.4154,3.425,3.4699,3.5462,3.4786,3.4012,3.3253,3.329,3.2886,3.2149,3.2065,3.1367,2.9805,2.9567,2.8428,2.6079,0.0,0.0,0.0,0.0,0.0,0.0,0.0,0.0,0.0,0.0,0.0,0.0,0.0,0.0,0.0,2.8865,0.0,3.1092,3.2454,0.0,0.0,0.0,3.6447,3.7381,3.8857,4.05,4.226,0.0,0.0,4.5859,0.0,4.7319,4.7436,4.7367,4.76,4.8367,4.8496,4.849,4.866,4.8616,4.8578,4.8701,4.9161,4.9812,5.0433,5.001,4.9519,4.9481,4.8942,4.8394,4.8432,4.8317,4.8317,4.8317,4.8202,4.7577,4.5089,4.4645,4.4624,4.4615,4.3905,4.3448,4.38,4.3456,4.1914,4.1344,4.148,4.2134,4.1906,4.1138,4.1526,4.1332,4.0649,3.9852,3.9136,3.8619,3.9217,3.9245,3.8854,4.013,4.0572,4.0357,4.0619,4.0628,4.0428,4.0443,4.0481,4.0453,3.9245,3.8627,3.8568,3.7385,3.6793,3.6757,3.6263,3.5323,3.3999,3.4514,3.459,3.4134,3.4773,3.5242,3.55,3.5303,3.5115,3.5,3.3852,3.3156,3.2968,3.1831,3.1016,3.0586,2.9961,2.9256,2.8623,2.7945,0.0,0.0,0.0,0.0,0.0,0.0,0.0,0.0,0.0,2.5021,2.5763,0.0,2.757,0.0,2.9897,3.1481,3.3339,3.3916,0.0,0.0,3.7976,3.9471,4.1552,4.2105,4.3227,4.5546,4.5951,4.6684,4.8403,4.8789,4.9174,4.9753,4.8825,4.8421,4.9181,4.9266,4.9465,4.9963,5.0073,5.0153,5.0076,5.0288,5.0462,5.0673,5.0519,5.0404,5.0404,5.024,5.0087,5.0096,5.0096,5.0087,5.001,5.0087,4.9498,4.8105,4.7432,4.7201,4.7192,4.6661,4.615,4.4067,4.3996,4.3147,4.2837,4.2873,4.2684,4.2252,4.1719,4.2156,4.2014,4.1396,4.1214,4.0839,4.0361,4.1148,4.1295,4.1038,4.1809,4.2176,4.2176,4.2176,4.1992,4.1645,4.1662,4.1556,4.1369,4.0451,4.0073,4.0146,3.9327,3.8812,3.8662,3.8625,3.7764,3.6106,3.6288,3.619,3.5776,3.6228,3.6541,3.6577,3.6231,3.6061,3.6089,3.4947,3.3952,3.327,3.2436,3.1634,3.0894,3.0387,2.9919,2.9531,2.9023,2.8588,0.0,0.0,0.0,0.0,0.0,0.0,0.0,0.0,0.0,0.0,0.0,3.0368,3.1577,3.3112,3.4606,3.5955,3.675,3.792,3.9655,4.0623,4.1996,4.409,4.4623,4.5517,4.7259,4.7803,4.8392,4.9316,4.9787,5.0202,5.0635,4.9949,4.9577,4.9975,5.0064,5.02,5.0635,5.0683,5.0702,5.0702,5.0702,5.0702,5.0702,5.0702,5.0702,5.0702,5.0702,5.0702,5.0702,5.0702,5.0702,5.0702,5.0525,5.0156,4.9598,4.9055,4.8468,4.777,4.729,4.6852,4.391,4.391,4.3827,4.3769,4.3687,4.2396,4.1907,4.1952,4.1846,4.181,4.1853,4.2458,4.2577,4.2404,4.315,4.313,4.2506,4.3167,4.3497,4.3497,4.3497,4.3147,4.247,4.247,4.2066,4.1425,4.1279,4.1242,4.1242,4.1132,4.0883,4.0448,4.0425,3.9818,3.8587,3.8226,3.7993,3.7802,3.7854,3.7924,3.7969,3.7238,3.6829,3.6754,3.6079,3.4935,3.3413,3.3358,3.2698,3.1223,3.1145,3.0716,2.9854,2.9788,2.9481,0.0,2.8668,0.0,0.0,0.0,0.0,0.0,0.0,0.0,0.0,3.1712,3.3397,3.4908,3.7249,3.8723,3.8819,4.023,4.1549,4.2463,4.3212,4.4306,4.5873,4.6778,4.7548,4.8355,4.9125,4.9548,4.9625,5.024,5.0673,5.0673,5.0635,5.0568,5.0673,5.0635,5.0635,5.0702,5.0702,5.0702,5.0702,5.0702,5.0702,5.0702,5.0702,5.0702,5.0702,5.0702,5.0702,5.0702,5.0702,5.0702,5.0702,5.0369,5.0111,4.9961,4.9573,4.8947,4.7815,4.723,4.6722,4.3515,4.3473,4.2859,4.262,4.2612,4.2339,4.2421,4.2638,4.2058,4.181,4.1853,4.2458,4.2659,4.2684,4.323,4.3441,4.3294,4.3441,4.3497,4.3497,4.3497,4.3424,4.3294,4.3294,4.3204,4.302,4.2396,4.2066,4.2066,4.1425,4.1098,4.1102,4.1117,4.0718,4.0029,0.0,0.0,0.0,3.7894,3.8,3.8007,3.7853,3.7445,3.6825,3.6046,0.0,3.4227,3.3625,3.3164,3.2854,3.2813,0.0,0.0,0.0,0.0,0.0,0.0,0.0,0.0,0.0,0.0,0.0,3.5845,3.5659,3.375,3.5659,3.739,3.8344,4.0113,4.1475,4.214,4.3011,4.4234,4.5757,4.6103,4.6864,4.8471,4.8817,4.9279,5.0096,5.0356,5.0442,5.0442,5.0596,5.0712,5.075,5.0702,5.0702,5.075,5.075,5.0702,5.0702,5.0789,5.0741,5.0702,5.0741,5.0779,5.0702,5.0702,5.0702,5.0702,5.0702,5.0702,5.0702,5.0702,5.0702,5.0654,5.0369,4.9949,4.9659,4.9295,4.9033,4.8987,4.8684,4.8245,4.3978,0.0,4.3572,4.343,0.0,4.3031,4.2961,4.3089,4.2351,4.2021,4.1958,4.2157,4.2402,4.2713,4.325,4.3497,4.3497,4.3497,4.3497,4.3497,4.3497,4.3497,4.3497,4.3497,4.3497,4.3461,4.3111,4.2873,4.2873,4.247,4.2136,4.1777,4.1777,4.1435,4.0799,4.1091,4.0509,3.8898,3.912,3.9254,3.92,3.8854,3.8445,3.8026,0.0,0.0,0.0,0.0,0.0,0.0,0.0,0.0,0.0,0.0,0.0,3.3751,3.3743,3.427,3.5476,3.5994,3.6616,3.7421,3.9432,3.9715,3.7622,3.9406,4.0759,4.1208,4.3096,4.4551,4.4932,4.5701,4.6701,4.7971,4.8125,4.8663,4.9779,5.0058,5.0202,5.0587,5.0702,5.0702,5.0702,5.0702,5.0894,5.1241,5.1279,5.1433,5.1741,5.1202,5.0827,5.1241,5.1702,5.1933,5.1895,5.151,5.1279,5.1279,5.0981,5.075,5.0702,5.0702,5.0634,5.0472,5.0391,5.0347,5.0123,4.9768,4.9445,4.9234,4.8898,4.8639,4.8864,4.8727,4.8493,4.4818,4.4784,4.4649,4.4581,4.4547,4.391,4.3606,4.3572,0.0,0.0,0.0,4.2076,4.2278,4.2793,4.3306,4.3538,4.3497,4.3497,4.3497,4.3497,4.3497,4.3497,4.3497,4.3497,4.3497,4.3497,4.3497,4.3497,4.3497,4.3497,4.3167,4.258,4.2506,4.2139,4.1417,4.1801,4.1465,4.0446,4.0584,4.0668,4.0477,3.9861,3.9453,3.9297,3.7969,3.6852,3.6057,3.5389,3.4714,3.4032,3.3994,3.4226,3.4801,3.4951,3.5372,3.6057,3.6195,3.6702,3.7617,3.8362,3.9252,4.0323,4.247,4.311,4.1593,4.2887,4.3855,4.397,4.6047,4.7355,4.7355,4.8086,4.8856,4.9548,4.9625,4.9904,5.0596,5.0702,5.0673,5.0712,5.0856,5.0933,5.0971,5.1087,5.1356,5.1972,5.2115,5.2346,5.2856,5.2049,5.151,5.2087,5.2626,5.3126,5.3087,5.2626,5.2154,5.2125,5.1625,5.1115,5.0883,5.0835,5.0604,5.0075,4.9987,4.9872,4.9561,4.9234,4.8895,4.8878,4.8586,4.8306,4.8306,4.8306,4.8325,4.5534,4.55,4.4886,4.4581,4.4581,4.4479,4.4445,4.4316,4.2895,4.2332,4.2302,4.2802,4.294,4.2874,4.3488,4.3668,4.3497,4.3497,4.3497,4.3497,4.3497,4.3497,4.3497,4.3497,4.3497,4.3497,4.3497,4.3497,4.3497,4.3497,4.3424,4.3314,4.3331,4.291,4.2173,4.1824,4.17,4.1779,4.1657,4.1231,4.0516,4.04,3.9992,3.9329,3.9105,3.8586,3.7771,3.7623,3.7514,3.7398,3.7398,3.7115,3.655,3.7128,3.7577,3.7704,3.8351,3.9461,4.0947,4.1208,4.2285,4.4517,4.574,4.5932,4.5026,4.5787,4.6663,4.7317,4.8355,4.9048,4.9125,4.9779,5.0279,5.0442,5.0519,5.0596,5.0702,5.0741,5.075,5.0741,5.1318,5.1731,5.1818,5.2318,5.2741,5.2972,5.3126,5.3126,5.3241,5.301,5.2895,5.301,5.3126,5.3203,5.3356,5.3164,5.301,5.301,5.2856,5.2333,5.1522,5.135,5.0912,4.9811,4.9717,4.957,4.9483,4.9171,4.8895,4.8847,4.8532,4.8306,4.8306,4.8306,4.8306,4.6278,4.621,4.55,4.5196,4.5162,4.4784,4.4581,4.4547,4.387,4.3301,4.2915,4.3124,4.3347,4.3545,4.3745,4.3956,4.4121,4.3681,4.3497,4.3497,4.3497,4.3497,4.3497,4.3497,4.3497,4.3497,4.3497,4.3497,4.3497,4.3497,4.3497,4.3497,4.3497,4.3331,4.2981,4.2928,4.2766,4.2486,4.2292,4.2103,4.1893,4.1893,4.1747,4.1339,4.0916,4.05,4.013,3.9629,3.9406,3.9406,3.9406,3.9437,3.953,3.9877,4.0292,4.0739,4.1123,4.2093,4.3739,4.4701,4.5701,4.6894,4.7778,4.8086,4.7702,4.8009,4.8394,4.8779,4.9586,5.0087,5.0087,5.0481,5.0702,5.0702,5.0702,5.0702,5.075,5.1125,5.1356,5.1433,5.2077,5.2615,5.2577,5.2972,5.3433,5.378,5.4241,5.4511,5.4549,5.4549,5.4395,5.4049,5.428,5.4549,5.4511,5.4164,5.3972,5.3895,5.351,5.3035,5.2395,5.2191,5.1496,5.0482,5.0018,4.9562,4.9081,4.8692,4.8604,4.855,4.8458,4.8306,4.8306,4.8306,4.8306,4.7056,4.6989,4.6244,4.5872,4.5669,4.5094,4.4784,4.4615,4.4581,4.4248,4.3722,4.3709,4.3965,4.4289,4.4354,4.4464,4.4582,4.4048,4.3662,4.3497,4.3497,4.3497,4.3497,4.3497,4.3497,4.3497,4.3497,4.3497,4.3497,4.3497,4.3497,4.3497,4.3497,4.3497,4.3515,4.3775,4.3615,4.3089,4.2913,4.283,4.2833,4.288,4.2842,4.2804,4.2283,4.1899,4.1807,4.1336,4.1069,4.0943,4.1022,4.1393,4.2047,4.2277,4.2662,4.3316,4.3739,4.4586,4.6047,4.7548,4.8394,4.8394,4.9202,4.9702,4.9663,4.9702,4.9702,4.9779,5.0279,5.0673,5.0664,5.0664,5.0702,5.0702,5.0904,5.101,5.1048,5.1702,5.2192,5.2269,5.2972,5.351,5.351,5.3664,5.4049,5.4703,5.5318,5.5665,5.5703,5.5703,5.5395,5.5126,5.528,5.5549,5.5665,5.5203,5.4818,5.478,5.4177,5.3617,5.3233,5.2806,5.2119,5.1029,5.0474,5.0008,4.91,4.8729,4.8712,4.8731,4.8509,4.8306,4.8306,4.8306,4.8196,4.777,4.7699,4.7022,4.6312,4.5737,4.5635,4.5229,4.4682,4.4615,4.4581,4.4501,4.5042,4.5187,4.5209,4.5645,4.5461,4.4783,4.4635,4.4195,4.3588,4.3497,4.3497,4.3497,4.3497,4.3497,4.3497,4.3497,4.3497,4.3497,4.3497,4.3497,4.3497,4.3497,4.3497,4.3515,4.3529,4.3656,4.3893,4.3871,4.3287,4.2158,4.2107,4.2107,4.2107,4.233,4.2292,4.2092,4.2575,4.2675,4.2402,4.2657,4.2885,4.3077,4.3654,4.4115,4.4269,4.5663,4.6962,4.7817,4.874,4.9279,4.9356,5.0048,5.0519,5.0558,5.0558,5.0558,5.0558,5.0635,5.0702,5.0702,5.0712,5.0789,5.0856,5.1395,5.1808,5.1885,5.2549,5.3087,5.3087,5.3818,5.4395,5.4434,5.4895,5.5357,5.5395,5.5665,5.5857,5.5857,5.5934,5.5934,5.5703,5.5742,5.5731,5.5703,5.5665,5.544,5.5429,5.5157,5.4421,5.3599,5.294,5.2211,5.1432,5.0855,5.0645,5.0421,5.0031,4.95,4.937,4.8967,4.8343,4.8343,4.8306,4.8103,4.8578,4.8477,4.7767,4.7022,4.6413,4.6346,4.594,4.5263,4.5229,4.4993,4.4699,4.5214,4.5641,4.5894,4.5721,4.5755,4.603,4.5131,4.4562,4.4158,4.3718,4.3497,4.3497,4.3497,4.3497,4.3497,4.3497,4.3497,4.3497,4.3497,4.3497,4.3497,4.3497,4.3497,4.3497,4.3497,4.3563,4.3693,4.3693,4.3442,4.3036,4.3305,4.3529,4.3542,4.3667,4.3679,4.3567,4.3836,4.3905,4.3751,4.3905,4.4227,4.4661,4.5004,4.5513,4.6171,4.754,4.8509,4.8856,4.9663,5.0164,5.0164,5.0481,5.0702,5.0702,5.0702,5.0702,5.0702,5.0702,5.0702,5.075,5.1125,5.1395,5.151,5.2164,5.2664,5.2692,5.3433,5.3972,5.401,5.4703,5.5203,5.5241,5.5472,5.5665,5.578,5.6088,5.6423,5.6472,5.6896,5.7203,5.722,5.7016,5.6482,5.5934,5.5458,5.5387,5.5301,5.5026,5.4413,5.4085,5.3593,5.294,5.1898,5.1627,5.143,5.1267,5.0822,5.0288,5.0105,4.9647,4.893,4.8416,4.8306,4.8103,4.9018,4.8917,4.8409,4.7767,4.7124,4.709,4.6684,4.6007,4.5805,4.5399,4.4948,4.5165,4.5597,4.6055,4.5881,4.6205,4.6681,4.581,4.5205,4.4966,4.4195,4.3845,4.3791,4.3571,4.3497,4.3497,4.3497,4.3497,4.3497,4.3497,4.3497,4.3497,4.3497,4.3497,4.3497,4.3497,4.3497,4.3515,4.3497,4.3497,4.3563,4.402,4.4313,4.4276,4.4373,4.4373,4.4327,4.4468,4.4559,4.4465,4.4546,4.4976,4.5741,4.5817,4.6352,4.7605,4.8541,4.9241,4.9545,5.0169,5.0594,5.0654,5.0702,5.0702,5.0702,5.0702,5.0702,5.0712,5.0894,5.1048,5.1087,5.1548,5.1962,5.2231,5.3038,5.3549,5.3626,5.4318,5.4818,5.4895,5.528,5.5703,5.5742,5.5895,5.6126,5.6214,5.6702,5.7155,5.717,5.7557,5.7826,5.7915,5.7558,5.7128,5.6318,5.5721,5.5379,5.5099,5.4859,5.4305,5.4272,5.3887,5.3569,5.2515,5.241,5.2275,5.2107,5.1646,5.0986,5.0729,5.0288,4.9738,4.9334,4.893,4.871,4.9018,4.8984,4.8984,4.8511,4.7838,4.7838,4.7462,4.6684,4.6075,4.5703,4.5534,4.501,4.4988,4.5597,4.6575,4.6873,4.6406,4.6681,4.647,4.5792,4.5039,4.4654,4.4599,4.3864,4.3515,4.3571,4.3515,4.3497,4.3497,4.3497,4.3497,4.3497,4.3497,4.3497,4.3497,4.3497,4.3497,4.3497,4.3497,4.3497,4.3515,4.3529,4.3597,4.3721,4.3902,4.3971,4.3788,4.4242,4.4438,4.4065,4.4421,4.4974,4.5714,4.5865,4.6646,4.7957,4.8263,4.8818,4.982,5.0097,5.0291,5.0604,5.0634,5.0702,5.0702,5.0702,5.075,5.0712,5.1375,5.17,5.1903,5.2105,5.2423,5.3077,5.3923,5.4336,5.4413,5.4973,5.5538,5.5544,5.5588,5.573,5.5748,5.6445,5.6763,5.6886,5.7251,5.7548,5.7544,5.7316,5.7311,5.7278,5.7229,5.7089,5.7291,5.6429,5.5778,5.5459,5.4845,5.3926,5.372,5.3526,5.3306,5.3178,5.3025,5.2931,5.2931,5.2491,5.172,5.1279,5.1022,5.0582,5.0141,4.9867,4.9574,4.9018,4.9018,4.9018,4.8849,4.8646,4.8612,4.8173,4.753,4.7259,4.6583,4.5771,4.5399,4.5196,4.4988,4.58,4.6493,4.693,4.6669,4.6586,4.6544,4.5847,4.548,4.5369,4.4635,4.4268,4.4195,4.3772,4.3497,4.3497,4.3497,4.3497,4.3497,4.3497,4.3497,4.3497,4.3497,4.3497,4.3497,4.3497,4.3497,4.3497,4.3497,4.3718,4.4232,4.437,4.4645,4.502,4.4814,4.4823,4.5173,4.4881,4.5259,4.652,4.7362,4.8006,4.8562,4.8905,4.9207,4.9635,4.97,4.9898,5.0241,5.0325,5.0451,5.0634,5.0712,5.0894,5.1355,5.1426,5.1882,5.295,5.3393,5.3664,5.4028,5.4526,5.4866,5.4867,5.4917,5.4919,5.4995,5.5337,5.5788,5.6141,5.6567,5.6905,5.699,5.7491,5.7867,5.7986,5.8157,5.8339,5.8435,5.8239,5.8128,5.8239,5.6983,5.5977,5.5678,5.517,5.4542,5.4133,5.3617,5.334,5.334,5.3298,5.3167,5.3057,5.2983,5.227,5.1867,5.1573,5.1389,5.0912,5.0618,5.0178,4.9018,4.9018,4.9018,4.9018,4.9018,4.9018,4.8714,4.824,4.7973,4.7297,4.6481,4.594,4.5399,4.501,4.5111,4.5775,4.6738,4.6615,4.6814,4.7119,4.6561,4.6287,4.614,4.548,4.4966,4.4599,4.3864,4.3497,4.3497,4.3497,4.3497,4.3497,4.3497,4.3497,4.3497,4.3497,4.3497,4.3497,4.3497,4.3497,4.3497,4.3497,4.4011,4.4929,4.5076,4.5333,4.5883,4.5369,4.5333,4.57,4.5149,4.5333,4.6654,4.7737,4.8432,4.8689,4.8928,4.9171,4.9295,4.9311,4.9475,4.9872,4.9911,5.0024,5.0302,5.0543,5.0952,5.1353,5.1904,5.2468,5.3397,5.4104,5.4484,5.4536,5.4737,5.4905,5.4914,5.4882,5.5044,5.5422,5.5837,5.6198,5.6505,5.6976,5.7255,5.7301,5.7893,5.8275,5.8388,5.8615,5.8951,5.8932,5.8561,5.8338,5.8306,5.739,5.6607,5.6282,5.569,5.5064,5.462,5.4032,5.3628,5.3534,5.3387,5.3277,5.3203,5.3203,5.2894,5.2454,5.238,5.227,5.183,5.1426,5.1022,4.9018,4.9018,4.9018,4.9018,4.9018,4.9018,4.8984,4.8815,4.824,4.7872,4.7466,4.6413,4.5838,4.5534,4.5072,4.5049,4.5673,4.6575,4.7155,4.7331,4.7195,4.7113,4.7039,4.6287,4.5516,4.4819,4.3975,4.3588,4.3608,4.3625,4.3608,4.3497,4.3497,4.3497,4.3497,4.3497,4.3497,4.3497,4.3497,4.3497,4.3497,4.3497,4.4195,4.5553,4.57,4.5736,4.5883,4.5847,4.5883,4.5957,4.5223,4.5149,4.614,4.6948,4.7554,4.8253,4.8363,4.8513,4.8847,4.8915,4.9059,4.9453,4.9527,4.9683,4.9882,5.0397,5.0912,5.1305,5.2198,5.317,5.3359,5.3924,5.4418,5.45,5.4532,5.4484,5.4694,5.5244,5.5944,5.6517,5.6729,5.6873,5.7058,5.7482,5.7862,5.7995,5.8277,5.8507,5.8449,5.8344,5.8119,5.8074,5.8127,5.8172,5.8074,5.7909,5.7432,5.6977,5.625,5.5611,5.539,5.495,5.4509,5.4363,5.3812,5.3628,5.3203,5.3203,5.3203,5.2931,5.2983,5.3004,5.2637,5.2197,5.1977,4.9018,4.9018,4.9018,4.9018,4.9018,4.9018,4.9018,4.8984,4.8748,4.8376,4.7902,4.7398,4.6655,4.5838,4.5432,4.5202,4.4995,4.5749,4.6542,4.7327,4.7723,4.7883,4.7736,4.7076,4.6324,4.5626,4.5296,4.4856,4.4415,4.4342,4.4085,4.3608,4.3497,4.3497,4.3497,4.3497,4.3497,4.3497,4.3497,4.3497,4.3497,4.3497,4.4048,4.4929,4.5076,4.5296,4.5847,4.5883,4.6434,4.7388,4.625,4.614,4.7278,4.7792,4.803,4.8269,4.8306,4.8344,4.8458,4.8532,4.8656,4.909,4.9583,5.0043,5.0372,5.1028,5.1744,5.2203,5.2686,5.2893,5.3456,5.3572,5.3926,5.4458,5.4221,5.4312,5.4874,5.5377,5.5802,5.6331,5.6657,5.6932,5.7243,5.7762,5.8004,5.8021,5.8163,5.826,5.8194,5.8142,5.802,5.7997,5.7997,5.7997,5.7997,5.7997,5.774,5.7446,5.6859,5.6455,5.6235,5.5831,5.539,5.4913,5.4399,5.3959,5.3534,5.3387,5.3497,5.3314,5.324,5.3225,5.3188,5.2931,5.2564,4.9018,4.9018,4.9018,4.9018,4.9018,4.9018,4.9018,4.9018,4.9018,4.8748,4.8342,4.7973,4.7398,4.6549,4.5974,4.5466,4.5106,4.5386,4.5915,4.6751,4.7596,4.7939,4.7906,4.7423,4.6892,4.6361,4.603,4.5626,4.5149,4.4856,4.4452,4.4011,4.3644,4.3497,4.3497,4.3497,4.3497,4.3497,4.3497,4.3497,4.3497,4.3497,4.3864,4.4599,4.4709,4.5095,4.581,4.5883,4.6507,4.7462,4.6838,4.6911,4.7755,4.781,4.7957,4.8269,4.8306,4.8306,4.8306,4.8325,4.8567,4.9121,4.9602,5.0118,5.0715,5.1476,5.2223,5.2581,5.281,5.3101,5.3785,5.3822,5.4055,5.4802,5.4409,5.4548,5.5414,5.5902,5.6316,5.6826,5.7177,5.7376,5.7611,5.781,5.796,5.7997,5.7997,5.7997,5.7997,5.7983,5.8033,5.8033,5.7997,5.7997,5.7997,5.7997,5.7997,5.7813,5.7556,5.7336,5.7189,5.6528,5.6014,5.55,5.495,5.4876,5.4509,5.4399,5.4399,5.4032,5.3628,5.3518,5.3482,5.324,5.2931,4.9018,4.9018,4.9018,4.9018,4.9018,4.9018,4.9018,4.9018,4.9018,4.8984,4.8815,4.8342,4.7939,4.7534,4.6549,4.594,4.5682,4.5569,4.5502,4.586,4.6635,4.7277,4.7404,4.7341,4.7259,4.7076,4.6507,4.6067,4.5791,4.5242,4.4765,4.4601,4.3997,4.359,4.37,4.3571,4.3608,4.3497,4.3497,4.3497,4.3497,4.3497,4.3864,4.4672,4.4745,4.5076,4.5773,4.603,4.6397,4.7003,4.7149,4.7223,4.7223,4.7186,4.7663,4.8269,4.8306,4.8306,4.8306,4.8489,4.8766,4.9412,4.9799,4.9958,5.0942,5.1738,5.2254,5.2381,5.2925,5.3597,5.4207,5.4458,5.4831,5.5412,5.5116,5.5404,5.6514,5.6785,5.7147,5.7675,5.796,5.7983,5.7941,5.7983,5.8056,5.8143,5.818,5.8253,5.8437,5.8547,5.829,5.8327,5.8584,5.8657,5.8877,5.8877,5.8877,5.8841,5.851,5.8253,5.7886,5.7189,5.6602,5.6088,5.5757,5.5647,5.5427,5.517,5.495,5.4656,5.4326,5.4032,5.3885,5.3849,5.3775,4.9018,4.9018,4.9018,4.9018,4.9018,4.9018,4.9018,4.9018,4.9018,4.9018,4.8951,4.8815,4.8409,4.7902,4.75,4.6756,4.5964,4.5665,4.5335,4.4995,4.5597,4.6566,4.7363,4.7776,4.7901,4.7864,4.7532,4.7141,4.6166,4.5916,4.5497,4.493,4.4699,4.4471,4.4417,4.4343,4.4048,4.3571,4.3515,4.3551,4.3571,4.3571,4.3901,4.4635,4.4745,4.5149,4.5883,4.6471,4.6819,4.7113,4.77,4.8012,4.7939,4.792,4.803,4.8233,4.8306,4.8343,4.8453,4.8893,4.9353,4.9647,5.0618,5.1426,5.1646,5.2417,5.2821,5.3041,5.3628,5.4179,5.4473,5.4987,5.5647,5.6308,5.6235,5.6308,5.6785,5.7336,5.7776,5.796,5.796,5.7997,5.807,5.8107,5.829,5.8731,5.8891,5.9061,5.9281,5.9501,5.9355,5.9648,5.9869,5.9832,5.9869,5.9869,5.9869,5.9942,5.9648,5.9134,5.8547,5.774,5.7226,5.6712,5.6565,5.6455,5.5941,5.55,5.5317,5.539,5.5207,5.506,5.506,5.506,5.495,4.9018,4.9018,4.9018,4.9018,4.9018,4.9018,4.9018,4.9018,4.9018,4.9018,4.9018,4.9018,4.8781,4.8376,4.8007,4.7432,4.665,4.5974,4.5466,4.5202,4.5413,4.6098,4.6864,4.7349,4.7638,4.7899,4.7935,4.7624,4.7106,4.6775,4.6182,4.5585,4.5163,4.4927,4.4797,4.4837,4.4766,4.4563,4.4488,4.4488,4.4525,4.4488,4.4709,4.5149,4.5223,4.559,4.6361,4.6856,4.7223,4.759,4.8049,4.8306,4.8306,4.8306,4.8306,4.8306,4.8306,4.8453,4.8857,4.939,4.9904,5.0565,5.1573,5.2087,5.2527,5.3225,5.3702,5.3775,5.4473,5.4987,5.5464,5.6124,5.6748,5.7189,5.7299,5.7299,5.7299,5.7703,5.796,5.7997,5.7997,5.818,5.8437,5.851,5.8914,5.9465,5.9698,5.9942,6.0199,6.0382,6.0493,6.0603,6.0603,6.0419,6.0382,6.0382,6.0456,6.0566,6.0382,5.9942,5.9281,5.8437,5.785,5.7483,5.7373,5.7152,5.6638,5.6345,5.6418,5.6418,5.6235,5.5978,5.5868,5.5941,5.5904,4.9018,4.9018,4.9018,4.9018,4.9018,4.9018,4.9018,4.9018,4.9018,4.9018,4.9018,4.9018,4.8951,4.8951,4.8345,4.7939,4.7767,4.665,4.5974,4.5671,4.5603,4.5822,4.6088,4.6483,4.6864,4.7219,4.7299,4.7413,4.7259,4.6973,4.6597,4.5918,4.5316,4.5105,4.5003,4.5009,4.5273,4.5328,4.5351,4.5294,4.5313,4.5425,4.5682,4.579,4.6232,4.6562,4.7039,4.7333,4.7553,4.825,4.8306,4.8306,4.8306,4.8306,4.8416,4.8526,4.8636,4.8893,4.961,4.9941,5.0492,5.1573,5.1977,5.2491,5.3225,5.3922,5.4326,5.4509,5.5244,5.6014,5.6748,5.7519,5.785,5.8033,5.8107,5.8143,5.8217,5.818,5.8107,5.8143,5.818,5.8657,5.9038,5.9368,5.9612,6.0346,6.0566,6.0786,6.1043,6.1263,6.1227,6.1117,6.1006,6.086,6.0823,6.0823,6.0933,6.1006,6.086,6.0493,6.0015,5.9281,5.8584,5.818,5.8143,5.796,5.7629,5.7519,5.7446,5.7262,5.6969,5.6565,5.6235,5.6455,5.6528,4.9018,4.9018,4.9018,4.9018,4.9018,4.9018,4.9018,4.9018,4.9018,4.9018,4.9018,4.9018,4.9018,4.8984,4.8781,4.8477,4.8003,4.7398,4.6887,4.5703,4.5682,4.5335,4.5386,4.59,4.6413,4.6635,4.6635,4.6495,4.62,4.6165,4.5817,4.5639,4.5526,4.5328,4.5217,4.5156,4.4858,4.4628,4.4993,4.5086,4.4962,4.5539,4.5969,4.6186,4.7083,4.7698,4.7957,4.803,4.814,4.8269,4.8306,4.8306,4.8306,4.8379,4.8636,4.9114,4.9317,4.9664,5.0435,5.1059,5.1593,5.1977,5.2674,5.3261,5.4032,5.4326,5.4766,5.528,5.6051,5.6895,5.7629,5.7886,5.8327,5.8767,5.8988,5.9171,5.9612,5.9318,5.8988,5.9038,5.9428,5.9942,6.0126,6.0162,6.0529,6.1153,6.1447,6.1667,6.1851,6.2034,6.1961,6.1777,6.1777,6.1704,6.1704,6.1667,6.1667,6.1667,6.1484,6.1337,6.086,6.0382,5.9795,5.9318,5.8927,5.8767,5.8547,5.8107,5.7923,5.7813,5.7703,5.7336,5.7116,5.7226,5.7152,4.9018,4.9018,4.9018,4.9018,4.9018,4.9018,4.9018,4.9018,4.9018,4.9018,4.9018,4.9018,4.9018,4.9018,4.8984,4.8748,4.8409,4.8007,4.7327,4.6312,4.5906,4.5466,4.5179,4.5394,4.5673,4.5915,4.5965,4.5865,4.5915,4.584,4.5855,4.5494,4.5503,4.542,4.539,4.5299,4.5328,4.5328,4.5459,4.5459,4.5369,4.5724,4.6167,4.6319,4.7003,4.7428,4.7349,4.77,4.7838,4.7955,4.817,4.8323,4.8416,4.8673,4.915,4.95,4.9994,5.0508,5.1279,5.1756,5.2123,5.2564,5.3298,5.3849,5.4583,5.4987,5.5684,5.6198,5.6895,5.7703,5.8437,5.8584,5.8988,5.9538,5.9795,5.9979,6.0236,6.0052,5.9795,5.9808,6.0065,6.0529,6.075,6.0933,6.1337,6.1924,6.2108,6.2291,6.2328,6.2475,6.2585,6.2511,6.2622,6.2658,6.2658,6.2585,6.2511,6.2438,6.2254,6.2181,6.1998,6.1557,6.1153,6.0493,5.9735,5.9661,5.9465,5.8988,5.8547,5.851,5.84,5.8143,5.796,5.7813,5.774,4.9018,4.9018,4.9018,4.9018,4.9018,4.9018,4.9018,4.9018,4.9018,4.9018,4.9018,4.9018,4.9018,4.9018,4.9018,4.9018,4.8815,4.8409,4.7699,4.6989,4.6515,4.6143,4.5828,4.5394,4.5234,4.5492,4.5407,4.5571,4.5865,4.6088,4.5597,4.5399,4.5346,4.5225,4.5312,4.5364,4.5381,4.5645,4.5855,4.589,4.5925,4.6094,4.6365,4.64,4.6495,4.6577,4.6669,4.6977,4.7291,4.7443,4.8,4.835,4.8666,4.9094,4.9831,4.9941,5.0692,5.1353,5.1977,5.227,5.2601,5.3314,5.3959,5.4546,5.5023,5.5904,5.6565,5.7152,5.7703,5.8437,5.9111,5.9331,5.9758,6.0346,6.0566,6.0639,6.075,6.0786,6.0823,6.0639,6.097,6.1447,6.163,6.1814,6.2254,6.2585,6.2732,6.2805,6.2805,6.2842,6.2842,6.2805,6.2805,6.2805,6.2805,6.2915,6.2915,6.2952,6.2817,6.2805,6.2768,6.2365,6.1814,6.108,6.0566,6.0456,6.0236,5.9722,5.9391,5.9258,5.9171,5.9024,5.8767,5.8437,5.8437,4.9018,4.9018,4.9018,4.9018,4.9018,4.9018,4.9018,4.9018,4.9018,4.9018,4.9018,4.9018,4.9018,4.9018,4.9018,4.9018,4.8951,4.8714,4.8376,4.777,4.7428,4.7124,4.6515,4.5872,4.5614,4.5411,4.5245,4.5104,4.4988,4.4879,4.5008,4.4831,4.4797,4.4831,4.4831,4.4776,4.4879,4.5169,4.5416,4.5442,4.5346,4.5765,4.6198,4.6233,4.6255,4.6339,4.64,4.6507,4.6873,4.7524,4.8183,4.8786,4.9278,4.9523,5.0188,5.1132,5.1548,5.2019,5.2726,5.3004,5.3408,5.3995,5.4473,5.5207,5.6014,5.6675,5.7189,5.785,5.8474,5.9074,5.9184,5.9845,6.0566,6.1117,6.1337,6.152,6.1997,6.197,6.1725,6.1185,6.1689,6.2254,6.2291,6.2365,6.2548,6.2695,6.2768,6.2805,6.2805,6.2842,6.2879,6.2842,6.2805,6.2805,6.2805,6.2927,6.3037,6.3246,6.3184,6.3135,6.3025,6.2842,6.2365,6.1704,6.1337,6.119,6.086,6.0456,6.0272,6.0162,6.0052,5.9905,5.9612,5.9355,5.9575,4.9018,4.9018,4.9018,4.9018,4.9018,4.9018,4.9018,4.9018,4.9018,4.9018,4.9018,4.9018,4.9018,4.9018,4.9018,4.9018,4.9018,4.9018,4.8781,4.8443,4.8105,4.7767,4.7293,4.6616,4.6346,4.6177,4.5901,4.5258,4.4682,4.4609,4.4682,4.4581,4.4581,4.4581,4.4581,4.4609,4.4649,4.4726,4.4886,4.4934,4.4643,4.5267,4.5416,4.5572,4.5884,4.603,4.6187,4.6872,4.7254,4.7697,4.8292,4.8984,4.9567,4.9957,5.0409,5.1658,5.2053,5.2397,5.314,5.3497,5.4032,5.4399,5.506,5.5904,5.6675,5.7189,5.774,5.8474,5.8877,5.9588,6.0419,6.0786,6.1374,6.1923,6.1869,6.1808,6.1994,6.1824,6.1516,6.1325,6.1974,6.2423,6.2695,6.2732,6.2768,6.2805,6.2842,6.2915,6.2989,6.3062,6.3184,6.3466,6.3613,6.3759,6.3723,6.3723,6.3661,6.3734,6.3759,6.3686,6.3576,6.3503,6.3062,6.2401,6.2144,6.1998,6.1777,6.1484,6.1263,6.097,6.0639,6.0419,6.0382,6.0382,6.0566,4.9018,4.9018,4.9018,4.9018,4.9018,4.9018,4.9018,4.9018,4.9018,4.9018,4.9018,4.9018,4.9018,4.9018,4.9018,4.9018,4.9018,4.9018,4.8984,4.8849,4.8477,4.8139,4.7936,4.7462,4.7022,4.6989,4.665,4.6177,4.5461,4.5224,4.5122,4.5224,4.5122,4.5055,4.5128,4.5292,4.5055,4.4993,4.4823,4.4818,4.4649,4.4615,4.4716,4.4852,4.5399,4.5789,4.6136,4.6844,4.7444,4.7837,4.8408,4.9097,4.9766,4.9907,5.0528,5.1606,5.1986,5.2495,5.3192,5.3937,5.4473,5.5133,5.6124,5.6712,5.7262,5.7813,5.8474,5.9074,5.9722,6.0199,6.119,6.1741,6.2108,6.235,6.2057,6.1568,6.154,6.1407,6.1236,6.1412,6.2192,6.2475,6.2574,6.2879,6.2915,6.3356,6.3392,6.3723,6.3796,6.3796,6.3918,6.4347,6.464,6.4897,6.4934,6.4824,6.4751,6.4677,6.4677,6.4604,6.4457,6.4347,6.3759,6.3246,6.3099,6.2952,6.2732,6.2438,6.2071,6.1667,6.119,6.1117,6.1337,6.1374,6.1447,4.9018,4.9018,4.9018,4.9018,4.9018,4.9018,4.9018,4.9018,4.9018,4.9018,4.9018,4.9018,4.9018,4.9018,4.9018,4.9018,4.9018,4.9018,4.9018,4.8951,4.8849,4.8748,4.8748,4.8108,4.7834,4.7733,4.7225,4.6786,4.6481,4.6447,4.6413,4.6346,4.6278,4.6447,4.621,4.6177,4.6515,4.638,4.5872,4.5297,4.4852,4.475,4.5089,4.5432,4.5805,4.6109,4.665,4.7126,4.7427,4.7997,4.8534,4.9215,4.9868,4.9979,5.0387,5.1099,5.1777,5.2425,5.3215,5.4082,5.5089,5.5933,5.6748,5.7189,5.785,5.8584,5.9148,5.9184,6.0346,6.1227,6.1741,6.2205,6.2597,6.2427,6.2051,6.1648,6.1508,6.1787,6.151,6.1731,6.2567,6.2368,6.2259,6.2657,6.3062,6.3539,6.4016,6.4347,6.4604,6.464,6.4751,6.5118,6.5558,6.5888,6.5999,6.5925,6.5815,6.5668,6.5632,6.5558,6.5301,6.5081,6.4677,6.4273,6.409,6.3759,6.3429,6.3099,6.2743,6.2401,6.1998,6.2181,6.2585,6.2475,6.2181,4.7737,4.8257,4.8798,4.9018,4.9018,4.9018,4.9018,4.9018,4.9018,4.9018,4.9018,4.9018,4.9018,4.9018,4.9018,4.9018,4.9018,4.9018,4.9018,4.9018,4.9018,4.9018,4.8917,4.8714,4.8545,4.8409,4.824,4.8173,4.7834,4.7192,4.6786,4.6853,4.6819,4.6718,4.6955,4.6819,4.6752,4.665,4.6447,4.6177,4.5906,4.5867,4.5974,4.6312,4.6718,4.709,4.7394,4.7902,4.8139,4.8541,4.8865,4.909,4.9364,4.9466,4.9742,5.0488,5.1192,5.2083,5.3231,5.4435,5.5614,5.6607,5.7226,5.785,5.8621,5.9368,6.0078,6.0566,6.1153,6.1716,6.1933,6.2131,6.2083,6.1987,6.1803,6.1722,6.1688,6.2183,6.2342,6.2622,6.2895,6.2964,6.3021,6.3434,6.3991,6.4494,6.4787,6.4971,6.5301,6.5558,6.5705,6.5925,6.6402,6.6843,6.6916,6.6916,6.688,6.6806,6.6806,6.6623,6.6145,6.5815,6.5485,6.5154,6.4861,6.453,6.4127,6.3503,6.2952,6.2842,6.2805,6.2805,6.2805,6.2768,6.2548,4.6244,4.7002,4.7901,4.8289,4.8321,4.8545,4.8639,4.8639,4.8892,4.9018,4.9018,4.9018,4.9018,4.9018,4.9018,4.9018,4.9018,4.9018,4.9018,4.9018,4.9018,4.9018,4.8984,4.8951,4.8951,4.9018,4.8849,4.8815,4.8545,4.8071,4.7496,4.7361,4.7564,4.7462,4.7394,4.7462,4.7462,4.7158,4.7124,4.6921,4.6718,4.6684,4.6853,4.7158,4.7534,4.7973,4.824,4.8578,4.8917,4.8951,4.8948,4.904,4.9077,4.9379,4.9681,5.0342,5.1073,5.2155,5.3407,5.4665,5.5982,5.6995,5.7804,5.8527,5.9079,5.9932,6.0329,6.0606,6.1042,6.1505,6.1904,6.172,6.1767,6.167,6.1574,6.1541,6.1697,6.2336,6.2764,6.2892,6.3408,6.4439,6.4521,6.4652,6.5029,6.5459,6.5632,6.5668,6.5999,6.6402,6.6549,6.6733,6.6916,6.732,6.7393,6.754,6.765,6.7687,6.7687,6.754,6.6916,6.6659,6.6402,6.6072,6.5668,6.5264,6.4824,6.3943,6.3135,6.3209,6.3209,6.2915,6.2805,6.2879,6.2842,4.4893,4.5042,4.6028,4.6454,4.6558,4.734,4.7704,4.7901,4.8608,4.8923,4.9018,4.9018,4.9018,4.9018,4.9018,4.9018,4.9018,4.9018,4.9018,4.9018,4.9018,4.9018,4.9018,4.9018,4.9018,4.9018,4.9018,4.9018,4.8984,4.8781,4.8646,4.8815,4.8477,4.8714,4.868,4.8443,4.824,4.7936,4.7834,4.753,4.7192,4.7056,4.7259,4.7733,4.797,4.824,4.8883,4.8984,4.9018,4.9018,4.9018,4.9154,4.9255,4.9593,4.9965,5.0636,5.1446,5.2513,5.3696,5.4794,5.6258,5.7593,5.8456,5.8906,5.922,5.9926,6.0092,5.9873,6.0454,6.0736,6.0944,6.1056,6.1273,6.1545,6.1614,6.1768,6.2045,6.2711,6.3073,6.3115,6.3879,6.5125,6.5852,6.593,6.5946,6.6366,6.6439,6.6476,6.6843,6.721,6.732,6.743,6.7467,6.7614,6.7614,6.7687,6.7687,6.7687,6.7687,6.7687,6.7504,6.732,6.7063,6.6806,6.6366,6.5962,6.5558,6.4897,6.4347,6.3906,6.3649,6.3613,6.3466,6.3503,6.3319,4.3888,4.3927,4.4251,4.5122,4.6208,4.6592,4.707,4.7605,4.7966,4.8513,4.8923,4.9018,4.9018,4.9018,4.9018,4.9018,4.9018,4.9018,4.9018,4.9018,4.9018,4.9018,4.9018,4.9018,4.9018,4.9018,4.9018,4.9018,4.9018,4.9018,4.9018,4.9018,4.9018,4.8984,4.8984,4.9018,4.8815,4.8714,4.8545,4.8376,4.8308,4.8139,4.8274,4.8511,4.8578,4.868,4.8951,4.8984,4.9018,4.9018,4.9018,4.9255,4.9593,4.9999,5.0574,5.1217,5.2063,5.2859,5.387,5.4788,5.5709,5.7074,5.7999,5.8733,5.9173,5.9893,6.0196,6.017,6.0097,6.0325,6.1082,6.0947,6.0831,6.1392,6.1744,6.1951,6.237,6.3025,6.3695,6.3886,6.4956,6.6199,6.6738,6.7173,6.7173,6.7247,6.7247,6.7283,6.754,6.7687,6.7687,6.7687,6.7687,6.7687,6.7687,6.7687,6.7687,6.7687,6.7687,6.7687,6.7687,6.765,6.7393,6.7247,6.7173,6.688,6.6476,6.6035,6.5485,6.4897,6.464,6.4567,6.4395,6.4174,6.3778,4.329,4.329,4.329,4.409,4.5274,4.5638,4.617,4.6728,4.707,4.7539,4.8161,4.8161,4.8353,4.8513,4.8576,4.8798,4.8892,4.9018,4.9018,4.9018,4.9018,4.9018,4.9018,4.9018,4.9018,4.9018,4.9018,4.9018,4.9018,4.9018,4.9018,4.9018,4.9018,4.9018,4.9018,4.9018,4.9018,4.9018,4.9018,4.9018,4.8951,4.8951,4.8917,4.8951,4.8917,4.8951,4.8984,4.9018,4.9018,4.9086,4.9255,4.9593,5.0033,5.0574,5.1285,5.1995,5.2636,5.3237,5.4031,5.5131,5.5814,5.7326,5.8107,5.8738,5.917,5.9675,5.9794,5.9859,5.9927,6.0303,6.1037,6.0843,6.0869,6.1416,6.2037,6.2336,6.2664,6.3238,6.4109,6.4751,6.5641,6.597,6.6091,6.6388,6.6919,6.7094,6.7504,6.7467,6.7577,6.7687,6.7687,6.7687,6.7687,6.7687,6.7687,6.7687,6.7687,6.7687,6.7687,6.7687,6.7687,6.7687,6.7687,6.7504,6.7504,6.765,6.7357,6.6806,6.6292,6.5778,6.5406,6.4971,6.4815,6.4506,6.422,4.329,4.329,4.329,4.3369,4.3693,4.4434,4.4893,4.5264,4.6028,4.6419,4.6558,4.6523,4.6934,4.7473,4.7638,4.7933,4.8513,4.8767,4.8829,4.8798,4.8923,4.8987,4.9018,4.9018,4.9018,4.9018,4.9018,4.9018,4.9018,4.9018,4.9018,4.9086,4.912,4.9086,4.9018,4.9018,4.9018,4.9018,4.9018,4.912,4.9154,4.9255,4.9357,4.939,4.939,4.9458,4.9458,4.9458,4.9492,4.9492,4.9864,5.0202,5.0473,5.1454,5.2097,5.2401,5.3078,5.345,5.3719,5.5579,5.6806,5.757,5.8051,5.8622,5.8965,5.9147,5.9288,5.9388,5.9375,5.9672,6.0201,6.0774,6.1121,6.1601,6.2183,6.2498,6.284,6.3028,6.3758,6.4462,6.4801,6.5065,6.5062,6.5323,6.6139,6.6743,6.7424,6.7687,6.766,6.7687,6.7687,6.7687,6.7687,6.7687,6.7687,6.7687,6.7687,6.7687,6.7687,6.7687,6.7687,6.7687,6.7687,6.7687,6.7687,6.7687,6.7687,6.755,6.6838,6.6062,6.5542,6.5159,6.5004,6.4831,6.4432,4.329,4.329,4.329,4.329,4.3329,4.3645,4.4159,4.4924,4.5742,4.6173,4.6208,4.6208,4.6314,4.6592,4.6696,4.69,4.7239,4.7933,4.8063,4.8129,4.8608,4.8987,4.9018,4.8987,4.9018,4.9018,4.9018,4.9018,4.9018,4.9086,4.9052,4.9052,4.9526,4.9424,4.9154,4.9018,4.9018,4.912,4.9424,4.9763,4.9796,5.0135,5.0405,5.0371,5.034,5.0338,5.0304,5.027,5.027,5.0304,5.071,5.098,5.1319,5.2266,5.2536,5.2909,5.3484,5.3754,5.4397,5.5755,5.6814,5.7292,5.76,5.805,5.818,5.8793,5.8914,5.9211,5.9573,6.008,6.0863,6.1066,6.1409,6.1951,6.2397,6.243,6.2586,6.2663,6.3049,6.3683,6.4148,6.4495,6.4631,6.439,6.4959,6.5676,6.6307,6.7202,6.7396,6.7596,6.7687,6.7687,6.7687,6.7687,6.7687,6.7488,6.746,6.7488,6.7569,6.7687,6.7687,6.7687,6.7687,6.7687,6.7687,6.7687,6.7433,6.7137,6.6801,6.6257,6.5334,6.4999,6.5041,6.4848,6.4598,4.329,4.329,4.329,4.329,4.329,4.329,4.3693,4.432,4.4937,4.5196,4.5159,4.5196,4.5416,4.5597,4.5742,4.6032,4.6208,4.6765,4.7138,4.7273,4.8096,4.8354,4.8513,4.8863,4.9018,4.9018,4.9052,4.9086,4.9424,4.9424,4.9627,4.9965,5.0236,5.0236,4.9965,4.9898,4.9898,5.0033,5.0338,5.0473,5.0608,5.0845,5.115,5.1116,5.115,5.115,5.1183,5.1251,5.1251,5.1319,5.1522,5.1792,5.2232,5.2638,5.2942,5.3382,5.3822,5.4363,5.5447,5.6056,5.6946,5.7316,5.7171,5.7543,5.8118,5.8767,5.9411,5.981,6.025,6.0858,6.1467,6.1569,6.1806,6.2347,6.2415,6.2448,6.2454,6.2532,6.2644,6.323,6.3388,6.3793,6.4043,6.3832,6.3798,6.4424,6.5068,6.6059,6.7024,6.7286,6.7396,6.7396,6.7286,6.7081,6.7081,6.7053,6.7081,6.723,6.7314,6.7396,6.7687,6.7687,6.7687,6.7687,6.7633,6.746,6.6939,6.6546,6.577,6.5095,6.4388,6.4387,6.4866,6.469,6.4309,4.329,4.329,4.329,4.329,4.329,4.329,4.3329,4.3369,4.3409,4.3448,4.3409,4.3536,4.4013,4.4662,4.4774,4.5122,4.5809,4.606,4.6298,4.6547,4.7332,4.7603,4.8132,4.8617,4.9003,4.9092,4.9289,4.9796,5.0101,5.0135,5.0473,5.1014,5.115,5.1251,5.1251,5.1319,5.115,5.098,5.1082,5.1217,5.1319,5.1454,5.1691,5.1725,5.1691,5.1691,5.1657,5.1657,5.1589,5.1691,5.2029,5.2232,5.2604,5.3112,5.3348,5.3754,5.4262,5.5446,5.6292,5.6765,5.734,5.7814,5.7915,5.8355,5.8795,5.9235,5.9979,6.0622,6.1129,6.1637,6.2144,6.2178,6.2245,6.2448,6.2516,6.2516,6.2448,6.2522,6.2589,6.2717,6.2654,6.2817,6.2931,6.2791,6.3142,6.3541,6.4183,6.4835,6.5811,6.6664,6.6816,6.6845,6.67,6.6368,6.6338,6.6338,6.6338,6.6301,6.6722,6.6902,6.7286,6.735,6.7069,6.6983,6.7387,6.721,6.6368,6.5329,6.4253,6.3719,6.3574,6.3537,6.3936,6.3829,6.3546,4.329,4.329,4.329,4.329,4.329,4.329,4.329,4.329,4.329,4.329,4.329,4.329,4.3527,4.3732,4.3732,4.3935,4.4542,4.5215,4.5703,4.6181,4.6869,4.7612,4.8194,4.8564,4.9155,4.971,5.0107,5.0413,5.0779,5.0881,5.1319,5.186,5.1995,5.2266,5.257,5.2807,5.2131,5.1725,5.1826,5.1961,5.2164,5.2401,5.2536,5.2638,5.2638,5.2638,5.2638,5.2672,5.2672,5.2841,5.301,5.3145,5.3213,5.3416,5.3619,5.4363,5.5344,5.6427,5.6833,5.7306,5.7881,5.8457,5.8693,5.8727,5.9235,5.9945,6.0723,6.1298,6.1738,6.2144,6.2381,6.2448,6.255,6.2651,6.2787,6.299,6.2956,6.3024,6.3024,6.2516,6.2415,6.2482,6.2482,6.2459,6.2787,6.2973,6.3277,6.3899,6.4632,6.5586,6.615,6.6181,6.5873,6.5494,6.5426,6.5426,6.5426,6.549,6.5899,6.6114,6.6023,6.6064,6.6115,6.6213,6.6433,6.6141,6.5558,6.4461,6.3462,6.3351,6.324,6.3049,6.2897,6.2973,6.3007,4.329,4.329,4.329,4.329,4.329,4.329,4.329,4.329,4.329,4.329,4.329,4.329,4.329,4.3329,4.3399,4.3558,4.3898,4.4655,4.5205,4.5778,4.6559,4.713,4.7754,4.8326,4.8676,4.949,5.0159,5.0527,5.1128,5.193,5.2469,5.2706,5.2773,5.3044,5.3315,5.3281,5.2976,5.2638,5.2536,5.2706,5.2976,5.3213,5.3416,5.3518,5.3518,5.3518,5.3518,5.3518,5.3518,5.3518,5.3518,5.3518,5.3585,5.3754,5.4566,5.5344,5.6089,5.6833,5.7306,5.7983,5.849,5.9032,5.9539,5.9945,6.0182,6.0723,6.1264,6.1772,6.211,6.2415,6.2516,6.2618,6.2753,6.2854,6.3193,6.3565,6.3632,6.3734,6.326,6.2651,6.2516,6.2584,6.2584,6.2482,6.242,6.2581,6.2736,6.2973,6.3791,6.47,6.5229,6.549,6.5001,6.4495,6.4495,6.4495,6.4495,6.4666,6.5131,6.5229,6.4933,6.5068,6.5335,6.5382,6.5324,6.4946,6.453,6.3827,6.3011,6.2935,6.2931,6.274,6.2659,6.262,6.2615,4.329,4.329,4.329,4.329,4.329,4.329,4.329,4.329,4.329,4.329,4.329,4.329,4.329,4.329,4.3319,4.3678,4.4077,4.4609,4.5172,4.5376,4.6244,4.6897,4.7362,4.7675,4.8386,4.8643,4.9336,5.0535,5.1315,5.2234,5.3145,5.3484,5.3416,5.345,5.3484,5.3518,5.3315,5.3213,5.3179,5.3315,5.3382,5.3484,5.3518,5.3518,5.3518,5.3518,5.3518,5.3518,5.3518,5.3518,5.3619,5.3653,5.4059,5.4566,5.5615,5.6224,5.6799,5.7239,5.7746,5.8389,5.8863,5.9573,6.0419,6.0926,6.1231,6.1366,6.1806,6.2042,6.2347,6.2618,6.2787,6.3024,6.3226,6.3632,6.4072,6.3971,6.3632,6.3565,6.3159,6.2753,6.2956,6.299,6.2584,6.2482,6.2618,6.2555,6.2459,6.2576,6.2969,6.3829,6.4183,6.4564,6.4113,6.361,6.361,6.361,6.361,6.3829,6.4288,6.4357,6.4043,6.4323,6.4698,6.4463,6.4106,6.3929,6.3533,6.2969,6.2697,6.262,6.2576,6.2459,6.2415,6.2415,6.2415,4.329,4.329,4.329,4.329,4.329,4.329,4.329,4.329,4.329,4.3319,4.3319,4.3319,4.3319,4.3379,4.3469,4.3828,4.4336,4.4945,4.5454,4.5873,4.6441,4.6875,4.729,4.7689,4.8207,4.9088,4.9834,5.0644,5.163,5.2769,5.3518,5.3518,5.3518,5.3518,5.3518,5.3518,5.3518,5.3518,5.3518,5.3518,5.3518,5.3518,5.3518,5.3484,5.345,5.3484,5.3484,5.3518,5.3484,5.3551,5.4093,5.4566,5.5175,5.5852,5.6359,5.6799,5.7306,5.7645,5.8084,5.8727,5.9302,5.9945,6.0757,6.1467,6.1907,6.2042,6.2178,6.2313,6.255,6.2821,6.3125,6.3429,6.3835,6.441,6.4918,6.4343,6.3734,6.3328,6.299,6.3125,6.3396,6.3193,6.2787,6.2719,6.2787,6.2685,6.2482,6.2459,6.2459,6.2973,6.3087,6.3314,6.3087,6.2774,6.2779,6.2893,6.2973,6.2931,6.3202,6.3202,6.3165,6.3353,6.3647,6.3165,6.2813,6.2928,6.3004,6.2659,6.2459,6.2415,6.2415,6.2415,6.2415,6.2415,6.2415,4.329,4.329,4.329,4.329,4.329,4.329,4.329,4.3349,4.3589,4.3738,4.3778,4.3738,4.3738,4.3828,4.4047,4.4456,4.5053,4.5544,4.6142,4.6591,4.6753,4.7051,4.7399,4.7598,4.7783,4.86,4.9871,5.0865,5.1776,5.287,5.3518,5.345,5.3484,5.3484,5.3484,5.3518,5.3518,5.3518,5.3484,5.3484,5.3484,5.345,5.3144,5.3076,5.3178,5.3347,5.3512,5.3649,5.4228,5.4431,5.4938,5.548,5.5987,5.6461,5.69,5.7273,5.7679,5.8051,5.8457,5.9066,5.981,6.0554,6.1298,6.211,6.2178,6.2279,6.2279,6.2448,6.2922,6.3226,6.3632,6.3971,6.458,6.5189,6.5561,6.5459,6.4512,6.3632,6.3396,6.3328,6.3666,6.4005,6.3734,6.3734,6.37,6.3193,6.2922,6.2584,6.255,6.2415,6.2415,6.2415,6.2415,6.2415,6.2537,6.2576,6.2576,6.2459,6.2415,6.2576,6.274,6.2581,6.242,6.2459,6.2459,6.2498,6.2459,6.2415,6.2415,6.2415,6.2415,6.2415,6.2415,6.2415,6.2415,4.329,4.329,4.329,4.329,4.329,4.329,4.3349,4.3529,4.4047,4.4377,4.4466,4.4556,4.4526,4.4676,4.5005,4.5663,4.604,4.6082,4.6621,4.707,4.7219,4.7259,4.7259,4.7349,4.7503,4.8076,4.9215,5.0242,5.1155,5.2134,5.2765,5.3144,5.3314,5.3348,5.3484,5.3518,5.3518,5.345,5.3449,5.338,5.3381,5.3449,5.3036,5.2863,5.2998,5.3402,5.3697,5.4176,5.5106,5.5446,5.575,5.6292,5.6697,5.707,5.7306,5.7679,5.8017,5.8423,5.893,5.9742,6.0486,6.1231,6.2009,6.2347,6.2381,6.2516,6.2516,6.2821,6.3294,6.3768,6.4174,6.4647,6.529,6.5764,6.6102,6.6136,6.4986,6.3937,6.37,6.3565,6.3937,6.441,6.4478,6.4478,6.4377,6.3903,6.3429,6.3057,6.2753,6.2516,6.2415,6.2415,6.2415,6.2415,6.2415,6.2415,6.2415,6.2415,6.2415,6.2415,6.2415,6.2415,6.2415,6.2415,6.2415,6.2415,6.2415,6.2415,6.2415,6.2415,6.2415,6.2415,6.2415,6.2415,6.2415,4.329,4.329,4.329,4.329,4.329,4.3319,4.3589,4.4107,4.4257,4.4586,4.5155,4.5663,4.5693,4.5125,4.5185,4.5723,4.6381,4.6399,4.677,4.7219,4.7309,4.7309,4.7309,4.7309,4.7309,4.7849,4.8543,4.9135,5.0165,5.0817,5.1521,5.2277,5.2277,5.2696,5.3518,5.3585,5.3653,5.3686,5.3504,5.3423,5.3241,5.3349,5.3634,5.3695,5.3953,5.4506,5.4988,5.5339,5.5546,5.5783,5.6325,5.6934,5.7306,5.7543,5.7746,5.8051,5.8389,5.8896,5.9505,6.0351,6.1095,6.1434,6.2042,6.2381,6.2584,6.299,6.3091,6.3328,6.3835,6.4377,6.4816,6.5256,6.5831,6.6034,6.6339,6.573,6.485,6.4106,6.3599,6.3734,6.4038,6.4241,6.4309,6.458,6.5155,6.4613,6.3971,6.3599,6.3193,6.2821,6.2482,6.2415,6.2448,6.2415,6.2415,6.2415,6.2415,6.2415,6.2415,6.2415,6.2415,6.2415,6.2415,6.2415,6.2415,6.2415,6.2415,6.2415,6.2415,6.2415,6.2415,6.2415,6.2415,6.2341,6.2263]}]]